<?xml version="1.0" encoding="UTF-8"?>
<gpx creator="Wikiloc - https://www.wikiloc.com" version="1.1" xmlns="http://www.topografix.com/GPX/1/1" xmlns:xsi="http://www.w3.org/2001/XMLSchema-instance" xsi:schemaLocation="http://www.topografix.com/GPX/1/1 http://www.topografix.com/GPX/1/1/gpx.xsd">
  <wpt lat="38.341417" lon="-6.412911">
    <ele>0.0</ele>
    <time>2011-07-25T19:53:43Z</time>
    <name>MEDINA DE LAS TORRES</name>
    <cmt></cmt>
    <desc></desc>
  </wpt>
  <wpt lat="38.310862" lon="-6.420234">
    <ele>0.0</ele>
    <time>2011-07-25T19:55:10Z</time>
    <name>RIBERA ATARJA</name>
    <cmt></cmt>
    <desc></desc>
  </wpt>
  <wpt lat="38.303873" lon="-6.414624">
    <ele>0.0</ele>
    <time>2011-07-25T19:55:29Z</time>
    <name>INIC CIRCULAR</name>
    <cmt></cmt>
    <desc></desc>
  </wpt>
  <wpt lat="38.306164" lon="-6.464257">
    <ele>0.0</ele>
    <time>2011-07-25T19:57:09Z</time>
    <name>RIO BODION</name>
    <cmt></cmt>
    <desc></desc>
  </wpt>
  <wpt lat="38.315537" lon="-6.443345">
    <ele>0.0</ele>
    <time>2011-07-25T19:57:28Z</time>
    <name>CRUCE CTRA</name>
    <cmt></cmt>
    <desc></desc>
  </wpt>
  <wpt lat="38.304433" lon="-6.451485">
    <ele>0.0</ele>
    <time>2011-07-25T19:57:34Z</time>
    <name>CRUCE CTRA</name>
    <cmt></cmt>
    <desc></desc>
  </wpt>
  <wpt lat="38.287006" lon="-6.419784">
    <ele>0.0</ele>
    <time>2011-07-25T19:59:07Z</time>
    <name>C R DE LA PUEBLA</name>
    <cmt></cmt>
    <desc></desc>
  </wpt>
  <wpt lat="38.294978" lon="-6.410854">
    <ele>0.0</ele>
    <time>2011-07-25T19:59:30Z</time>
    <name>CRUCE VIAS</name>
    <cmt></cmt>
    <desc></desc>
  </wpt>
  <wpt lat="38.298691" lon="-6.408307">
    <ele>0.0</ele>
    <time>2011-07-25T19:59:55Z</time>
    <name>C R DE LA PUEBLA</name>
    <cmt></cmt>
    <desc></desc>
  </wpt>
  <trk>
    <name>PR-BA 159 'Las Riveras' (Medina de las Torres)</name>
    <cmt>Más información en www.fexme.com.</cmt>
    <desc>Más información en www.fexme.com.</desc>
    <trkseg>
      <trkpt lat="38.337944" lon="-6.415287">
        <ele>518.8</ele>
        <time>2011-04-02T10:33:52Z</time>
      </trkpt>
      <trkpt lat="38.337662" lon="-6.415396">
        <ele>519.3</ele>
        <time>2011-04-02T10:34:18Z</time>
      </trkpt>
      <trkpt lat="38.337639" lon="-6.415400">
        <ele>519.3</ele>
        <time>2011-04-02T10:34:38Z</time>
      </trkpt>
      <trkpt lat="38.337643" lon="-6.415407">
        <ele>519.7</ele>
        <time>2011-04-02T10:35:01Z</time>
      </trkpt>
      <trkpt lat="38.337643" lon="-6.415407">
        <ele>519.7</ele>
        <time>2011-04-02T10:35:32Z</time>
      </trkpt>
      <trkpt lat="38.337639" lon="-6.415405">
        <ele>520.7</ele>
        <time>2011-04-02T10:36:10Z</time>
      </trkpt>
      <trkpt lat="38.337444" lon="-6.415480">
        <ele>521.7</ele>
        <time>2011-04-02T10:37:55Z</time>
      </trkpt>
      <trkpt lat="38.337234" lon="-6.415620">
        <ele>522.1</ele>
        <time>2011-04-02T10:38:18Z</time>
      </trkpt>
      <trkpt lat="38.337231" lon="-6.415613">
        <ele>521.7</ele>
        <time>2011-04-02T10:38:42Z</time>
      </trkpt>
      <trkpt lat="38.337223" lon="-6.415620">
        <ele>523.1</ele>
        <time>2011-04-02T10:38:55Z</time>
      </trkpt>
      <trkpt lat="38.337116" lon="-6.415703">
        <ele>523.1</ele>
        <time>2011-04-02T10:39:20Z</time>
      </trkpt>
      <trkpt lat="38.336899" lon="-6.415904">
        <ele>522.1</ele>
        <time>2011-04-02T10:39:43Z</time>
      </trkpt>
      <trkpt lat="38.336807" lon="-6.415984">
        <ele>522.6</ele>
        <time>2011-04-02T10:39:58Z</time>
      </trkpt>
      <trkpt lat="38.336834" lon="-6.416084">
        <ele>524.5</ele>
        <time>2011-04-02T10:40:21Z</time>
      </trkpt>
      <trkpt lat="38.336823" lon="-6.416054">
        <ele>524.1</ele>
        <time>2011-04-02T10:40:40Z</time>
      </trkpt>
      <trkpt lat="38.336735" lon="-6.416074">
        <ele>523.6</ele>
        <time>2011-04-02T10:40:49Z</time>
      </trkpt>
      <trkpt lat="38.336666" lon="-6.416116">
        <ele>523.6</ele>
        <time>2011-04-02T10:40:56Z</time>
      </trkpt>
      <trkpt lat="38.336628" lon="-6.416143">
        <ele>522.6</ele>
        <time>2011-04-02T10:41:00Z</time>
      </trkpt>
      <trkpt lat="38.336399" lon="-6.416283">
        <ele>524.1</ele>
        <time>2011-04-02T10:41:22Z</time>
      </trkpt>
      <trkpt lat="38.336159" lon="-6.416389">
        <ele>524.5</ele>
        <time>2011-04-02T10:41:42Z</time>
      </trkpt>
      <trkpt lat="38.335949" lon="-6.416469">
        <ele>526.0</ele>
        <time>2011-04-02T10:42:01Z</time>
      </trkpt>
      <trkpt lat="38.335766" lon="-6.416587">
        <ele>525.5</ele>
        <time>2011-04-02T10:42:18Z</time>
      </trkpt>
      <trkpt lat="38.335716" lon="-6.416633">
        <ele>525.5</ele>
        <time>2011-04-02T10:42:37Z</time>
      </trkpt>
      <trkpt lat="38.335682" lon="-6.416637">
        <ele>525.5</ele>
        <time>2011-04-02T10:43:04Z</time>
      </trkpt>
      <trkpt lat="38.335670" lon="-6.416639">
        <ele>525.5</ele>
        <time>2011-04-02T10:43:06Z</time>
      </trkpt>
      <trkpt lat="38.335617" lon="-6.416667">
        <ele>526.9</ele>
        <time>2011-04-02T10:43:11Z</time>
      </trkpt>
      <trkpt lat="38.335457" lon="-6.416758">
        <ele>527.4</ele>
        <time>2011-04-02T10:43:30Z</time>
      </trkpt>
      <trkpt lat="38.335342" lon="-6.416832">
        <ele>526.9</ele>
        <time>2011-04-02T10:43:41Z</time>
      </trkpt>
      <trkpt lat="38.335217" lon="-6.416894">
        <ele>527.4</ele>
        <time>2011-04-02T10:43:52Z</time>
      </trkpt>
      <trkpt lat="38.334988" lon="-6.417021">
        <ele>527.4</ele>
        <time>2011-04-02T10:44:12Z</time>
      </trkpt>
      <trkpt lat="38.334728" lon="-6.417181">
        <ele>527.4</ele>
        <time>2011-04-02T10:44:36Z</time>
      </trkpt>
      <trkpt lat="38.334484" lon="-6.417364">
        <ele>524.5</ele>
        <time>2011-04-02T10:44:58Z</time>
      </trkpt>
      <trkpt lat="38.334419" lon="-6.417410">
        <ele>527.4</ele>
        <time>2011-04-02T10:45:03Z</time>
      </trkpt>
      <trkpt lat="38.334381" lon="-6.417428">
        <ele>529.3</ele>
        <time>2011-04-02T10:45:07Z</time>
      </trkpt>
      <trkpt lat="38.334309" lon="-6.417474">
        <ele>531.3</ele>
        <time>2011-04-02T10:45:13Z</time>
      </trkpt>
      <trkpt lat="38.334286" lon="-6.417484">
        <ele>531.8</ele>
        <time>2011-04-02T10:45:14Z</time>
      </trkpt>
      <trkpt lat="38.334183" lon="-6.417531">
        <ele>533.7</ele>
        <time>2011-04-02T10:45:22Z</time>
      </trkpt>
      <trkpt lat="38.333912" lon="-6.417599">
        <ele>537.5</ele>
        <time>2011-04-02T10:45:44Z</time>
      </trkpt>
      <trkpt lat="38.333675" lon="-6.417654">
        <ele>538.9</ele>
        <time>2011-04-02T10:46:03Z</time>
      </trkpt>
      <trkpt lat="38.333622" lon="-6.417655">
        <ele>539.4</ele>
        <time>2011-04-02T10:46:07Z</time>
      </trkpt>
      <trkpt lat="38.333328" lon="-6.417707">
        <ele>542.3</ele>
        <time>2011-04-02T10:46:30Z</time>
      </trkpt>
      <trkpt lat="38.333214" lon="-6.417731">
        <ele>542.8</ele>
        <time>2011-04-02T10:46:39Z</time>
      </trkpt>
      <trkpt lat="38.333168" lon="-6.417748">
        <ele>542.8</ele>
        <time>2011-04-02T10:46:43Z</time>
      </trkpt>
      <trkpt lat="38.333115" lon="-6.417759">
        <ele>543.3</ele>
        <time>2011-04-02T10:46:47Z</time>
      </trkpt>
      <trkpt lat="38.333050" lon="-6.417758">
        <ele>542.8</ele>
        <time>2011-04-02T10:46:51Z</time>
      </trkpt>
      <trkpt lat="38.332855" lon="-6.417819">
        <ele>544.3</ele>
        <time>2011-04-02T10:47:06Z</time>
      </trkpt>
      <trkpt lat="38.332787" lon="-6.417824">
        <ele>544.3</ele>
        <time>2011-04-02T10:47:13Z</time>
      </trkpt>
      <trkpt lat="38.332710" lon="-6.417857">
        <ele>544.7</ele>
        <time>2011-04-02T10:47:18Z</time>
      </trkpt>
      <trkpt lat="38.332428" lon="-6.417877">
        <ele>545.2</ele>
        <time>2011-04-02T10:47:41Z</time>
      </trkpt>
      <trkpt lat="38.332230" lon="-6.417848">
        <ele>545.7</ele>
        <time>2011-04-02T10:48:04Z</time>
      </trkpt>
      <trkpt lat="38.332035" lon="-6.417830">
        <ele>544.7</ele>
        <time>2011-04-02T10:48:19Z</time>
      </trkpt>
      <trkpt lat="38.331783" lon="-6.417799">
        <ele>544.7</ele>
        <time>2011-04-02T10:48:39Z</time>
      </trkpt>
      <trkpt lat="38.331493" lon="-6.417768">
        <ele>543.3</ele>
        <time>2011-04-02T10:49:01Z</time>
      </trkpt>
      <trkpt lat="38.331223" lon="-6.417716">
        <ele>543.3</ele>
        <time>2011-04-02T10:49:24Z</time>
      </trkpt>
      <trkpt lat="38.330982" lon="-6.417773">
        <ele>542.8</ele>
        <time>2011-04-02T10:49:43Z</time>
      </trkpt>
      <trkpt lat="38.330936" lon="-6.417783">
        <ele>542.3</ele>
        <time>2011-04-02T10:49:47Z</time>
      </trkpt>
      <trkpt lat="38.330811" lon="-6.417801">
        <ele>541.8</ele>
        <time>2011-04-02T10:49:56Z</time>
      </trkpt>
      <trkpt lat="38.330551" lon="-6.417735">
        <ele>540.9</ele>
        <time>2011-04-02T10:50:16Z</time>
      </trkpt>
      <trkpt lat="38.330269" lon="-6.417807">
        <ele>539.9</ele>
        <time>2011-04-02T10:50:39Z</time>
      </trkpt>
      <trkpt lat="38.330177" lon="-6.417811">
        <ele>539.9</ele>
        <time>2011-04-02T10:50:46Z</time>
      </trkpt>
      <trkpt lat="38.329887" lon="-6.417750">
        <ele>539.4</ele>
        <time>2011-04-02T10:51:09Z</time>
      </trkpt>
      <trkpt lat="38.329632" lon="-6.417848">
        <ele>538.5</ele>
        <time>2011-04-02T10:51:31Z</time>
      </trkpt>
      <trkpt lat="38.329449" lon="-6.417827">
        <ele>537.5</ele>
        <time>2011-04-02T10:51:50Z</time>
      </trkpt>
      <trkpt lat="38.329468" lon="-6.417824">
        <ele>538.0</ele>
        <time>2011-04-02T10:52:04Z</time>
      </trkpt>
      <trkpt lat="38.329372" lon="-6.417814">
        <ele>537.5</ele>
        <time>2011-04-02T10:53:31Z</time>
      </trkpt>
      <trkpt lat="38.329128" lon="-6.417878">
        <ele>536.1</ele>
        <time>2011-04-02T10:53:55Z</time>
      </trkpt>
      <trkpt lat="38.329063" lon="-6.417889">
        <ele>536.1</ele>
        <time>2011-04-02T10:54:00Z</time>
      </trkpt>
      <trkpt lat="38.328945" lon="-6.417932">
        <ele>534.2</ele>
        <time>2011-04-02T10:54:10Z</time>
      </trkpt>
      <trkpt lat="38.328857" lon="-6.417893">
        <ele>534.2</ele>
        <time>2011-04-02T10:54:26Z</time>
      </trkpt>
      <trkpt lat="38.328869" lon="-6.417894">
        <ele>533.2</ele>
        <time>2011-04-02T10:54:41Z</time>
      </trkpt>
      <trkpt lat="38.328823" lon="-6.417876">
        <ele>533.7</ele>
        <time>2011-04-02T10:54:57Z</time>
      </trkpt>
      <trkpt lat="38.328789" lon="-6.417842">
        <ele>533.7</ele>
        <time>2011-04-02T10:55:01Z</time>
      </trkpt>
      <trkpt lat="38.328663" lon="-6.417786">
        <ele>531.8</ele>
        <time>2011-04-02T10:55:26Z</time>
      </trkpt>
      <trkpt lat="38.328583" lon="-6.417769">
        <ele>531.3</ele>
        <time>2011-04-02T10:55:44Z</time>
      </trkpt>
      <trkpt lat="38.328556" lon="-6.417772">
        <ele>531.3</ele>
        <time>2011-04-02T10:55:51Z</time>
      </trkpt>
      <trkpt lat="38.328449" lon="-6.417772">
        <ele>529.8</ele>
        <time>2011-04-02T10:56:10Z</time>
      </trkpt>
      <trkpt lat="38.328434" lon="-6.417788">
        <ele>528.9</ele>
        <time>2011-04-02T10:56:13Z</time>
      </trkpt>
      <trkpt lat="38.328415" lon="-6.417809">
        <ele>528.9</ele>
        <time>2011-04-02T10:56:41Z</time>
      </trkpt>
      <trkpt lat="38.328411" lon="-6.417808">
        <ele>528.9</ele>
        <time>2011-04-02T10:56:53Z</time>
      </trkpt>
      <trkpt lat="38.328346" lon="-6.417797">
        <ele>528.4</ele>
        <time>2011-04-02T10:56:59Z</time>
      </trkpt>
      <trkpt lat="38.328079" lon="-6.417857">
        <ele>525.5</ele>
        <time>2011-04-02T10:57:22Z</time>
      </trkpt>
      <trkpt lat="38.327995" lon="-6.417849">
        <ele>523.6</ele>
        <time>2011-04-02T10:57:43Z</time>
      </trkpt>
      <trkpt lat="38.327957" lon="-6.417844">
        <ele>523.1</ele>
        <time>2011-04-02T10:58:06Z</time>
      </trkpt>
      <trkpt lat="38.327847" lon="-6.417880">
        <ele>521.7</ele>
        <time>2011-04-02T10:58:24Z</time>
      </trkpt>
      <trkpt lat="38.327618" lon="-6.417926">
        <ele>518.3</ele>
        <time>2011-04-02T10:58:43Z</time>
      </trkpt>
      <trkpt lat="38.327583" lon="-6.417893">
        <ele>517.8</ele>
        <time>2011-04-02T10:59:02Z</time>
      </trkpt>
      <trkpt lat="38.327583" lon="-6.417893">
        <ele>518.3</ele>
        <time>2011-04-02T10:59:34Z</time>
      </trkpt>
      <trkpt lat="38.327530" lon="-6.417925">
        <ele>517.3</ele>
        <time>2011-04-02T11:00:02Z</time>
      </trkpt>
      <trkpt lat="38.327522" lon="-6.417930">
        <ele>517.3</ele>
        <time>2011-04-02T11:00:05Z</time>
      </trkpt>
      <trkpt lat="38.327408" lon="-6.417953">
        <ele>515.9</ele>
        <time>2011-04-02T11:00:16Z</time>
      </trkpt>
      <trkpt lat="38.327362" lon="-6.417947">
        <ele>515.9</ele>
        <time>2011-04-02T11:00:20Z</time>
      </trkpt>
      <trkpt lat="38.327339" lon="-6.417951">
        <ele>515.4</ele>
        <time>2011-04-02T11:00:21Z</time>
      </trkpt>
      <trkpt lat="38.327320" lon="-6.417944">
        <ele>515.9</ele>
        <time>2011-04-02T11:00:24Z</time>
      </trkpt>
      <trkpt lat="38.327015" lon="-6.417988">
        <ele>514.0</ele>
        <time>2011-04-02T11:00:47Z</time>
      </trkpt>
      <trkpt lat="38.326763" lon="-6.418043">
        <ele>513.5</ele>
        <time>2011-04-02T11:01:07Z</time>
      </trkpt>
      <trkpt lat="38.326752" lon="-6.418045">
        <ele>513.5</ele>
        <time>2011-04-02T11:01:07Z</time>
      </trkpt>
      <trkpt lat="38.326660" lon="-6.418102">
        <ele>513.5</ele>
        <time>2011-04-02T11:01:15Z</time>
      </trkpt>
      <trkpt lat="38.326633" lon="-6.418126">
        <ele>513.5</ele>
        <time>2011-04-02T11:01:19Z</time>
      </trkpt>
      <trkpt lat="38.326412" lon="-6.418282">
        <ele>514.0</ele>
        <time>2011-04-02T11:01:38Z</time>
      </trkpt>
      <trkpt lat="38.326374" lon="-6.418314">
        <ele>514.4</ele>
        <time>2011-04-02T11:01:42Z</time>
      </trkpt>
      <trkpt lat="38.326347" lon="-6.418349">
        <ele>514.4</ele>
        <time>2011-04-02T11:02:01Z</time>
      </trkpt>
      <trkpt lat="38.326324" lon="-6.418340">
        <ele>514.9</ele>
        <time>2011-04-02T11:02:23Z</time>
      </trkpt>
      <trkpt lat="38.326279" lon="-6.418373">
        <ele>515.9</ele>
        <time>2011-04-02T11:02:50Z</time>
      </trkpt>
      <trkpt lat="38.326111" lon="-6.418456">
        <ele>516.4</ele>
        <time>2011-04-02T11:03:07Z</time>
      </trkpt>
      <trkpt lat="38.325916" lon="-6.418538">
        <ele>515.4</ele>
        <time>2011-04-02T11:03:30Z</time>
      </trkpt>
      <trkpt lat="38.325886" lon="-6.418555">
        <ele>514.9</ele>
        <time>2011-04-02T11:03:49Z</time>
      </trkpt>
      <trkpt lat="38.325886" lon="-6.418555">
        <ele>515.4</ele>
        <time>2011-04-02T11:04:26Z</time>
      </trkpt>
      <trkpt lat="38.325890" lon="-6.418560">
        <ele>514.9</ele>
        <time>2011-04-02T11:05:15Z</time>
      </trkpt>
      <trkpt lat="38.325890" lon="-6.418561">
        <ele>515.4</ele>
        <time>2011-04-02T11:05:59Z</time>
      </trkpt>
      <trkpt lat="38.325890" lon="-6.418564">
        <ele>514.9</ele>
        <time>2011-04-02T11:06:28Z</time>
      </trkpt>
      <trkpt lat="38.325867" lon="-6.418562">
        <ele>514.4</ele>
        <time>2011-04-02T11:06:54Z</time>
      </trkpt>
      <trkpt lat="38.325733" lon="-6.418575">
        <ele>514.4</ele>
        <time>2011-04-02T11:07:02Z</time>
      </trkpt>
      <trkpt lat="38.325455" lon="-6.418510">
        <ele>512.5</ele>
        <time>2011-04-02T11:07:21Z</time>
      </trkpt>
      <trkpt lat="38.325184" lon="-6.418505">
        <ele>510.6</ele>
        <time>2011-04-02T11:07:41Z</time>
      </trkpt>
      <trkpt lat="38.325066" lon="-6.418528">
        <ele>509.2</ele>
        <time>2011-04-02T11:07:51Z</time>
      </trkpt>
      <trkpt lat="38.324997" lon="-6.418540">
        <ele>509.6</ele>
        <time>2011-04-02T11:07:56Z</time>
      </trkpt>
      <trkpt lat="38.324867" lon="-6.418561">
        <ele>509.2</ele>
        <time>2011-04-02T11:08:20Z</time>
      </trkpt>
      <trkpt lat="38.324802" lon="-6.418589">
        <ele>508.7</ele>
        <time>2011-04-02T11:08:38Z</time>
      </trkpt>
      <trkpt lat="38.324783" lon="-6.418582">
        <ele>509.2</ele>
        <time>2011-04-02T11:08:56Z</time>
      </trkpt>
      <trkpt lat="38.324757" lon="-6.418603">
        <ele>508.2</ele>
        <time>2011-04-02T11:09:14Z</time>
      </trkpt>
      <trkpt lat="38.324741" lon="-6.418606">
        <ele>508.2</ele>
        <time>2011-04-02T11:09:24Z</time>
      </trkpt>
      <trkpt lat="38.324604" lon="-6.418629">
        <ele>507.7</ele>
        <time>2011-04-02T11:09:37Z</time>
      </trkpt>
      <trkpt lat="38.324581" lon="-6.418640">
        <ele>508.2</ele>
        <time>2011-04-02T11:09:40Z</time>
      </trkpt>
      <trkpt lat="38.324532" lon="-6.418653">
        <ele>507.7</ele>
        <time>2011-04-02T11:09:44Z</time>
      </trkpt>
      <trkpt lat="38.324272" lon="-6.418720">
        <ele>506.3</ele>
        <time>2011-04-02T11:10:06Z</time>
      </trkpt>
      <trkpt lat="38.323997" lon="-6.418763">
        <ele>505.3</ele>
        <time>2011-04-02T11:10:27Z</time>
      </trkpt>
      <trkpt lat="38.323727" lon="-6.418802">
        <ele>503.9</ele>
        <time>2011-04-02T11:10:49Z</time>
      </trkpt>
      <trkpt lat="38.323654" lon="-6.418815">
        <ele>502.9</ele>
        <time>2011-04-02T11:10:54Z</time>
      </trkpt>
      <trkpt lat="38.323414" lon="-6.418840">
        <ele>501.0</ele>
        <time>2011-04-02T11:11:16Z</time>
      </trkpt>
      <trkpt lat="38.323154" lon="-6.418911">
        <ele>499.5</ele>
        <time>2011-04-02T11:11:36Z</time>
      </trkpt>
      <trkpt lat="38.323044" lon="-6.418932">
        <ele>498.6</ele>
        <time>2011-04-02T11:11:44Z</time>
      </trkpt>
      <trkpt lat="38.322803" lon="-6.418842">
        <ele>495.7</ele>
        <time>2011-04-02T11:12:03Z</time>
      </trkpt>
      <trkpt lat="38.322666" lon="-6.418796">
        <ele>495.2</ele>
        <time>2011-04-02T11:12:29Z</time>
      </trkpt>
      <trkpt lat="38.322670" lon="-6.418794">
        <ele>495.2</ele>
        <time>2011-04-02T11:12:44Z</time>
      </trkpt>
      <trkpt lat="38.322636" lon="-6.418774">
        <ele>495.2</ele>
        <time>2011-04-02T11:12:50Z</time>
      </trkpt>
      <trkpt lat="38.322399" lon="-6.418639">
        <ele>495.2</ele>
        <time>2011-04-02T11:13:12Z</time>
      </trkpt>
      <trkpt lat="38.322197" lon="-6.418562">
        <ele>495.2</ele>
        <time>2011-04-02T11:13:31Z</time>
      </trkpt>
      <trkpt lat="38.322048" lon="-6.418496">
        <ele>495.2</ele>
        <time>2011-04-02T11:13:43Z</time>
      </trkpt>
      <trkpt lat="38.322014" lon="-6.418467">
        <ele>495.2</ele>
        <time>2011-04-02T11:13:47Z</time>
      </trkpt>
      <trkpt lat="38.321732" lon="-6.418324">
        <ele>496.2</ele>
        <time>2011-04-02T11:14:10Z</time>
      </trkpt>
      <trkpt lat="38.321468" lon="-6.418187">
        <ele>495.7</ele>
        <time>2011-04-02T11:14:33Z</time>
      </trkpt>
      <trkpt lat="38.321243" lon="-6.418103">
        <ele>495.2</ele>
        <time>2011-04-02T11:14:52Z</time>
      </trkpt>
      <trkpt lat="38.321121" lon="-6.418079">
        <ele>496.2</ele>
        <time>2011-04-02T11:15:15Z</time>
      </trkpt>
      <trkpt lat="38.320847" lon="-6.418021">
        <ele>495.7</ele>
        <time>2011-04-02T11:15:35Z</time>
      </trkpt>
      <trkpt lat="38.320614" lon="-6.417948">
        <ele>496.2</ele>
        <time>2011-04-02T11:15:54Z</time>
      </trkpt>
      <trkpt lat="38.320370" lon="-6.417890">
        <ele>497.1</ele>
        <time>2011-04-02T11:16:17Z</time>
      </trkpt>
      <trkpt lat="38.320347" lon="-6.417882">
        <ele>497.6</ele>
        <time>2011-04-02T11:16:18Z</time>
      </trkpt>
      <trkpt lat="38.320126" lon="-6.417834">
        <ele>497.6</ele>
        <time>2011-04-02T11:16:39Z</time>
      </trkpt>
      <trkpt lat="38.320080" lon="-6.417823">
        <ele>498.1</ele>
        <time>2011-04-02T11:16:43Z</time>
      </trkpt>
      <trkpt lat="38.319790" lon="-6.417746">
        <ele>498.6</ele>
        <time>2011-04-02T11:17:06Z</time>
      </trkpt>
      <trkpt lat="38.319519" lon="-6.417723">
        <ele>500.0</ele>
        <time>2011-04-02T11:17:27Z</time>
      </trkpt>
      <trkpt lat="38.319477" lon="-6.417724">
        <ele>500.0</ele>
        <time>2011-04-02T11:17:31Z</time>
      </trkpt>
      <trkpt lat="38.319298" lon="-6.417751">
        <ele>501.5</ele>
        <time>2011-04-02T11:17:46Z</time>
      </trkpt>
      <trkpt lat="38.319214" lon="-6.417807">
        <ele>501.9</ele>
        <time>2011-04-02T11:17:54Z</time>
      </trkpt>
      <trkpt lat="38.318974" lon="-6.417958">
        <ele>501.0</ele>
        <time>2011-04-02T11:18:16Z</time>
      </trkpt>
      <trkpt lat="38.318710" lon="-6.418043">
        <ele>499.5</ele>
        <time>2011-04-02T11:18:36Z</time>
      </trkpt>
      <trkpt lat="38.318615" lon="-6.418054">
        <ele>498.6</ele>
        <time>2011-04-02T11:18:44Z</time>
      </trkpt>
      <trkpt lat="38.318378" lon="-6.418067">
        <ele>496.2</ele>
        <time>2011-04-02T11:19:06Z</time>
      </trkpt>
      <trkpt lat="38.318275" lon="-6.418084">
        <ele>495.2</ele>
        <time>2011-04-02T11:19:22Z</time>
      </trkpt>
      <trkpt lat="38.318024" lon="-6.418086">
        <ele>493.3</ele>
        <time>2011-04-02T11:19:44Z</time>
      </trkpt>
      <trkpt lat="38.317833" lon="-6.418072">
        <ele>491.9</ele>
        <time>2011-04-02T11:19:58Z</time>
      </trkpt>
      <trkpt lat="38.317677" lon="-6.418082">
        <ele>490.4</ele>
        <time>2011-04-02T11:20:12Z</time>
      </trkpt>
      <trkpt lat="38.317410" lon="-6.418059">
        <ele>489.4</ele>
        <time>2011-04-02T11:20:32Z</time>
      </trkpt>
      <trkpt lat="38.317127" lon="-6.418067">
        <ele>488.0</ele>
        <time>2011-04-02T11:20:55Z</time>
      </trkpt>
      <trkpt lat="38.317017" lon="-6.418073">
        <ele>487.0</ele>
        <time>2011-04-02T11:21:05Z</time>
      </trkpt>
      <trkpt lat="38.316956" lon="-6.418066">
        <ele>487.5</ele>
        <time>2011-04-02T11:21:10Z</time>
      </trkpt>
      <trkpt lat="38.316803" lon="-6.418088">
        <ele>485.6</ele>
        <time>2011-04-02T11:21:22Z</time>
      </trkpt>
      <trkpt lat="38.316792" lon="-6.418097">
        <ele>485.1</ele>
        <time>2011-04-02T11:21:23Z</time>
      </trkpt>
      <trkpt lat="38.316765" lon="-6.418107">
        <ele>485.1</ele>
        <time>2011-04-02T11:21:26Z</time>
      </trkpt>
      <trkpt lat="38.316677" lon="-6.418146">
        <ele>484.2</ele>
        <time>2011-04-02T11:21:34Z</time>
      </trkpt>
      <trkpt lat="38.316647" lon="-6.418159">
        <ele>483.7</ele>
        <time>2011-04-02T11:21:37Z</time>
      </trkpt>
      <trkpt lat="38.316563" lon="-6.418149">
        <ele>482.7</ele>
        <time>2011-04-02T11:21:45Z</time>
      </trkpt>
      <trkpt lat="38.316341" lon="-6.418148">
        <ele>480.3</ele>
        <time>2011-04-02T11:22:04Z</time>
      </trkpt>
      <trkpt lat="38.316181" lon="-6.418148">
        <ele>478.4</ele>
        <time>2011-04-02T11:22:16Z</time>
      </trkpt>
      <trkpt lat="38.316029" lon="-6.418163">
        <ele>477.0</ele>
        <time>2011-04-02T11:22:35Z</time>
      </trkpt>
      <trkpt lat="38.316025" lon="-6.418167">
        <ele>477.0</ele>
        <time>2011-04-02T11:22:54Z</time>
      </trkpt>
      <trkpt lat="38.316010" lon="-6.418179">
        <ele>477.0</ele>
        <time>2011-04-02T11:23:06Z</time>
      </trkpt>
      <trkpt lat="38.315975" lon="-6.418206">
        <ele>476.5</ele>
        <time>2011-04-02T11:23:11Z</time>
      </trkpt>
      <trkpt lat="38.315926" lon="-6.418237">
        <ele>476.5</ele>
        <time>2011-04-02T11:23:25Z</time>
      </trkpt>
      <trkpt lat="38.315800" lon="-6.418270">
        <ele>475.5</ele>
        <time>2011-04-02T11:23:48Z</time>
      </trkpt>
      <trkpt lat="38.315712" lon="-6.418320">
        <ele>475.0</ele>
        <time>2011-04-02T11:24:00Z</time>
      </trkpt>
      <trkpt lat="38.315662" lon="-6.418349">
        <ele>474.5</ele>
        <time>2011-04-02T11:24:07Z</time>
      </trkpt>
      <trkpt lat="38.315632" lon="-6.418363">
        <ele>474.1</ele>
        <time>2011-04-02T11:24:11Z</time>
      </trkpt>
      <trkpt lat="38.315407" lon="-6.418532">
        <ele>472.6</ele>
        <time>2011-04-02T11:24:32Z</time>
      </trkpt>
      <trkpt lat="38.315212" lon="-6.418745">
        <ele>471.6</ele>
        <time>2011-04-02T11:24:54Z</time>
      </trkpt>
      <trkpt lat="38.314957" lon="-6.418908">
        <ele>468.8</ele>
        <time>2011-04-02T11:25:16Z</time>
      </trkpt>
      <trkpt lat="38.314701" lon="-6.419097">
        <ele>467.8</ele>
        <time>2011-04-02T11:25:39Z</time>
      </trkpt>
      <trkpt lat="38.314465" lon="-6.419240">
        <ele>467.3</ele>
        <time>2011-04-02T11:25:59Z</time>
      </trkpt>
      <trkpt lat="38.314205" lon="-6.419336">
        <ele>466.9</ele>
        <time>2011-04-02T11:26:19Z</time>
      </trkpt>
      <trkpt lat="38.314190" lon="-6.419337">
        <ele>466.9</ele>
        <time>2011-04-02T11:26:20Z</time>
      </trkpt>
      <trkpt lat="38.314011" lon="-6.419397">
        <ele>466.9</ele>
        <time>2011-04-02T11:26:35Z</time>
      </trkpt>
      <trkpt lat="38.313900" lon="-6.419425">
        <ele>466.4</ele>
        <time>2011-04-02T11:26:45Z</time>
      </trkpt>
      <trkpt lat="38.313869" lon="-6.419451">
        <ele>466.9</ele>
        <time>2011-04-02T11:26:47Z</time>
      </trkpt>
      <trkpt lat="38.313820" lon="-6.419461">
        <ele>466.4</ele>
        <time>2011-04-02T11:26:51Z</time>
      </trkpt>
      <trkpt lat="38.313587" lon="-6.419585">
        <ele>464.9</ele>
        <time>2011-04-02T11:27:13Z</time>
      </trkpt>
      <trkpt lat="38.313488" lon="-6.419657">
        <ele>464.5</ele>
        <time>2011-04-02T11:27:24Z</time>
      </trkpt>
      <trkpt lat="38.313427" lon="-6.419725">
        <ele>464.0</ele>
        <time>2011-04-02T11:27:33Z</time>
      </trkpt>
      <trkpt lat="38.313381" lon="-6.419749">
        <ele>463.5</ele>
        <time>2011-04-02T11:27:37Z</time>
      </trkpt>
      <trkpt lat="38.313366" lon="-6.419763">
        <ele>463.0</ele>
        <time>2011-04-02T11:27:40Z</time>
      </trkpt>
      <trkpt lat="38.313332" lon="-6.419764">
        <ele>462.5</ele>
        <time>2011-04-02T11:27:43Z</time>
      </trkpt>
      <trkpt lat="38.313255" lon="-6.419793">
        <ele>462.0</ele>
        <time>2011-04-02T11:27:48Z</time>
      </trkpt>
      <trkpt lat="38.313004" lon="-6.419897">
        <ele>458.7</ele>
        <time>2011-04-02T11:28:11Z</time>
      </trkpt>
      <trkpt lat="38.312778" lon="-6.420022">
        <ele>455.8</ele>
        <time>2011-04-02T11:28:31Z</time>
      </trkpt>
      <trkpt lat="38.312759" lon="-6.420056">
        <ele>455.3</ele>
        <time>2011-04-02T11:28:34Z</time>
      </trkpt>
      <trkpt lat="38.312679" lon="-6.420103">
        <ele>454.9</ele>
        <time>2011-04-02T11:28:42Z</time>
      </trkpt>
      <trkpt lat="38.312454" lon="-6.420226">
        <ele>451.5</ele>
        <time>2011-04-02T11:29:01Z</time>
      </trkpt>
      <trkpt lat="38.312283" lon="-6.420339">
        <ele>449.1</ele>
        <time>2011-04-02T11:29:17Z</time>
      </trkpt>
      <trkpt lat="38.312099" lon="-6.420544">
        <ele>447.1</ele>
        <time>2011-04-02T11:29:38Z</time>
      </trkpt>
      <trkpt lat="38.312050" lon="-6.420587">
        <ele>446.7</ele>
        <time>2011-04-02T11:29:43Z</time>
      </trkpt>
      <trkpt lat="38.311875" lon="-6.420662">
        <ele>444.8</ele>
        <time>2011-04-02T11:29:58Z</time>
      </trkpt>
      <trkpt lat="38.311658" lon="-6.420710">
        <ele>441.4</ele>
        <time>2011-04-02T11:30:15Z</time>
      </trkpt>
      <trkpt lat="38.311532" lon="-6.420767">
        <ele>439.5</ele>
        <time>2011-04-02T11:30:26Z</time>
      </trkpt>
      <trkpt lat="38.311280" lon="-6.420825">
        <ele>437.1</ele>
        <time>2011-04-02T11:30:46Z</time>
      </trkpt>
      <trkpt lat="38.311135" lon="-6.420861">
        <ele>436.1</ele>
        <time>2011-04-02T11:31:04Z</time>
      </trkpt>
      <trkpt lat="38.310948" lon="-6.420908">
        <ele>434.6</ele>
        <time>2011-04-02T11:31:19Z</time>
      </trkpt>
      <trkpt lat="38.310891" lon="-6.420910">
        <ele>434.6</ele>
        <time>2011-04-02T11:31:24Z</time>
      </trkpt>
      <trkpt lat="38.310655" lon="-6.420951">
        <ele>431.8</ele>
        <time>2011-04-02T11:31:47Z</time>
      </trkpt>
      <trkpt lat="38.310624" lon="-6.420956">
        <ele>433.2</ele>
        <time>2011-04-02T11:32:05Z</time>
      </trkpt>
      <trkpt lat="38.310594" lon="-6.420967">
        <ele>433.2</ele>
        <time>2011-04-02T11:32:14Z</time>
      </trkpt>
      <trkpt lat="38.310540" lon="-6.420976">
        <ele>432.2</ele>
        <time>2011-04-02T11:32:18Z</time>
      </trkpt>
      <trkpt lat="38.310372" lon="-6.420960">
        <ele>432.2</ele>
        <time>2011-04-02T11:33:31Z</time>
      </trkpt>
      <trkpt lat="38.310372" lon="-6.420959">
        <ele>433.2</ele>
        <time>2011-04-02T11:34:09Z</time>
      </trkpt>
      <trkpt lat="38.310418" lon="-6.420963">
        <ele>431.8</ele>
        <time>2011-04-02T11:34:29Z</time>
      </trkpt>
      <trkpt lat="38.310395" lon="-6.420953">
        <ele>432.7</ele>
        <time>2011-04-02T11:35:27Z</time>
      </trkpt>
      <trkpt lat="38.310250" lon="-6.420937">
        <ele>433.7</ele>
        <time>2011-04-02T11:38:01Z</time>
      </trkpt>
      <trkpt lat="38.310250" lon="-6.420937">
        <ele>433.2</ele>
        <time>2011-04-02T11:38:02Z</time>
      </trkpt>
      <trkpt lat="38.310239" lon="-6.420882">
        <ele>432.2</ele>
        <time>2011-04-02T11:38:21Z</time>
      </trkpt>
      <trkpt lat="38.310239" lon="-6.420882">
        <ele>432.7</ele>
        <time>2011-04-02T11:39:14Z</time>
      </trkpt>
      <trkpt lat="38.310239" lon="-6.420880">
        <ele>432.7</ele>
        <time>2011-04-02T11:40:11Z</time>
      </trkpt>
      <trkpt lat="38.310239" lon="-6.420880">
        <ele>432.7</ele>
        <time>2011-04-02T11:41:01Z</time>
      </trkpt>
      <trkpt lat="38.310243" lon="-6.420881">
        <ele>432.7</ele>
        <time>2011-04-02T11:41:56Z</time>
      </trkpt>
      <trkpt lat="38.310239" lon="-6.420883">
        <ele>432.7</ele>
        <time>2011-04-02T11:42:55Z</time>
      </trkpt>
      <trkpt lat="38.310231" lon="-6.420889">
        <ele>432.2</ele>
        <time>2011-04-02T11:43:35Z</time>
      </trkpt>
      <trkpt lat="38.310231" lon="-6.420881">
        <ele>432.7</ele>
        <time>2011-04-02T11:44:10Z</time>
      </trkpt>
      <trkpt lat="38.310185" lon="-6.420885">
        <ele>433.7</ele>
        <time>2011-04-02T11:49:59Z</time>
      </trkpt>
      <trkpt lat="38.309972" lon="-6.420836">
        <ele>435.1</ele>
        <time>2011-04-02T11:50:18Z</time>
      </trkpt>
      <trkpt lat="38.309724" lon="-6.420742">
        <ele>435.6</ele>
        <time>2011-04-02T11:50:38Z</time>
      </trkpt>
      <trkpt lat="38.309495" lon="-6.420640">
        <ele>435.6</ele>
        <time>2011-04-02T11:50:57Z</time>
      </trkpt>
      <trkpt lat="38.309259" lon="-6.420501">
        <ele>435.6</ele>
        <time>2011-04-02T11:51:16Z</time>
      </trkpt>
      <trkpt lat="38.309171" lon="-6.420461">
        <ele>436.1</ele>
        <time>2011-04-02T11:51:26Z</time>
      </trkpt>
      <trkpt lat="38.309117" lon="-6.420403">
        <ele>435.6</ele>
        <time>2011-04-02T11:51:31Z</time>
      </trkpt>
      <trkpt lat="38.309037" lon="-6.420318">
        <ele>436.1</ele>
        <time>2011-04-02T11:51:42Z</time>
      </trkpt>
      <trkpt lat="38.309018" lon="-6.420280">
        <ele>435.6</ele>
        <time>2011-04-02T11:51:45Z</time>
      </trkpt>
      <trkpt lat="38.308927" lon="-6.420164">
        <ele>435.6</ele>
        <time>2011-04-02T11:51:54Z</time>
      </trkpt>
      <trkpt lat="38.308896" lon="-6.420135">
        <ele>436.1</ele>
        <time>2011-04-02T11:51:58Z</time>
      </trkpt>
      <trkpt lat="38.308858" lon="-6.420051">
        <ele>436.1</ele>
        <time>2011-04-02T11:52:03Z</time>
      </trkpt>
      <trkpt lat="38.308629" lon="-6.419809">
        <ele>435.6</ele>
        <time>2011-04-02T11:52:26Z</time>
      </trkpt>
      <trkpt lat="38.308431" lon="-6.419580">
        <ele>436.1</ele>
        <time>2011-04-02T11:52:47Z</time>
      </trkpt>
      <trkpt lat="38.308419" lon="-6.419554">
        <ele>436.1</ele>
        <time>2011-04-02T11:52:48Z</time>
      </trkpt>
      <trkpt lat="38.308324" lon="-6.419396">
        <ele>436.6</ele>
        <time>2011-04-02T11:53:07Z</time>
      </trkpt>
      <trkpt lat="38.308320" lon="-6.419404">
        <ele>436.6</ele>
        <time>2011-04-02T11:53:37Z</time>
      </trkpt>
      <trkpt lat="38.308263" lon="-6.419364">
        <ele>436.1</ele>
        <time>2011-04-02T11:53:42Z</time>
      </trkpt>
      <trkpt lat="38.308042" lon="-6.419200">
        <ele>437.5</ele>
        <time>2011-04-02T11:54:04Z</time>
      </trkpt>
      <trkpt lat="38.307939" lon="-6.419166">
        <ele>437.1</ele>
        <time>2011-04-02T11:54:13Z</time>
      </trkpt>
      <trkpt lat="38.307897" lon="-6.419143">
        <ele>438.0</ele>
        <time>2011-04-02T11:54:17Z</time>
      </trkpt>
      <trkpt lat="38.307633" lon="-6.419036">
        <ele>438.5</ele>
        <time>2011-04-02T11:54:40Z</time>
      </trkpt>
      <trkpt lat="38.307466" lon="-6.419007">
        <ele>440.9</ele>
        <time>2011-04-02T11:54:55Z</time>
      </trkpt>
      <trkpt lat="38.307359" lon="-6.418983">
        <ele>442.3</ele>
        <time>2011-04-02T11:55:03Z</time>
      </trkpt>
      <trkpt lat="38.307164" lon="-6.418894">
        <ele>444.3</ele>
        <time>2011-04-02T11:55:22Z</time>
      </trkpt>
      <trkpt lat="38.306970" lon="-6.418765">
        <ele>446.2</ele>
        <time>2011-04-02T11:55:41Z</time>
      </trkpt>
      <trkpt lat="38.306771" lon="-6.418665">
        <ele>447.6</ele>
        <time>2011-04-02T11:56:00Z</time>
      </trkpt>
      <trkpt lat="38.306726" lon="-6.418644">
        <ele>448.6</ele>
        <time>2011-04-02T11:56:05Z</time>
      </trkpt>
      <trkpt lat="38.306527" lon="-6.418600">
        <ele>451.0</ele>
        <time>2011-04-02T11:56:24Z</time>
      </trkpt>
      <trkpt lat="38.306470" lon="-6.418590">
        <ele>451.5</ele>
        <time>2011-04-02T11:56:28Z</time>
      </trkpt>
      <trkpt lat="38.306375" lon="-6.418550">
        <ele>452.9</ele>
        <time>2011-04-02T11:56:38Z</time>
      </trkpt>
      <trkpt lat="38.306291" lon="-6.418506">
        <ele>453.9</ele>
        <time>2011-04-02T11:56:56Z</time>
      </trkpt>
      <trkpt lat="38.306230" lon="-6.418458">
        <ele>453.9</ele>
        <time>2011-04-02T11:57:14Z</time>
      </trkpt>
      <trkpt lat="38.306230" lon="-6.418462">
        <ele>453.9</ele>
        <time>2011-04-02T11:57:40Z</time>
      </trkpt>
      <trkpt lat="38.306230" lon="-6.418461">
        <ele>454.4</ele>
        <time>2011-04-02T11:58:19Z</time>
      </trkpt>
      <trkpt lat="38.306230" lon="-6.418452">
        <ele>454.4</ele>
        <time>2011-04-02T11:58:24Z</time>
      </trkpt>
      <trkpt lat="38.306146" lon="-6.418326">
        <ele>454.9</ele>
        <time>2011-04-02T11:58:36Z</time>
      </trkpt>
      <trkpt lat="38.306104" lon="-6.418238">
        <ele>455.3</ele>
        <time>2011-04-02T11:58:43Z</time>
      </trkpt>
      <trkpt lat="38.306035" lon="-6.417989">
        <ele>457.2</ele>
        <time>2011-04-02T11:58:59Z</time>
      </trkpt>
      <trkpt lat="38.306016" lon="-6.417900">
        <ele>457.2</ele>
        <time>2011-04-02T11:59:06Z</time>
      </trkpt>
      <trkpt lat="38.305997" lon="-6.417812">
        <ele>457.7</ele>
        <time>2011-04-02T11:59:11Z</time>
      </trkpt>
      <trkpt lat="38.305978" lon="-6.417760">
        <ele>458.7</ele>
        <time>2011-04-02T11:59:15Z</time>
      </trkpt>
      <trkpt lat="38.305963" lon="-6.417707">
        <ele>458.7</ele>
        <time>2011-04-02T11:59:20Z</time>
      </trkpt>
      <trkpt lat="38.305921" lon="-6.417605">
        <ele>459.2</ele>
        <time>2011-04-02T11:59:26Z</time>
      </trkpt>
      <trkpt lat="38.305837" lon="-6.417322">
        <ele>461.6</ele>
        <time>2011-04-02T11:59:47Z</time>
      </trkpt>
      <trkpt lat="38.305818" lon="-6.417272">
        <ele>461.1</ele>
        <time>2011-04-02T11:59:51Z</time>
      </trkpt>
      <trkpt lat="38.305772" lon="-6.417079">
        <ele>461.6</ele>
        <time>2011-04-02T12:00:04Z</time>
      </trkpt>
      <trkpt lat="38.305776" lon="-6.417003">
        <ele>462.5</ele>
        <time>2011-04-02T12:00:08Z</time>
      </trkpt>
      <trkpt lat="38.305734" lon="-6.416794">
        <ele>463.5</ele>
        <time>2011-04-02T12:00:23Z</time>
      </trkpt>
      <trkpt lat="38.305623" lon="-6.416559">
        <ele>466.4</ele>
        <time>2011-04-02T12:00:43Z</time>
      </trkpt>
      <trkpt lat="38.305570" lon="-6.416518">
        <ele>466.9</ele>
        <time>2011-04-02T12:00:50Z</time>
      </trkpt>
      <trkpt lat="38.305520" lon="-6.416499">
        <ele>467.8</ele>
        <time>2011-04-02T12:00:55Z</time>
      </trkpt>
      <trkpt lat="38.305421" lon="-6.416471">
        <ele>469.3</ele>
        <time>2011-04-02T12:01:13Z</time>
      </trkpt>
      <trkpt lat="38.305413" lon="-6.416462">
        <ele>468.8</ele>
        <time>2011-04-02T12:01:17Z</time>
      </trkpt>
      <trkpt lat="38.305390" lon="-6.416421">
        <ele>469.3</ele>
        <time>2011-04-02T12:01:21Z</time>
      </trkpt>
      <trkpt lat="38.305356" lon="-6.416419">
        <ele>469.3</ele>
        <time>2011-04-02T12:01:25Z</time>
      </trkpt>
      <trkpt lat="38.305314" lon="-6.416399">
        <ele>469.7</ele>
        <time>2011-04-02T12:01:29Z</time>
      </trkpt>
      <trkpt lat="38.305265" lon="-6.416357">
        <ele>470.7</ele>
        <time>2011-04-02T12:01:48Z</time>
      </trkpt>
      <trkpt lat="38.305184" lon="-6.416241">
        <ele>471.6</ele>
        <time>2011-04-02T12:02:00Z</time>
      </trkpt>
      <trkpt lat="38.305009" lon="-6.416005">
        <ele>474.5</ele>
        <time>2011-04-02T12:02:23Z</time>
      </trkpt>
      <trkpt lat="38.304933" lon="-6.415909">
        <ele>475.5</ele>
        <time>2011-04-02T12:02:31Z</time>
      </trkpt>
      <trkpt lat="38.304921" lon="-6.415858">
        <ele>476.0</ele>
        <time>2011-04-02T12:02:35Z</time>
      </trkpt>
      <trkpt lat="38.304849" lon="-6.415754">
        <ele>477.0</ele>
        <time>2011-04-02T12:02:45Z</time>
      </trkpt>
      <trkpt lat="38.304765" lon="-6.415644">
        <ele>477.4</ele>
        <time>2011-04-02T12:02:56Z</time>
      </trkpt>
      <trkpt lat="38.304742" lon="-6.415584">
        <ele>477.9</ele>
        <time>2011-04-02T12:03:01Z</time>
      </trkpt>
      <trkpt lat="38.304727" lon="-6.415502">
        <ele>478.9</ele>
        <time>2011-04-02T12:03:05Z</time>
      </trkpt>
      <trkpt lat="38.304681" lon="-6.415293">
        <ele>479.4</ele>
        <time>2011-04-02T12:03:20Z</time>
      </trkpt>
      <trkpt lat="38.304666" lon="-6.415255">
        <ele>479.4</ele>
        <time>2011-04-02T12:03:23Z</time>
      </trkpt>
      <trkpt lat="38.304620" lon="-6.415006">
        <ele>480.8</ele>
        <time>2011-04-02T12:03:43Z</time>
      </trkpt>
      <trkpt lat="38.304608" lon="-6.414994">
        <ele>480.8</ele>
        <time>2011-04-02T12:04:03Z</time>
      </trkpt>
      <trkpt lat="38.304544" lon="-6.414934">
        <ele>481.3</ele>
        <time>2011-04-02T12:04:12Z</time>
      </trkpt>
      <trkpt lat="38.304513" lon="-6.414930">
        <ele>481.8</ele>
        <time>2011-04-02T12:04:15Z</time>
      </trkpt>
      <trkpt lat="38.304349" lon="-6.414806">
        <ele>485.1</ele>
        <time>2011-04-02T12:04:34Z</time>
      </trkpt>
      <trkpt lat="38.304338" lon="-6.414798">
        <ele>485.1</ele>
        <time>2011-04-02T12:04:35Z</time>
      </trkpt>
      <trkpt lat="38.304288" lon="-6.414750">
        <ele>485.6</ele>
        <time>2011-04-02T12:04:42Z</time>
      </trkpt>
      <trkpt lat="38.304208" lon="-6.414708">
        <ele>486.6</ele>
        <time>2011-04-02T12:04:49Z</time>
      </trkpt>
      <trkpt lat="38.304154" lon="-6.414684">
        <ele>487.5</ele>
        <time>2011-04-02T12:04:56Z</time>
      </trkpt>
      <trkpt lat="38.304090" lon="-6.414684">
        <ele>488.5</ele>
        <time>2011-04-02T12:05:17Z</time>
      </trkpt>
      <trkpt lat="38.303948" lon="-6.414707">
        <ele>489.9</ele>
        <time>2011-04-02T12:05:39Z</time>
      </trkpt>
      <trkpt lat="38.303903" lon="-6.414768">
        <ele>489.9</ele>
        <time>2011-04-02T12:05:50Z</time>
      </trkpt>
      <trkpt lat="38.303906" lon="-6.414766">
        <ele>491.4</ele>
        <time>2011-04-02T12:06:10Z</time>
      </trkpt>
      <trkpt lat="38.303899" lon="-6.414794">
        <ele>491.4</ele>
        <time>2011-04-02T12:06:33Z</time>
      </trkpt>
      <trkpt lat="38.303899" lon="-6.414794">
        <ele>491.4</ele>
        <time>2011-04-02T12:07:01Z</time>
      </trkpt>
      <trkpt lat="38.303899" lon="-6.414796">
        <ele>491.4</ele>
        <time>2011-04-02T12:07:32Z</time>
      </trkpt>
      <trkpt lat="38.303891" lon="-6.414737">
        <ele>491.9</ele>
        <time>2011-04-02T12:07:58Z</time>
      </trkpt>
      <trkpt lat="38.303887" lon="-6.414675">
        <ele>491.9</ele>
        <time>2011-04-02T12:08:03Z</time>
      </trkpt>
      <trkpt lat="38.303887" lon="-6.414605">
        <ele>491.9</ele>
        <time>2011-04-02T12:08:10Z</time>
      </trkpt>
      <trkpt lat="38.303792" lon="-6.414474">
        <ele>491.9</ele>
        <time>2011-04-02T12:08:29Z</time>
      </trkpt>
      <trkpt lat="38.303784" lon="-6.414466">
        <ele>491.9</ele>
        <time>2011-04-02T12:08:33Z</time>
      </trkpt>
      <trkpt lat="38.303647" lon="-6.414393">
        <ele>492.3</ele>
        <time>2011-04-02T12:08:47Z</time>
      </trkpt>
      <trkpt lat="38.303624" lon="-6.414391">
        <ele>492.8</ele>
        <time>2011-04-02T12:09:12Z</time>
      </trkpt>
      <trkpt lat="38.303563" lon="-6.414359">
        <ele>492.8</ele>
        <time>2011-04-02T12:09:42Z</time>
      </trkpt>
      <trkpt lat="38.303559" lon="-6.414355">
        <ele>493.3</ele>
        <time>2011-04-02T12:09:46Z</time>
      </trkpt>
      <trkpt lat="38.303544" lon="-6.414345">
        <ele>493.3</ele>
        <time>2011-04-02T12:09:47Z</time>
      </trkpt>
      <trkpt lat="38.303517" lon="-6.414341">
        <ele>493.3</ele>
        <time>2011-04-02T12:09:50Z</time>
      </trkpt>
      <trkpt lat="38.303399" lon="-6.414320">
        <ele>494.3</ele>
        <time>2011-04-02T12:09:59Z</time>
      </trkpt>
      <trkpt lat="38.303380" lon="-6.414331">
        <ele>494.3</ele>
        <time>2011-04-02T12:10:02Z</time>
      </trkpt>
      <trkpt lat="38.303216" lon="-6.414348">
        <ele>495.7</ele>
        <time>2011-04-02T12:10:17Z</time>
      </trkpt>
      <trkpt lat="38.303193" lon="-6.414357">
        <ele>496.2</ele>
        <time>2011-04-02T12:10:20Z</time>
      </trkpt>
      <trkpt lat="38.303136" lon="-6.414369">
        <ele>496.7</ele>
        <time>2011-04-02T12:10:29Z</time>
      </trkpt>
      <trkpt lat="38.303124" lon="-6.414369">
        <ele>497.1</ele>
        <time>2011-04-02T12:10:32Z</time>
      </trkpt>
      <trkpt lat="38.303102" lon="-6.414379">
        <ele>497.6</ele>
        <time>2011-04-02T12:10:33Z</time>
      </trkpt>
      <trkpt lat="38.303079" lon="-6.414383">
        <ele>497.6</ele>
        <time>2011-04-02T12:10:36Z</time>
      </trkpt>
      <trkpt lat="38.302980" lon="-6.414419">
        <ele>498.6</ele>
        <time>2011-04-02T12:10:44Z</time>
      </trkpt>
      <trkpt lat="38.302960" lon="-6.414430">
        <ele>499.0</ele>
        <time>2011-04-02T12:10:45Z</time>
      </trkpt>
      <trkpt lat="38.302850" lon="-6.414457">
        <ele>500.5</ele>
        <time>2011-04-02T12:10:56Z</time>
      </trkpt>
      <trkpt lat="38.302705" lon="-6.414516">
        <ele>501.0</ele>
        <time>2011-04-02T12:11:08Z</time>
      </trkpt>
      <trkpt lat="38.302422" lon="-6.414513">
        <ele>500.5</ele>
        <time>2011-04-02T12:11:33Z</time>
      </trkpt>
      <trkpt lat="38.302162" lon="-6.414474">
        <ele>500.5</ele>
        <time>2011-04-02T12:11:54Z</time>
      </trkpt>
      <trkpt lat="38.301937" lon="-6.414369">
        <ele>500.5</ele>
        <time>2011-04-02T12:12:14Z</time>
      </trkpt>
      <trkpt lat="38.301746" lon="-6.414272">
        <ele>501.5</ele>
        <time>2011-04-02T12:12:32Z</time>
      </trkpt>
      <trkpt lat="38.301640" lon="-6.414204">
        <ele>501.9</ele>
        <time>2011-04-02T12:12:41Z</time>
      </trkpt>
      <trkpt lat="38.301407" lon="-6.414039">
        <ele>500.0</ele>
        <time>2011-04-02T12:13:03Z</time>
      </trkpt>
      <trkpt lat="38.301163" lon="-6.413903">
        <ele>498.6</ele>
        <time>2011-04-02T12:13:23Z</time>
      </trkpt>
      <trkpt lat="38.301113" lon="-6.413877">
        <ele>498.1</ele>
        <time>2011-04-02T12:13:29Z</time>
      </trkpt>
      <trkpt lat="38.300854" lon="-6.413738">
        <ele>495.7</ele>
        <time>2011-04-02T12:13:50Z</time>
      </trkpt>
      <trkpt lat="38.300602" lon="-6.413578">
        <ele>494.8</ele>
        <time>2011-04-02T12:14:13Z</time>
      </trkpt>
      <trkpt lat="38.300385" lon="-6.413445">
        <ele>493.8</ele>
        <time>2011-04-02T12:14:32Z</time>
      </trkpt>
      <trkpt lat="38.300262" lon="-6.413327">
        <ele>493.8</ele>
        <time>2011-04-02T12:14:51Z</time>
      </trkpt>
      <trkpt lat="38.300251" lon="-6.413293">
        <ele>493.3</ele>
        <time>2011-04-02T12:14:55Z</time>
      </trkpt>
      <trkpt lat="38.300262" lon="-6.413217">
        <ele>493.8</ele>
        <time>2011-04-02T12:15:03Z</time>
      </trkpt>
      <trkpt lat="38.300217" lon="-6.413080">
        <ele>495.7</ele>
        <time>2011-04-02T12:15:17Z</time>
      </trkpt>
      <trkpt lat="38.300190" lon="-6.413014">
        <ele>495.7</ele>
        <time>2011-04-02T12:15:30Z</time>
      </trkpt>
      <trkpt lat="38.300167" lon="-6.412980">
        <ele>496.2</ele>
        <time>2011-04-02T12:15:37Z</time>
      </trkpt>
      <trkpt lat="38.300152" lon="-6.412931">
        <ele>496.2</ele>
        <time>2011-04-02T12:15:54Z</time>
      </trkpt>
      <trkpt lat="38.300137" lon="-6.412905">
        <ele>496.7</ele>
        <time>2011-04-02T12:16:12Z</time>
      </trkpt>
      <trkpt lat="38.300102" lon="-6.412809">
        <ele>495.7</ele>
        <time>2011-04-02T12:16:31Z</time>
      </trkpt>
      <trkpt lat="38.300083" lon="-6.412746">
        <ele>496.7</ele>
        <time>2011-04-02T12:16:43Z</time>
      </trkpt>
      <trkpt lat="38.300083" lon="-6.412748">
        <ele>496.2</ele>
        <time>2011-04-02T12:16:47Z</time>
      </trkpt>
      <trkpt lat="38.300068" lon="-6.412727">
        <ele>496.7</ele>
        <time>2011-04-02T12:16:48Z</time>
      </trkpt>
      <trkpt lat="38.300011" lon="-6.412554">
        <ele>496.7</ele>
        <time>2011-04-02T12:17:11Z</time>
      </trkpt>
      <trkpt lat="38.300026" lon="-6.412606">
        <ele>497.1</ele>
        <time>2011-04-02T12:18:14Z</time>
      </trkpt>
      <trkpt lat="38.299877" lon="-6.412236">
        <ele>497.1</ele>
        <time>2011-04-02T12:18:38Z</time>
      </trkpt>
      <trkpt lat="38.299755" lon="-6.411858">
        <ele>497.1</ele>
        <time>2011-04-02T12:19:01Z</time>
      </trkpt>
      <trkpt lat="38.299702" lon="-6.411656">
        <ele>496.7</ele>
        <time>2011-04-02T12:19:17Z</time>
      </trkpt>
      <trkpt lat="38.299641" lon="-6.411316">
        <ele>496.7</ele>
        <time>2011-04-02T12:19:37Z</time>
      </trkpt>
      <trkpt lat="38.299580" lon="-6.410974">
        <ele>496.7</ele>
        <time>2011-04-02T12:19:59Z</time>
      </trkpt>
      <trkpt lat="38.299539" lon="-6.410638">
        <ele>497.6</ele>
        <time>2011-04-02T12:20:19Z</time>
      </trkpt>
      <trkpt lat="38.299451" lon="-6.410422">
        <ele>498.1</ele>
        <time>2011-04-02T12:20:35Z</time>
      </trkpt>
      <trkpt lat="38.299336" lon="-6.410204">
        <ele>500.0</ele>
        <time>2011-04-02T12:20:53Z</time>
      </trkpt>
      <trkpt lat="38.299237" lon="-6.409952">
        <ele>502.9</ele>
        <time>2011-04-02T12:21:12Z</time>
      </trkpt>
      <trkpt lat="38.299237" lon="-6.409938">
        <ele>502.4</ele>
        <time>2011-04-02T12:21:13Z</time>
      </trkpt>
      <trkpt lat="38.299226" lon="-6.409916">
        <ele>502.9</ele>
        <time>2011-04-02T12:21:14Z</time>
      </trkpt>
      <trkpt lat="38.299130" lon="-6.409595">
        <ele>502.9</ele>
        <time>2011-04-02T12:21:36Z</time>
      </trkpt>
      <trkpt lat="38.299039" lon="-6.409271">
        <ele>502.9</ele>
        <time>2011-04-02T12:21:59Z</time>
      </trkpt>
      <trkpt lat="38.299008" lon="-6.409163">
        <ele>504.8</ele>
        <time>2011-04-02T12:22:06Z</time>
      </trkpt>
      <trkpt lat="38.299001" lon="-6.409105">
        <ele>503.4</ele>
        <time>2011-04-02T12:22:10Z</time>
      </trkpt>
      <trkpt lat="38.298921" lon="-6.408905">
        <ele>502.9</ele>
        <time>2011-04-02T12:22:23Z</time>
      </trkpt>
      <trkpt lat="38.298898" lon="-6.408851">
        <ele>502.9</ele>
        <time>2011-04-02T12:22:29Z</time>
      </trkpt>
      <trkpt lat="38.298741" lon="-6.408541">
        <ele>501.9</ele>
        <time>2011-04-02T12:22:52Z</time>
      </trkpt>
      <trkpt lat="38.298722" lon="-6.408500">
        <ele>501.0</ele>
        <time>2011-04-02T12:22:54Z</time>
      </trkpt>
      <trkpt lat="38.298703" lon="-6.408417">
        <ele>500.0</ele>
        <time>2011-04-02T12:23:23Z</time>
      </trkpt>
      <trkpt lat="38.298692" lon="-6.408397">
        <ele>501.0</ele>
        <time>2011-04-02T12:23:47Z</time>
      </trkpt>
      <trkpt lat="38.298654" lon="-6.408408">
        <ele>501.0</ele>
        <time>2011-04-02T12:24:13Z</time>
      </trkpt>
      <trkpt lat="38.298593" lon="-6.408432">
        <ele>499.5</ele>
        <time>2011-04-02T12:24:48Z</time>
      </trkpt>
      <trkpt lat="38.298532" lon="-6.408442">
        <ele>499.5</ele>
        <time>2011-04-02T12:24:53Z</time>
      </trkpt>
      <trkpt lat="38.298463" lon="-6.408456">
        <ele>498.6</ele>
        <time>2011-04-02T12:25:00Z</time>
      </trkpt>
      <trkpt lat="38.298196" lon="-6.408558">
        <ele>496.2</ele>
        <time>2011-04-02T12:25:21Z</time>
      </trkpt>
      <trkpt lat="38.298142" lon="-6.408597">
        <ele>495.7</ele>
        <time>2011-04-02T12:25:27Z</time>
      </trkpt>
      <trkpt lat="38.297990" lon="-6.408656">
        <ele>494.3</ele>
        <time>2011-04-02T12:25:39Z</time>
      </trkpt>
      <trkpt lat="38.297760" lon="-6.408882">
        <ele>490.9</ele>
        <time>2011-04-02T12:26:02Z</time>
      </trkpt>
      <trkpt lat="38.297520" lon="-6.409096">
        <ele>489.0</ele>
        <time>2011-04-02T12:26:25Z</time>
      </trkpt>
      <trkpt lat="38.297283" lon="-6.409295">
        <ele>488.0</ele>
        <time>2011-04-02T12:26:45Z</time>
      </trkpt>
      <trkpt lat="38.297222" lon="-6.409342">
        <ele>487.0</ele>
        <time>2011-04-02T12:26:52Z</time>
      </trkpt>
      <trkpt lat="38.297009" lon="-6.409489">
        <ele>487.0</ele>
        <time>2011-04-02T12:27:12Z</time>
      </trkpt>
      <trkpt lat="38.296917" lon="-6.409557">
        <ele>486.6</ele>
        <time>2011-04-02T12:27:22Z</time>
      </trkpt>
      <trkpt lat="38.296867" lon="-6.409575">
        <ele>486.1</ele>
        <time>2011-04-02T12:27:26Z</time>
      </trkpt>
      <trkpt lat="38.296619" lon="-6.409722">
        <ele>484.6</ele>
        <time>2011-04-02T12:27:49Z</time>
      </trkpt>
      <trkpt lat="38.296467" lon="-6.409801">
        <ele>483.2</ele>
        <time>2011-04-02T12:28:06Z</time>
      </trkpt>
      <trkpt lat="38.296223" lon="-6.409875">
        <ele>483.7</ele>
        <time>2011-04-02T12:28:29Z</time>
      </trkpt>
      <trkpt lat="38.296154" lon="-6.409924">
        <ele>482.7</ele>
        <time>2011-04-02T12:28:47Z</time>
      </trkpt>
      <trkpt lat="38.296108" lon="-6.409953">
        <ele>482.7</ele>
        <time>2011-04-02T12:29:45Z</time>
      </trkpt>
      <trkpt lat="38.296101" lon="-6.409956">
        <ele>483.2</ele>
        <time>2011-04-02T12:29:46Z</time>
      </trkpt>
      <trkpt lat="38.296082" lon="-6.409974">
        <ele>482.7</ele>
        <time>2011-04-02T12:29:49Z</time>
      </trkpt>
      <trkpt lat="38.295891" lon="-6.410134">
        <ele>481.8</ele>
        <time>2011-04-02T12:30:09Z</time>
      </trkpt>
      <trkpt lat="38.295822" lon="-6.410203">
        <ele>480.8</ele>
        <time>2011-04-02T12:30:17Z</time>
      </trkpt>
      <trkpt lat="38.295788" lon="-6.410215">
        <ele>479.8</ele>
        <time>2011-04-02T12:30:39Z</time>
      </trkpt>
      <trkpt lat="38.295788" lon="-6.410215">
        <ele>479.8</ele>
        <time>2011-04-02T12:31:42Z</time>
      </trkpt>
      <trkpt lat="38.295742" lon="-6.410286">
        <ele>481.3</ele>
        <time>2011-04-02T12:32:24Z</time>
      </trkpt>
      <trkpt lat="38.295708" lon="-6.410320">
        <ele>480.8</ele>
        <time>2011-04-02T12:32:29Z</time>
      </trkpt>
      <trkpt lat="38.295555" lon="-6.410445">
        <ele>479.8</ele>
        <time>2011-04-02T12:32:46Z</time>
      </trkpt>
      <trkpt lat="38.295502" lon="-6.410492">
        <ele>479.8</ele>
        <time>2011-04-02T12:32:51Z</time>
      </trkpt>
      <trkpt lat="38.295288" lon="-6.410635">
        <ele>479.4</ele>
        <time>2011-04-02T12:33:10Z</time>
      </trkpt>
      <trkpt lat="38.295177" lon="-6.410717">
        <ele>478.4</ele>
        <time>2011-04-02T12:33:22Z</time>
      </trkpt>
      <trkpt lat="38.295101" lon="-6.410783">
        <ele>478.4</ele>
        <time>2011-04-02T12:33:41Z</time>
      </trkpt>
      <trkpt lat="38.295017" lon="-6.410832">
        <ele>478.4</ele>
        <time>2011-04-02T12:34:01Z</time>
      </trkpt>
      <trkpt lat="38.294994" lon="-6.410845">
        <ele>478.4</ele>
        <time>2011-04-02T12:34:04Z</time>
      </trkpt>
      <trkpt lat="38.294952" lon="-6.410970">
        <ele>478.4</ele>
        <time>2011-04-02T12:34:21Z</time>
      </trkpt>
      <trkpt lat="38.294945" lon="-6.411014">
        <ele>477.4</ele>
        <time>2011-04-02T12:34:26Z</time>
      </trkpt>
      <trkpt lat="38.294914" lon="-6.411038">
        <ele>477.0</ele>
        <time>2011-04-02T12:34:28Z</time>
      </trkpt>
      <trkpt lat="38.294827" lon="-6.411176">
        <ele>476.5</ele>
        <time>2011-04-02T12:34:48Z</time>
      </trkpt>
      <trkpt lat="38.294830" lon="-6.411176">
        <ele>476.5</ele>
        <time>2011-04-02T12:35:15Z</time>
      </trkpt>
      <trkpt lat="38.294785" lon="-6.411223">
        <ele>476.5</ele>
        <time>2011-04-02T12:35:53Z</time>
      </trkpt>
      <trkpt lat="38.294769" lon="-6.411230">
        <ele>477.4</ele>
        <time>2011-04-02T12:35:56Z</time>
      </trkpt>
      <trkpt lat="38.294754" lon="-6.411251">
        <ele>477.0</ele>
        <time>2011-04-02T12:35:57Z</time>
      </trkpt>
      <trkpt lat="38.294689" lon="-6.411333">
        <ele>477.9</ele>
        <time>2011-04-02T12:36:07Z</time>
      </trkpt>
      <trkpt lat="38.294666" lon="-6.411357">
        <ele>478.9</ele>
        <time>2011-04-02T12:36:09Z</time>
      </trkpt>
      <trkpt lat="38.294647" lon="-6.411388">
        <ele>478.4</ele>
        <time>2011-04-02T12:36:12Z</time>
      </trkpt>
      <trkpt lat="38.294594" lon="-6.411438">
        <ele>479.4</ele>
        <time>2011-04-02T12:36:19Z</time>
      </trkpt>
      <trkpt lat="38.294537" lon="-6.411519">
        <ele>478.9</ele>
        <time>2011-04-02T12:36:26Z</time>
      </trkpt>
      <trkpt lat="38.294445" lon="-6.411629">
        <ele>478.9</ele>
        <time>2011-04-02T12:36:38Z</time>
      </trkpt>
      <trkpt lat="38.294415" lon="-6.411681">
        <ele>478.9</ele>
        <time>2011-04-02T12:36:43Z</time>
      </trkpt>
      <trkpt lat="38.294353" lon="-6.411756">
        <ele>478.4</ele>
        <time>2011-04-02T12:36:50Z</time>
      </trkpt>
      <trkpt lat="38.294281" lon="-6.411850">
        <ele>478.4</ele>
        <time>2011-04-02T12:36:58Z</time>
      </trkpt>
      <trkpt lat="38.294075" lon="-6.412118">
        <ele>477.9</ele>
        <time>2011-04-02T12:37:21Z</time>
      </trkpt>
      <trkpt lat="38.293980" lon="-6.412240">
        <ele>478.4</ele>
        <time>2011-04-02T12:37:32Z</time>
      </trkpt>
      <trkpt lat="38.293964" lon="-6.412261">
        <ele>478.4</ele>
        <time>2011-04-02T12:37:33Z</time>
      </trkpt>
      <trkpt lat="38.293938" lon="-6.412302">
        <ele>479.4</ele>
        <time>2011-04-02T12:37:59Z</time>
      </trkpt>
      <trkpt lat="38.293930" lon="-6.412304">
        <ele>478.9</ele>
        <time>2011-04-02T12:38:37Z</time>
      </trkpt>
      <trkpt lat="38.293823" lon="-6.412274">
        <ele>478.4</ele>
        <time>2011-04-02T12:38:50Z</time>
      </trkpt>
      <trkpt lat="38.293797" lon="-6.412266">
        <ele>477.9</ele>
        <time>2011-04-02T12:38:54Z</time>
      </trkpt>
      <trkpt lat="38.293732" lon="-6.412323">
        <ele>477.0</ele>
        <time>2011-04-02T12:39:13Z</time>
      </trkpt>
      <trkpt lat="38.293579" lon="-6.412414">
        <ele>474.5</ele>
        <time>2011-04-02T12:39:36Z</time>
      </trkpt>
      <trkpt lat="38.293404" lon="-6.412589">
        <ele>471.6</ele>
        <time>2011-04-02T12:39:54Z</time>
      </trkpt>
      <trkpt lat="38.293217" lon="-6.412810">
        <ele>468.8</ele>
        <time>2011-04-02T12:40:15Z</time>
      </trkpt>
      <trkpt lat="38.292984" lon="-6.413006">
        <ele>466.4</ele>
        <time>2011-04-02T12:40:37Z</time>
      </trkpt>
      <trkpt lat="38.292877" lon="-6.413118">
        <ele>464.0</ele>
        <time>2011-04-02T12:40:49Z</time>
      </trkpt>
      <trkpt lat="38.292839" lon="-6.413156">
        <ele>464.0</ele>
        <time>2011-04-02T12:40:53Z</time>
      </trkpt>
      <trkpt lat="38.292770" lon="-6.413206">
        <ele>463.0</ele>
        <time>2011-04-02T12:41:09Z</time>
      </trkpt>
      <trkpt lat="38.292770" lon="-6.413214">
        <ele>463.5</ele>
        <time>2011-04-02T12:41:31Z</time>
      </trkpt>
      <trkpt lat="38.292755" lon="-6.413235">
        <ele>463.0</ele>
        <time>2011-04-02T12:41:51Z</time>
      </trkpt>
      <trkpt lat="38.292755" lon="-6.413235">
        <ele>463.5</ele>
        <time>2011-04-02T12:41:58Z</time>
      </trkpt>
      <trkpt lat="38.292732" lon="-6.413300">
        <ele>462.0</ele>
        <time>2011-04-02T12:42:05Z</time>
      </trkpt>
      <trkpt lat="38.292614" lon="-6.413570">
        <ele>461.6</ele>
        <time>2011-04-02T12:42:26Z</time>
      </trkpt>
      <trkpt lat="38.292591" lon="-6.413633">
        <ele>460.6</ele>
        <time>2011-04-02T12:42:41Z</time>
      </trkpt>
      <trkpt lat="38.292583" lon="-6.413651">
        <ele>460.6</ele>
        <time>2011-04-02T12:42:44Z</time>
      </trkpt>
      <trkpt lat="38.292515" lon="-6.413700">
        <ele>459.6</ele>
        <time>2011-04-02T12:43:00Z</time>
      </trkpt>
      <trkpt lat="38.292469" lon="-6.413683">
        <ele>459.6</ele>
        <time>2011-04-02T12:43:05Z</time>
      </trkpt>
      <trkpt lat="38.292374" lon="-6.413763">
        <ele>457.7</ele>
        <time>2011-04-02T12:43:24Z</time>
      </trkpt>
      <trkpt lat="38.292332" lon="-6.413782">
        <ele>456.8</ele>
        <time>2011-04-02T12:43:50Z</time>
      </trkpt>
      <trkpt lat="38.292301" lon="-6.413796">
        <ele>456.8</ele>
        <time>2011-04-02T12:43:53Z</time>
      </trkpt>
      <trkpt lat="38.292267" lon="-6.413862">
        <ele>455.3</ele>
        <time>2011-04-02T12:43:59Z</time>
      </trkpt>
      <trkpt lat="38.292164" lon="-6.413901">
        <ele>453.4</ele>
        <time>2011-04-02T12:44:09Z</time>
      </trkpt>
      <trkpt lat="38.292072" lon="-6.413914">
        <ele>453.4</ele>
        <time>2011-04-02T12:44:21Z</time>
      </trkpt>
      <trkpt lat="38.292057" lon="-6.414010">
        <ele>453.4</ele>
        <time>2011-04-02T12:44:37Z</time>
      </trkpt>
      <trkpt lat="38.292046" lon="-6.414028">
        <ele>452.9</ele>
        <time>2011-04-02T12:44:38Z</time>
      </trkpt>
      <trkpt lat="38.291969" lon="-6.414167">
        <ele>453.4</ele>
        <time>2011-04-02T12:44:56Z</time>
      </trkpt>
      <trkpt lat="38.291962" lon="-6.414191">
        <ele>452.9</ele>
        <time>2011-04-02T12:45:18Z</time>
      </trkpt>
      <trkpt lat="38.291962" lon="-6.414196">
        <ele>452.9</ele>
        <time>2011-04-02T12:45:19Z</time>
      </trkpt>
      <trkpt lat="38.291916" lon="-6.414283">
        <ele>452.9</ele>
        <time>2011-04-02T12:45:28Z</time>
      </trkpt>
      <trkpt lat="38.291752" lon="-6.414459">
        <ele>453.4</ele>
        <time>2011-04-02T12:45:46Z</time>
      </trkpt>
      <trkpt lat="38.291553" lon="-6.414566">
        <ele>453.4</ele>
        <time>2011-04-02T12:46:03Z</time>
      </trkpt>
      <trkpt lat="38.291534" lon="-6.414584">
        <ele>453.9</ele>
        <time>2011-04-02T12:46:06Z</time>
      </trkpt>
      <trkpt lat="38.291515" lon="-6.414593">
        <ele>453.9</ele>
        <time>2011-04-02T12:46:08Z</time>
      </trkpt>
      <trkpt lat="38.291477" lon="-6.414618">
        <ele>453.9</ele>
        <time>2011-04-02T12:46:35Z</time>
      </trkpt>
      <trkpt lat="38.291424" lon="-6.414668">
        <ele>452.9</ele>
        <time>2011-04-02T12:46:44Z</time>
      </trkpt>
      <trkpt lat="38.291199" lon="-6.414872">
        <ele>450.5</ele>
        <time>2011-04-02T12:47:07Z</time>
      </trkpt>
      <trkpt lat="38.291161" lon="-6.414877">
        <ele>449.5</ele>
        <time>2011-04-02T12:47:11Z</time>
      </trkpt>
      <trkpt lat="38.291103" lon="-6.414916">
        <ele>448.6</ele>
        <time>2011-04-02T12:47:18Z</time>
      </trkpt>
      <trkpt lat="38.291046" lon="-6.414942">
        <ele>448.1</ele>
        <time>2011-04-02T12:47:23Z</time>
      </trkpt>
      <trkpt lat="38.290974" lon="-6.415003">
        <ele>447.1</ele>
        <time>2011-04-02T12:47:43Z</time>
      </trkpt>
      <trkpt lat="38.290970" lon="-6.415037">
        <ele>447.1</ele>
        <time>2011-04-02T12:50:05Z</time>
      </trkpt>
      <trkpt lat="38.290966" lon="-6.415140">
        <ele>447.6</ele>
        <time>2011-04-02T12:50:13Z</time>
      </trkpt>
      <trkpt lat="38.290909" lon="-6.415288">
        <ele>447.6</ele>
        <time>2011-04-02T12:50:25Z</time>
      </trkpt>
      <trkpt lat="38.290863" lon="-6.415369">
        <ele>446.7</ele>
        <time>2011-04-02T12:50:33Z</time>
      </trkpt>
      <trkpt lat="38.290813" lon="-6.415446">
        <ele>447.1</ele>
        <time>2011-04-02T12:50:42Z</time>
      </trkpt>
      <trkpt lat="38.290745" lon="-6.415500">
        <ele>446.2</ele>
        <time>2011-04-02T12:50:50Z</time>
      </trkpt>
      <trkpt lat="38.290642" lon="-6.415560">
        <ele>448.1</ele>
        <time>2011-04-02T12:51:06Z</time>
      </trkpt>
      <trkpt lat="38.290604" lon="-6.415586">
        <ele>448.6</ele>
        <time>2011-04-02T12:51:26Z</time>
      </trkpt>
      <trkpt lat="38.290565" lon="-6.415602">
        <ele>449.1</ele>
        <time>2011-04-02T12:51:30Z</time>
      </trkpt>
      <trkpt lat="38.290462" lon="-6.415671">
        <ele>450.0</ele>
        <time>2011-04-02T12:51:48Z</time>
      </trkpt>
      <trkpt lat="38.290424" lon="-6.415744">
        <ele>449.1</ele>
        <time>2011-04-02T12:52:05Z</time>
      </trkpt>
      <trkpt lat="38.290379" lon="-6.415836">
        <ele>448.6</ele>
        <time>2011-04-02T12:52:27Z</time>
      </trkpt>
      <trkpt lat="38.290367" lon="-6.415908">
        <ele>447.6</ele>
        <time>2011-04-02T12:52:32Z</time>
      </trkpt>
      <trkpt lat="38.290352" lon="-6.415924">
        <ele>447.1</ele>
        <time>2011-04-02T12:52:35Z</time>
      </trkpt>
      <trkpt lat="38.290348" lon="-6.415946">
        <ele>446.7</ele>
        <time>2011-04-02T12:52:36Z</time>
      </trkpt>
      <trkpt lat="38.290352" lon="-6.415973">
        <ele>446.7</ele>
        <time>2011-04-02T12:52:39Z</time>
      </trkpt>
      <trkpt lat="38.290318" lon="-6.416086">
        <ele>444.8</ele>
        <time>2011-04-02T12:52:48Z</time>
      </trkpt>
      <trkpt lat="38.290298" lon="-6.416095">
        <ele>444.8</ele>
        <time>2011-04-02T12:52:51Z</time>
      </trkpt>
      <trkpt lat="38.290257" lon="-6.416157">
        <ele>443.3</ele>
        <time>2011-04-02T12:52:57Z</time>
      </trkpt>
      <trkpt lat="38.290165" lon="-6.416213">
        <ele>443.3</ele>
        <time>2011-04-02T12:53:05Z</time>
      </trkpt>
      <trkpt lat="38.289948" lon="-6.416302">
        <ele>443.3</ele>
        <time>2011-04-02T12:53:22Z</time>
      </trkpt>
      <trkpt lat="38.289917" lon="-6.416312">
        <ele>443.3</ele>
        <time>2011-04-02T12:53:44Z</time>
      </trkpt>
      <trkpt lat="38.289791" lon="-6.416392">
        <ele>443.8</ele>
        <time>2011-04-02T12:54:05Z</time>
      </trkpt>
      <trkpt lat="38.289780" lon="-6.416394">
        <ele>443.8</ele>
        <time>2011-04-02T12:54:08Z</time>
      </trkpt>
      <trkpt lat="38.289600" lon="-6.416507">
        <ele>444.3</ele>
        <time>2011-04-02T12:54:27Z</time>
      </trkpt>
      <trkpt lat="38.289555" lon="-6.416514">
        <ele>444.3</ele>
        <time>2011-04-02T12:54:31Z</time>
      </trkpt>
      <trkpt lat="38.289539" lon="-6.416524">
        <ele>444.8</ele>
        <time>2011-04-02T12:54:34Z</time>
      </trkpt>
      <trkpt lat="38.289501" lon="-6.416550">
        <ele>444.8</ele>
        <time>2011-04-02T12:54:38Z</time>
      </trkpt>
      <trkpt lat="38.289326" lon="-6.416676">
        <ele>445.2</ele>
        <time>2011-04-02T12:54:55Z</time>
      </trkpt>
      <trkpt lat="38.289276" lon="-6.416715">
        <ele>445.2</ele>
        <time>2011-04-02T12:55:02Z</time>
      </trkpt>
      <trkpt lat="38.289261" lon="-6.416731">
        <ele>445.2</ele>
        <time>2011-04-02T12:55:03Z</time>
      </trkpt>
      <trkpt lat="38.289219" lon="-6.416765">
        <ele>445.2</ele>
        <time>2011-04-02T12:55:09Z</time>
      </trkpt>
      <trkpt lat="38.289089" lon="-6.416876">
        <ele>445.2</ele>
        <time>2011-04-02T12:55:21Z</time>
      </trkpt>
      <trkpt lat="38.289028" lon="-6.416964">
        <ele>445.7</ele>
        <time>2011-04-02T12:55:29Z</time>
      </trkpt>
      <trkpt lat="38.288967" lon="-6.417016">
        <ele>445.7</ele>
        <time>2011-04-02T12:55:36Z</time>
      </trkpt>
      <trkpt lat="38.288940" lon="-6.417060">
        <ele>445.2</ele>
        <time>2011-04-02T12:55:40Z</time>
      </trkpt>
      <trkpt lat="38.288891" lon="-6.417125">
        <ele>445.7</ele>
        <time>2011-04-02T12:55:45Z</time>
      </trkpt>
      <trkpt lat="38.288830" lon="-6.417179">
        <ele>445.2</ele>
        <time>2011-04-02T12:56:04Z</time>
      </trkpt>
      <trkpt lat="38.288799" lon="-6.417154">
        <ele>444.3</ele>
        <time>2011-04-02T12:56:27Z</time>
      </trkpt>
      <trkpt lat="38.288795" lon="-6.417156">
        <ele>444.8</ele>
        <time>2011-04-02T12:56:31Z</time>
      </trkpt>
      <trkpt lat="38.288757" lon="-6.417143">
        <ele>444.3</ele>
        <time>2011-04-02T12:56:35Z</time>
      </trkpt>
      <trkpt lat="38.288712" lon="-6.417147">
        <ele>443.3</ele>
        <time>2011-04-02T12:56:39Z</time>
      </trkpt>
      <trkpt lat="38.288643" lon="-6.417157">
        <ele>441.9</ele>
        <time>2011-04-02T12:56:46Z</time>
      </trkpt>
      <trkpt lat="38.288593" lon="-6.417219">
        <ele>442.3</ele>
        <time>2011-04-02T12:56:51Z</time>
      </trkpt>
      <trkpt lat="38.288578" lon="-6.417257">
        <ele>441.9</ele>
        <time>2011-04-02T12:56:54Z</time>
      </trkpt>
      <trkpt lat="38.288559" lon="-6.417266">
        <ele>441.9</ele>
        <time>2011-04-02T12:56:57Z</time>
      </trkpt>
      <trkpt lat="38.288544" lon="-6.417288">
        <ele>441.9</ele>
        <time>2011-04-02T12:56:58Z</time>
      </trkpt>
      <trkpt lat="38.288509" lon="-6.417328">
        <ele>441.9</ele>
        <time>2011-04-02T12:57:02Z</time>
      </trkpt>
      <trkpt lat="38.288441" lon="-6.417399">
        <ele>441.4</ele>
        <time>2011-04-02T12:57:12Z</time>
      </trkpt>
      <trkpt lat="38.288357" lon="-6.417469">
        <ele>441.4</ele>
        <time>2011-04-02T12:57:21Z</time>
      </trkpt>
      <trkpt lat="38.288197" lon="-6.417659">
        <ele>440.9</ele>
        <time>2011-04-02T12:57:40Z</time>
      </trkpt>
      <trkpt lat="38.288055" lon="-6.417829">
        <ele>439.9</ele>
        <time>2011-04-02T12:57:55Z</time>
      </trkpt>
      <trkpt lat="38.287922" lon="-6.417967">
        <ele>438.5</ele>
        <time>2011-04-02T12:58:11Z</time>
      </trkpt>
      <trkpt lat="38.287914" lon="-6.417994">
        <ele>438.0</ele>
        <time>2011-04-02T12:58:12Z</time>
      </trkpt>
      <trkpt lat="38.287861" lon="-6.418060">
        <ele>437.5</ele>
        <time>2011-04-02T12:58:19Z</time>
      </trkpt>
      <trkpt lat="38.287819" lon="-6.418087">
        <ele>436.6</ele>
        <time>2011-04-02T12:58:25Z</time>
      </trkpt>
      <trkpt lat="38.287766" lon="-6.418163">
        <ele>436.1</ele>
        <time>2011-04-02T12:58:31Z</time>
      </trkpt>
      <trkpt lat="38.287750" lon="-6.418195">
        <ele>436.6</ele>
        <time>2011-04-02T12:58:34Z</time>
      </trkpt>
      <trkpt lat="38.287613" lon="-6.418297">
        <ele>434.6</ele>
        <time>2011-04-02T12:58:52Z</time>
      </trkpt>
      <trkpt lat="38.287605" lon="-6.418307">
        <ele>435.1</ele>
        <time>2011-04-02T12:59:20Z</time>
      </trkpt>
      <trkpt lat="38.287594" lon="-6.418355">
        <ele>434.2</ele>
        <time>2011-04-02T12:59:40Z</time>
      </trkpt>
      <trkpt lat="38.287594" lon="-6.418355">
        <ele>432.7</ele>
        <time>2011-04-02T13:00:14Z</time>
      </trkpt>
      <trkpt lat="38.287594" lon="-6.418355">
        <ele>433.7</ele>
        <time>2011-04-02T13:00:22Z</time>
      </trkpt>
      <trkpt lat="38.287594" lon="-6.418350">
        <ele>433.7</ele>
        <time>2011-04-02T13:00:45Z</time>
      </trkpt>
      <trkpt lat="38.287606" lon="-6.418382">
        <ele>433.2</ele>
        <time>2011-04-02T13:01:24Z</time>
      </trkpt>
      <trkpt lat="38.287607" lon="-6.418405">
        <ele>434.6</ele>
        <time>2011-04-02T13:01:51Z</time>
      </trkpt>
      <trkpt lat="38.287573" lon="-6.418497">
        <ele>435.1</ele>
        <time>2011-04-02T13:02:10Z</time>
      </trkpt>
      <trkpt lat="38.287539" lon="-6.418613">
        <ele>435.1</ele>
        <time>2011-04-02T13:02:38Z</time>
      </trkpt>
      <trkpt lat="38.287541" lon="-6.418681">
        <ele>434.6</ele>
        <time>2011-04-02T13:02:56Z</time>
      </trkpt>
      <trkpt lat="38.287524" lon="-6.418750">
        <ele>434.2</ele>
        <time>2011-04-02T13:03:16Z</time>
      </trkpt>
      <trkpt lat="38.287525" lon="-6.418796">
        <ele>433.2</ele>
        <time>2011-04-02T13:05:54Z</time>
      </trkpt>
      <trkpt lat="38.287491" lon="-6.418866">
        <ele>432.7</ele>
        <time>2011-04-02T13:05:58Z</time>
      </trkpt>
      <trkpt lat="38.287473" lon="-6.418889">
        <ele>432.7</ele>
        <time>2011-04-02T13:06:00Z</time>
      </trkpt>
      <trkpt lat="38.287457" lon="-6.418959">
        <ele>432.2</ele>
        <time>2011-04-02T13:06:05Z</time>
      </trkpt>
      <trkpt lat="38.287458" lon="-6.419004">
        <ele>432.2</ele>
        <time>2011-04-02T13:06:09Z</time>
      </trkpt>
      <trkpt lat="38.287404" lon="-6.419029">
        <ele>432.7</ele>
        <time>2011-04-02T13:06:12Z</time>
      </trkpt>
      <trkpt lat="38.287376" lon="-6.419115">
        <ele>435.1</ele>
        <time>2011-04-02T13:06:40Z</time>
      </trkpt>
      <trkpt lat="38.287395" lon="-6.419092">
        <ele>435.6</ele>
        <time>2011-04-02T13:07:07Z</time>
      </trkpt>
      <trkpt lat="38.287395" lon="-6.419093">
        <ele>435.1</ele>
        <time>2011-04-02T13:07:26Z</time>
      </trkpt>
      <trkpt lat="38.287354" lon="-6.419211">
        <ele>435.1</ele>
        <time>2011-04-02T13:07:34Z</time>
      </trkpt>
      <trkpt lat="38.287342" lon="-6.419235">
        <ele>435.1</ele>
        <time>2011-04-02T13:07:35Z</time>
      </trkpt>
      <trkpt lat="38.287342" lon="-6.419259">
        <ele>435.1</ele>
        <time>2011-04-02T13:07:38Z</time>
      </trkpt>
      <trkpt lat="38.287289" lon="-6.419357">
        <ele>435.6</ele>
        <time>2011-04-02T13:07:46Z</time>
      </trkpt>
      <trkpt lat="38.287270" lon="-6.419414">
        <ele>435.1</ele>
        <time>2011-04-02T13:08:00Z</time>
      </trkpt>
      <trkpt lat="38.287224" lon="-6.419463">
        <ele>433.2</ele>
        <time>2011-04-02T13:08:05Z</time>
      </trkpt>
      <trkpt lat="38.287189" lon="-6.419480">
        <ele>432.7</ele>
        <time>2011-04-02T13:08:09Z</time>
      </trkpt>
      <trkpt lat="38.287132" lon="-6.419579">
        <ele>431.3</ele>
        <time>2011-04-02T13:08:16Z</time>
      </trkpt>
      <trkpt lat="38.287045" lon="-6.419739">
        <ele>431.3</ele>
        <time>2011-04-02T13:08:28Z</time>
      </trkpt>
      <trkpt lat="38.287025" lon="-6.419765">
        <ele>431.3</ele>
        <time>2011-04-02T13:08:48Z</time>
      </trkpt>
      <trkpt lat="38.287018" lon="-6.419773">
        <ele>431.3</ele>
        <time>2011-04-02T13:09:14Z</time>
      </trkpt>
      <trkpt lat="38.287018" lon="-6.419774">
        <ele>430.8</ele>
        <time>2011-04-02T13:09:53Z</time>
      </trkpt>
      <trkpt lat="38.287018" lon="-6.419789">
        <ele>432.2</ele>
        <time>2011-04-02T13:10:23Z</time>
      </trkpt>
      <trkpt lat="38.286983" lon="-6.419840">
        <ele>430.8</ele>
        <time>2011-04-02T13:10:46Z</time>
      </trkpt>
      <trkpt lat="38.286999" lon="-6.419928">
        <ele>429.9</ele>
        <time>2011-04-02T13:11:03Z</time>
      </trkpt>
      <trkpt lat="38.287018" lon="-6.419958">
        <ele>429.9</ele>
        <time>2011-04-02T13:11:09Z</time>
      </trkpt>
      <trkpt lat="38.287128" lon="-6.420270">
        <ele>429.4</ele>
        <time>2011-04-02T13:11:30Z</time>
      </trkpt>
      <trkpt lat="38.287239" lon="-6.420397">
        <ele>429.9</ele>
        <time>2011-04-02T13:11:45Z</time>
      </trkpt>
      <trkpt lat="38.287254" lon="-6.420544">
        <ele>429.4</ele>
        <time>2011-04-02T13:11:59Z</time>
      </trkpt>
      <trkpt lat="38.287289" lon="-6.420587">
        <ele>429.9</ele>
        <time>2011-04-02T13:12:03Z</time>
      </trkpt>
      <trkpt lat="38.287354" lon="-6.420708">
        <ele>429.4</ele>
        <time>2011-04-02T13:12:14Z</time>
      </trkpt>
      <trkpt lat="38.287346" lon="-6.420751">
        <ele>427.5</ele>
        <time>2011-04-02T13:12:32Z</time>
      </trkpt>
      <trkpt lat="38.287354" lon="-6.420748">
        <ele>428.9</ele>
        <time>2011-04-02T13:12:45Z</time>
      </trkpt>
      <trkpt lat="38.287365" lon="-6.420772">
        <ele>428.9</ele>
        <time>2011-04-02T13:12:47Z</time>
      </trkpt>
      <trkpt lat="38.287441" lon="-6.420790">
        <ele>429.9</ele>
        <time>2011-04-02T13:12:55Z</time>
      </trkpt>
      <trkpt lat="38.287479" lon="-6.420769">
        <ele>430.3</ele>
        <time>2011-04-02T13:13:01Z</time>
      </trkpt>
      <trkpt lat="38.287594" lon="-6.420813">
        <ele>430.8</ele>
        <time>2011-04-02T13:13:14Z</time>
      </trkpt>
      <trkpt lat="38.287670" lon="-6.420874">
        <ele>431.3</ele>
        <time>2011-04-02T13:13:22Z</time>
      </trkpt>
      <trkpt lat="38.287689" lon="-6.420886">
        <ele>431.3</ele>
        <time>2011-04-02T13:13:25Z</time>
      </trkpt>
      <trkpt lat="38.287823" lon="-6.421077">
        <ele>430.3</ele>
        <time>2011-04-02T13:13:41Z</time>
      </trkpt>
      <trkpt lat="38.287922" lon="-6.421140">
        <ele>430.8</ele>
        <time>2011-04-02T13:13:52Z</time>
      </trkpt>
      <trkpt lat="38.288044" lon="-6.421268">
        <ele>431.3</ele>
        <time>2011-04-02T13:14:06Z</time>
      </trkpt>
      <trkpt lat="38.288097" lon="-6.421303">
        <ele>430.8</ele>
        <time>2011-04-02T13:14:11Z</time>
      </trkpt>
      <trkpt lat="38.288311" lon="-6.421479">
        <ele>430.8</ele>
        <time>2011-04-02T13:14:33Z</time>
      </trkpt>
      <trkpt lat="38.288387" lon="-6.421549">
        <ele>430.8</ele>
        <time>2011-04-02T13:14:39Z</time>
      </trkpt>
      <trkpt lat="38.288555" lon="-6.421681">
        <ele>430.3</ele>
        <time>2011-04-02T13:14:58Z</time>
      </trkpt>
      <trkpt lat="38.288662" lon="-6.421776">
        <ele>429.9</ele>
        <time>2011-04-02T13:15:17Z</time>
      </trkpt>
      <trkpt lat="38.288662" lon="-6.421776">
        <ele>430.3</ele>
        <time>2011-04-02T13:15:32Z</time>
      </trkpt>
      <trkpt lat="38.288673" lon="-6.421788">
        <ele>429.9</ele>
        <time>2011-04-02T13:15:35Z</time>
      </trkpt>
      <trkpt lat="38.288803" lon="-6.421920">
        <ele>430.8</ele>
        <time>2011-04-02T13:15:48Z</time>
      </trkpt>
      <trkpt lat="38.288918" lon="-6.422104">
        <ele>429.9</ele>
        <time>2011-04-02T13:16:03Z</time>
      </trkpt>
      <trkpt lat="38.288921" lon="-6.422131">
        <ele>429.9</ele>
        <time>2011-04-02T13:16:04Z</time>
      </trkpt>
      <trkpt lat="38.288925" lon="-6.422211">
        <ele>429.9</ele>
        <time>2011-04-02T13:16:11Z</time>
      </trkpt>
      <trkpt lat="38.288979" lon="-6.422245">
        <ele>429.9</ele>
        <time>2011-04-02T13:16:17Z</time>
      </trkpt>
      <trkpt lat="38.289120" lon="-6.422390">
        <ele>429.9</ele>
        <time>2011-04-02T13:16:34Z</time>
      </trkpt>
      <trkpt lat="38.289215" lon="-6.422385">
        <ele>430.3</ele>
        <time>2011-04-02T13:16:46Z</time>
      </trkpt>
      <trkpt lat="38.289448" lon="-6.422618">
        <ele>429.9</ele>
        <time>2011-04-02T13:17:09Z</time>
      </trkpt>
      <trkpt lat="38.289688" lon="-6.422841">
        <ele>428.9</ele>
        <time>2011-04-02T13:17:32Z</time>
      </trkpt>
      <trkpt lat="38.289734" lon="-6.422883">
        <ele>429.4</ele>
        <time>2011-04-02T13:17:36Z</time>
      </trkpt>
      <trkpt lat="38.289913" lon="-6.423129">
        <ele>429.4</ele>
        <time>2011-04-02T13:17:58Z</time>
      </trkpt>
      <trkpt lat="38.289936" lon="-6.423158">
        <ele>429.4</ele>
        <time>2011-04-02T13:18:00Z</time>
      </trkpt>
      <trkpt lat="38.290009" lon="-6.423268">
        <ele>429.4</ele>
        <time>2011-04-02T13:18:18Z</time>
      </trkpt>
      <trkpt lat="38.290173" lon="-6.423428">
        <ele>429.9</ele>
        <time>2011-04-02T13:18:37Z</time>
      </trkpt>
      <trkpt lat="38.290192" lon="-6.423481">
        <ele>429.9</ele>
        <time>2011-04-02T13:18:53Z</time>
      </trkpt>
      <trkpt lat="38.290234" lon="-6.423516">
        <ele>429.9</ele>
        <time>2011-04-02T13:19:16Z</time>
      </trkpt>
      <trkpt lat="38.290390" lon="-6.423738">
        <ele>429.9</ele>
        <time>2011-04-02T13:19:35Z</time>
      </trkpt>
      <trkpt lat="38.290436" lon="-6.423868">
        <ele>429.9</ele>
        <time>2011-04-02T13:19:44Z</time>
      </trkpt>
      <trkpt lat="38.290531" lon="-6.423982">
        <ele>429.9</ele>
        <time>2011-04-02T13:20:01Z</time>
      </trkpt>
      <trkpt lat="38.290600" lon="-6.424075">
        <ele>429.9</ele>
        <time>2011-04-02T13:20:14Z</time>
      </trkpt>
      <trkpt lat="38.290657" lon="-6.424139">
        <ele>429.9</ele>
        <time>2011-04-02T13:20:22Z</time>
      </trkpt>
      <trkpt lat="38.290695" lon="-6.424229">
        <ele>429.9</ele>
        <time>2011-04-02T13:20:42Z</time>
      </trkpt>
      <trkpt lat="38.290703" lon="-6.424233">
        <ele>430.3</ele>
        <time>2011-04-02T13:21:04Z</time>
      </trkpt>
      <trkpt lat="38.290752" lon="-6.424349">
        <ele>430.3</ele>
        <time>2011-04-02T13:21:24Z</time>
      </trkpt>
      <trkpt lat="38.290810" lon="-6.424482">
        <ele>430.3</ele>
        <time>2011-04-02T13:21:34Z</time>
      </trkpt>
      <trkpt lat="38.290882" lon="-6.424649">
        <ele>430.3</ele>
        <time>2011-04-02T13:21:46Z</time>
      </trkpt>
      <trkpt lat="38.290955" lon="-6.424911">
        <ele>429.4</ele>
        <time>2011-04-02T13:22:06Z</time>
      </trkpt>
      <trkpt lat="38.291012" lon="-6.425079">
        <ele>428.9</ele>
        <time>2011-04-02T13:22:20Z</time>
      </trkpt>
      <trkpt lat="38.291065" lon="-6.425186">
        <ele>429.9</ele>
        <time>2011-04-02T13:22:29Z</time>
      </trkpt>
      <trkpt lat="38.291069" lon="-6.425325">
        <ele>429.4</ele>
        <time>2011-04-02T13:22:40Z</time>
      </trkpt>
      <trkpt lat="38.291080" lon="-6.425444">
        <ele>429.4</ele>
        <time>2011-04-02T13:22:48Z</time>
      </trkpt>
      <trkpt lat="38.291080" lon="-6.425475">
        <ele>428.9</ele>
        <time>2011-04-02T13:22:49Z</time>
      </trkpt>
      <trkpt lat="38.291058" lon="-6.425610">
        <ele>429.4</ele>
        <time>2011-04-02T13:23:07Z</time>
      </trkpt>
      <trkpt lat="38.291058" lon="-6.425610">
        <ele>429.4</ele>
        <time>2011-04-02T13:23:38Z</time>
      </trkpt>
      <trkpt lat="38.291054" lon="-6.425613">
        <ele>429.4</ele>
        <time>2011-04-02T13:24:00Z</time>
      </trkpt>
      <trkpt lat="38.291061" lon="-6.425638">
        <ele>429.4</ele>
        <time>2011-04-02T13:24:28Z</time>
      </trkpt>
      <trkpt lat="38.291069" lon="-6.425663">
        <ele>429.4</ele>
        <time>2011-04-02T13:24:44Z</time>
      </trkpt>
      <trkpt lat="38.291061" lon="-6.425817">
        <ele>429.9</ele>
        <time>2011-04-02T13:24:58Z</time>
      </trkpt>
      <trkpt lat="38.291035" lon="-6.425942">
        <ele>429.9</ele>
        <time>2011-04-02T13:25:08Z</time>
      </trkpt>
      <trkpt lat="38.290989" lon="-6.426068">
        <ele>429.9</ele>
        <time>2011-04-02T13:25:19Z</time>
      </trkpt>
      <trkpt lat="38.290974" lon="-6.426112">
        <ele>429.4</ele>
        <time>2011-04-02T13:25:22Z</time>
      </trkpt>
      <trkpt lat="38.290947" lon="-6.426178">
        <ele>428.9</ele>
        <time>2011-04-02T13:25:29Z</time>
      </trkpt>
      <trkpt lat="38.290905" lon="-6.426269">
        <ele>429.4</ele>
        <time>2011-04-02T13:25:37Z</time>
      </trkpt>
      <trkpt lat="38.290806" lon="-6.426348">
        <ele>428.9</ele>
        <time>2011-04-02T13:25:49Z</time>
      </trkpt>
      <trkpt lat="38.290779" lon="-6.426391">
        <ele>428.9</ele>
        <time>2011-04-02T13:25:53Z</time>
      </trkpt>
      <trkpt lat="38.290760" lon="-6.426403">
        <ele>428.9</ele>
        <time>2011-04-02T13:25:56Z</time>
      </trkpt>
      <trkpt lat="38.290737" lon="-6.426434">
        <ele>428.4</ele>
        <time>2011-04-02T13:26:00Z</time>
      </trkpt>
      <trkpt lat="38.290615" lon="-6.426506">
        <ele>428.9</ele>
        <time>2011-04-02T13:26:13Z</time>
      </trkpt>
      <trkpt lat="38.290588" lon="-6.426507">
        <ele>428.4</ele>
        <time>2011-04-02T13:26:19Z</time>
      </trkpt>
      <trkpt lat="38.290577" lon="-6.426544">
        <ele>428.4</ele>
        <time>2011-04-02T13:26:21Z</time>
      </trkpt>
      <trkpt lat="38.290512" lon="-6.426620">
        <ele>428.4</ele>
        <time>2011-04-02T13:26:28Z</time>
      </trkpt>
      <trkpt lat="38.290436" lon="-6.426690">
        <ele>428.4</ele>
        <time>2011-04-02T13:26:36Z</time>
      </trkpt>
      <trkpt lat="38.290363" lon="-6.426743">
        <ele>428.4</ele>
        <time>2011-04-02T13:26:43Z</time>
      </trkpt>
      <trkpt lat="38.290333" lon="-6.426774">
        <ele>428.9</ele>
        <time>2011-04-02T13:26:47Z</time>
      </trkpt>
      <trkpt lat="38.290241" lon="-6.426809">
        <ele>428.4</ele>
        <time>2011-04-02T13:26:55Z</time>
      </trkpt>
      <trkpt lat="38.290051" lon="-6.426984">
        <ele>428.4</ele>
        <time>2011-04-02T13:27:14Z</time>
      </trkpt>
      <trkpt lat="38.289993" lon="-6.427046">
        <ele>427.5</ele>
        <time>2011-04-02T13:27:21Z</time>
      </trkpt>
      <trkpt lat="38.289780" lon="-6.427256">
        <ele>427.0</ele>
        <time>2011-04-02T13:27:42Z</time>
      </trkpt>
      <trkpt lat="38.289753" lon="-6.427279">
        <ele>427.5</ele>
        <time>2011-04-02T13:27:45Z</time>
      </trkpt>
      <trkpt lat="38.289581" lon="-6.427403">
        <ele>427.0</ele>
        <time>2011-04-02T13:28:03Z</time>
      </trkpt>
      <trkpt lat="38.289528" lon="-6.427434">
        <ele>427.5</ele>
        <time>2011-04-02T13:28:08Z</time>
      </trkpt>
      <trkpt lat="38.289429" lon="-6.427413">
        <ele>427.0</ele>
        <time>2011-04-02T13:28:16Z</time>
      </trkpt>
      <trkpt lat="38.289368" lon="-6.427448">
        <ele>426.5</ele>
        <time>2011-04-02T13:28:24Z</time>
      </trkpt>
      <trkpt lat="38.289360" lon="-6.427515">
        <ele>427.5</ele>
        <time>2011-04-02T13:28:30Z</time>
      </trkpt>
      <trkpt lat="38.289322" lon="-6.427543">
        <ele>427.0</ele>
        <time>2011-04-02T13:28:35Z</time>
      </trkpt>
      <trkpt lat="38.289291" lon="-6.427550">
        <ele>427.5</ele>
        <time>2011-04-02T13:28:38Z</time>
      </trkpt>
      <trkpt lat="38.289253" lon="-6.427581">
        <ele>427.5</ele>
        <time>2011-04-02T13:28:42Z</time>
      </trkpt>
      <trkpt lat="38.289162" lon="-6.427592">
        <ele>427.0</ele>
        <time>2011-04-02T13:28:51Z</time>
      </trkpt>
      <trkpt lat="38.289055" lon="-6.427673">
        <ele>426.5</ele>
        <time>2011-04-02T13:29:02Z</time>
      </trkpt>
      <trkpt lat="38.288967" lon="-6.427724">
        <ele>426.5</ele>
        <time>2011-04-02T13:29:14Z</time>
      </trkpt>
      <trkpt lat="38.288918" lon="-6.427765">
        <ele>426.5</ele>
        <time>2011-04-02T13:29:21Z</time>
      </trkpt>
      <trkpt lat="38.288895" lon="-6.427787">
        <ele>426.5</ele>
        <time>2011-04-02T13:29:41Z</time>
      </trkpt>
      <trkpt lat="38.288864" lon="-6.427814">
        <ele>426.5</ele>
        <time>2011-04-02T13:29:45Z</time>
      </trkpt>
      <trkpt lat="38.288696" lon="-6.427908">
        <ele>425.5</ele>
        <time>2011-04-02T13:30:00Z</time>
      </trkpt>
      <trkpt lat="38.288666" lon="-6.427939">
        <ele>425.5</ele>
        <time>2011-04-02T13:30:03Z</time>
      </trkpt>
      <trkpt lat="38.288635" lon="-6.427951">
        <ele>425.5</ele>
        <time>2011-04-02T13:30:05Z</time>
      </trkpt>
      <trkpt lat="38.288597" lon="-6.427994">
        <ele>426.0</ele>
        <time>2011-04-02T13:30:09Z</time>
      </trkpt>
      <trkpt lat="38.288563" lon="-6.428037">
        <ele>426.0</ele>
        <time>2011-04-02T13:30:14Z</time>
      </trkpt>
      <trkpt lat="38.288528" lon="-6.428058">
        <ele>425.5</ele>
        <time>2011-04-02T13:30:16Z</time>
      </trkpt>
      <trkpt lat="38.288517" lon="-6.428082">
        <ele>426.0</ele>
        <time>2011-04-02T13:30:19Z</time>
      </trkpt>
      <trkpt lat="38.288479" lon="-6.428096">
        <ele>425.5</ele>
        <time>2011-04-02T13:30:22Z</time>
      </trkpt>
      <trkpt lat="38.288406" lon="-6.428141">
        <ele>426.0</ele>
        <time>2011-04-02T13:30:28Z</time>
      </trkpt>
      <trkpt lat="38.288292" lon="-6.428204">
        <ele>426.5</ele>
        <time>2011-04-02T13:30:41Z</time>
      </trkpt>
      <trkpt lat="38.288216" lon="-6.428276">
        <ele>426.0</ele>
        <time>2011-04-02T13:30:49Z</time>
      </trkpt>
      <trkpt lat="38.288025" lon="-6.428410">
        <ele>425.5</ele>
        <time>2011-04-02T13:31:09Z</time>
      </trkpt>
      <trkpt lat="38.287930" lon="-6.428506">
        <ele>426.0</ele>
        <time>2011-04-02T13:31:25Z</time>
      </trkpt>
      <trkpt lat="38.287899" lon="-6.428533">
        <ele>425.5</ele>
        <time>2011-04-02T13:31:30Z</time>
      </trkpt>
      <trkpt lat="38.287697" lon="-6.428665">
        <ele>425.5</ele>
        <time>2011-04-02T13:31:52Z</time>
      </trkpt>
      <trkpt lat="38.287605" lon="-6.428710">
        <ele>425.5</ele>
        <time>2011-04-02T13:32:00Z</time>
      </trkpt>
      <trkpt lat="38.287491" lon="-6.428788">
        <ele>426.0</ele>
        <time>2011-04-02T13:32:11Z</time>
      </trkpt>
      <trkpt lat="38.287479" lon="-6.428803">
        <ele>425.5</ele>
        <time>2011-04-02T13:32:12Z</time>
      </trkpt>
      <trkpt lat="38.287430" lon="-6.428817">
        <ele>425.5</ele>
        <time>2011-04-02T13:32:16Z</time>
      </trkpt>
      <trkpt lat="38.287319" lon="-6.428887">
        <ele>425.5</ele>
        <time>2011-04-02T13:32:27Z</time>
      </trkpt>
      <trkpt lat="38.287228" lon="-6.428966">
        <ele>425.0</ele>
        <time>2011-04-02T13:32:38Z</time>
      </trkpt>
      <trkpt lat="38.287136" lon="-6.429019">
        <ele>425.0</ele>
        <time>2011-04-02T13:32:47Z</time>
      </trkpt>
      <trkpt lat="38.287083" lon="-6.429069">
        <ele>425.0</ele>
        <time>2011-04-02T13:32:54Z</time>
      </trkpt>
      <trkpt lat="38.286995" lon="-6.429139">
        <ele>425.0</ele>
        <time>2011-04-02T13:33:02Z</time>
      </trkpt>
      <trkpt lat="38.286938" lon="-6.429193">
        <ele>425.0</ele>
        <time>2011-04-02T13:33:09Z</time>
      </trkpt>
      <trkpt lat="38.286877" lon="-6.429230">
        <ele>424.1</ele>
        <time>2011-04-02T13:33:14Z</time>
      </trkpt>
      <trkpt lat="38.286770" lon="-6.429313">
        <ele>424.1</ele>
        <time>2011-04-02T13:33:25Z</time>
      </trkpt>
      <trkpt lat="38.286552" lon="-6.429448">
        <ele>424.1</ele>
        <time>2011-04-02T13:33:47Z</time>
      </trkpt>
      <trkpt lat="38.286346" lon="-6.429588">
        <ele>423.6</ele>
        <time>2011-04-02T13:34:07Z</time>
      </trkpt>
      <trkpt lat="38.286251" lon="-6.429656">
        <ele>424.1</ele>
        <time>2011-04-02T13:34:26Z</time>
      </trkpt>
      <trkpt lat="38.286221" lon="-6.429678">
        <ele>424.1</ele>
        <time>2011-04-02T13:34:46Z</time>
      </trkpt>
      <trkpt lat="38.286087" lon="-6.429832">
        <ele>424.1</ele>
        <time>2011-04-02T13:35:05Z</time>
      </trkpt>
      <trkpt lat="38.286041" lon="-6.429885">
        <ele>424.6</ele>
        <time>2011-04-02T13:35:12Z</time>
      </trkpt>
      <trkpt lat="38.285931" lon="-6.430081">
        <ele>425.0</ele>
        <time>2011-04-02T13:35:31Z</time>
      </trkpt>
      <trkpt lat="38.285934" lon="-6.430126">
        <ele>425.5</ele>
        <time>2011-04-02T13:35:35Z</time>
      </trkpt>
      <trkpt lat="38.285912" lon="-6.430368">
        <ele>426.5</ele>
        <time>2011-04-02T13:35:55Z</time>
      </trkpt>
      <trkpt lat="38.285919" lon="-6.430633">
        <ele>425.0</ele>
        <time>2011-04-02T13:36:11Z</time>
      </trkpt>
      <trkpt lat="38.285931" lon="-6.430783">
        <ele>425.0</ele>
        <time>2011-04-02T13:36:22Z</time>
      </trkpt>
      <trkpt lat="38.285919" lon="-6.430826">
        <ele>425.5</ele>
        <time>2011-04-02T13:36:25Z</time>
      </trkpt>
      <trkpt lat="38.285957" lon="-6.431072">
        <ele>425.0</ele>
        <time>2011-04-02T13:36:45Z</time>
      </trkpt>
      <trkpt lat="38.285973" lon="-6.431176">
        <ele>425.0</ele>
        <time>2011-04-02T13:36:53Z</time>
      </trkpt>
      <trkpt lat="38.286015" lon="-6.431200">
        <ele>424.1</ele>
        <time>2011-04-02T13:37:05Z</time>
      </trkpt>
      <trkpt lat="38.286015" lon="-6.431200">
        <ele>424.1</ele>
        <time>2011-04-02T13:37:50Z</time>
      </trkpt>
      <trkpt lat="38.286015" lon="-6.431199">
        <ele>424.1</ele>
        <time>2011-04-02T13:38:42Z</time>
      </trkpt>
      <trkpt lat="38.286015" lon="-6.431197">
        <ele>424.6</ele>
        <time>2011-04-02T13:39:32Z</time>
      </trkpt>
      <trkpt lat="38.286015" lon="-6.431197">
        <ele>425.0</ele>
        <time>2011-04-02T13:40:22Z</time>
      </trkpt>
      <trkpt lat="38.286018" lon="-6.431196">
        <ele>425.0</ele>
        <time>2011-04-02T13:41:11Z</time>
      </trkpt>
      <trkpt lat="38.285988" lon="-6.431217">
        <ele>426.0</ele>
        <time>2011-04-02T13:41:29Z</time>
      </trkpt>
      <trkpt lat="38.285988" lon="-6.431217">
        <ele>426.5</ele>
        <time>2011-04-02T13:41:50Z</time>
      </trkpt>
      <trkpt lat="38.285980" lon="-6.431257">
        <ele>426.0</ele>
        <time>2011-04-02T13:42:25Z</time>
      </trkpt>
      <trkpt lat="38.285995" lon="-6.431389">
        <ele>426.0</ele>
        <time>2011-04-02T13:42:40Z</time>
      </trkpt>
      <trkpt lat="38.286037" lon="-6.431550">
        <ele>425.5</ele>
        <time>2011-04-02T13:42:52Z</time>
      </trkpt>
      <trkpt lat="38.286064" lon="-6.431619">
        <ele>425.5</ele>
        <time>2011-04-02T13:42:56Z</time>
      </trkpt>
      <trkpt lat="38.286087" lon="-6.431653">
        <ele>425.5</ele>
        <time>2011-04-02T13:42:59Z</time>
      </trkpt>
      <trkpt lat="38.286098" lon="-6.431679">
        <ele>426.0</ele>
        <time>2011-04-02T13:43:02Z</time>
      </trkpt>
      <trkpt lat="38.286125" lon="-6.431703">
        <ele>426.5</ele>
        <time>2011-04-02T13:43:04Z</time>
      </trkpt>
      <trkpt lat="38.286144" lon="-6.431772">
        <ele>426.5</ele>
        <time>2011-04-02T13:43:11Z</time>
      </trkpt>
      <trkpt lat="38.286182" lon="-6.431824">
        <ele>426.5</ele>
        <time>2011-04-02T13:43:15Z</time>
      </trkpt>
      <trkpt lat="38.286266" lon="-6.432041">
        <ele>426.5</ele>
        <time>2011-04-02T13:43:30Z</time>
      </trkpt>
      <trkpt lat="38.286320" lon="-6.432103">
        <ele>426.5</ele>
        <time>2011-04-02T13:43:35Z</time>
      </trkpt>
      <trkpt lat="38.286373" lon="-6.432172">
        <ele>426.5</ele>
        <time>2011-04-02T13:43:42Z</time>
      </trkpt>
      <trkpt lat="38.286469" lon="-6.432425">
        <ele>426.5</ele>
        <time>2011-04-02T13:44:01Z</time>
      </trkpt>
      <trkpt lat="38.286469" lon="-6.432479">
        <ele>426.0</ele>
        <time>2011-04-02T13:44:05Z</time>
      </trkpt>
      <trkpt lat="38.286480" lon="-6.432506">
        <ele>426.0</ele>
        <time>2011-04-02T13:44:08Z</time>
      </trkpt>
      <trkpt lat="38.286583" lon="-6.432563">
        <ele>426.5</ele>
        <time>2011-04-02T13:44:17Z</time>
      </trkpt>
      <trkpt lat="38.286594" lon="-6.432589">
        <ele>426.0</ele>
        <time>2011-04-02T13:44:20Z</time>
      </trkpt>
      <trkpt lat="38.286663" lon="-6.432731">
        <ele>426.0</ele>
        <time>2011-04-02T13:44:35Z</time>
      </trkpt>
      <trkpt lat="38.286678" lon="-6.432749">
        <ele>425.5</ele>
        <time>2011-04-02T13:44:36Z</time>
      </trkpt>
      <trkpt lat="38.286732" lon="-6.432835">
        <ele>426.0</ele>
        <time>2011-04-02T13:44:51Z</time>
      </trkpt>
      <trkpt lat="38.286747" lon="-6.432854">
        <ele>425.5</ele>
        <time>2011-04-02T13:44:59Z</time>
      </trkpt>
      <trkpt lat="38.286777" lon="-6.432927">
        <ele>425.5</ele>
        <time>2011-04-02T13:45:03Z</time>
      </trkpt>
      <trkpt lat="38.286781" lon="-6.432964">
        <ele>426.0</ele>
        <time>2011-04-02T13:45:07Z</time>
      </trkpt>
      <trkpt lat="38.286865" lon="-6.433025">
        <ele>426.0</ele>
        <time>2011-04-02T13:45:14Z</time>
      </trkpt>
      <trkpt lat="38.286903" lon="-6.433088">
        <ele>426.0</ele>
        <time>2011-04-02T13:45:19Z</time>
      </trkpt>
      <trkpt lat="38.286938" lon="-6.433112">
        <ele>425.5</ele>
        <time>2011-04-02T13:45:22Z</time>
      </trkpt>
      <trkpt lat="38.287025" lon="-6.433239">
        <ele>426.5</ele>
        <time>2011-04-02T13:45:34Z</time>
      </trkpt>
      <trkpt lat="38.287102" lon="-6.433330">
        <ele>426.5</ele>
        <time>2011-04-02T13:45:41Z</time>
      </trkpt>
      <trkpt lat="38.287216" lon="-6.433495">
        <ele>426.5</ele>
        <time>2011-04-02T13:45:57Z</time>
      </trkpt>
      <trkpt lat="38.287239" lon="-6.433543">
        <ele>426.0</ele>
        <time>2011-04-02T13:46:01Z</time>
      </trkpt>
      <trkpt lat="38.287315" lon="-6.433625">
        <ele>426.5</ele>
        <time>2011-04-02T13:46:11Z</time>
      </trkpt>
      <trkpt lat="38.287354" lon="-6.433654">
        <ele>426.0</ele>
        <time>2011-04-02T13:46:15Z</time>
      </trkpt>
      <trkpt lat="38.287373" lon="-6.433686">
        <ele>426.5</ele>
        <time>2011-04-02T13:46:17Z</time>
      </trkpt>
      <trkpt lat="38.287376" lon="-6.433722">
        <ele>426.5</ele>
        <time>2011-04-02T13:46:20Z</time>
      </trkpt>
      <trkpt lat="38.287395" lon="-6.433784">
        <ele>426.0</ele>
        <time>2011-04-02T13:46:26Z</time>
      </trkpt>
      <trkpt lat="38.287418" lon="-6.433835">
        <ele>426.0</ele>
        <time>2011-04-02T13:46:31Z</time>
      </trkpt>
      <trkpt lat="38.287483" lon="-6.433887">
        <ele>425.5</ele>
        <time>2011-04-02T13:46:38Z</time>
      </trkpt>
      <trkpt lat="38.287586" lon="-6.433967">
        <ele>425.5</ele>
        <time>2011-04-02T13:46:48Z</time>
      </trkpt>
      <trkpt lat="38.287613" lon="-6.434002">
        <ele>425.5</ele>
        <time>2011-04-02T13:46:51Z</time>
      </trkpt>
      <trkpt lat="38.287632" lon="-6.434018">
        <ele>425.5</ele>
        <time>2011-04-02T13:46:54Z</time>
      </trkpt>
      <trkpt lat="38.287727" lon="-6.434139">
        <ele>426.0</ele>
        <time>2011-04-02T13:47:05Z</time>
      </trkpt>
      <trkpt lat="38.287819" lon="-6.434269">
        <ele>425.5</ele>
        <time>2011-04-02T13:47:17Z</time>
      </trkpt>
      <trkpt lat="38.287910" lon="-6.434383">
        <ele>426.0</ele>
        <time>2011-04-02T13:47:26Z</time>
      </trkpt>
      <trkpt lat="38.287937" lon="-6.434437">
        <ele>425.5</ele>
        <time>2011-04-02T13:47:30Z</time>
      </trkpt>
      <trkpt lat="38.288013" lon="-6.434553">
        <ele>425.5</ele>
        <time>2011-04-02T13:47:52Z</time>
      </trkpt>
      <trkpt lat="38.288017" lon="-6.434549">
        <ele>425.5</ele>
        <time>2011-04-02T13:48:19Z</time>
      </trkpt>
      <trkpt lat="38.288017" lon="-6.434551">
        <ele>425.5</ele>
        <time>2011-04-02T13:48:45Z</time>
      </trkpt>
      <trkpt lat="38.288017" lon="-6.434552">
        <ele>425.5</ele>
        <time>2011-04-02T13:48:58Z</time>
      </trkpt>
      <trkpt lat="38.288017" lon="-6.434529">
        <ele>425.5</ele>
        <time>2011-04-02T13:52:38Z</time>
      </trkpt>
      <trkpt lat="38.288029" lon="-6.434551">
        <ele>425.5</ele>
        <time>2011-04-02T13:52:39Z</time>
      </trkpt>
      <trkpt lat="38.288067" lon="-6.434645">
        <ele>425.5</ele>
        <time>2011-04-02T13:52:49Z</time>
      </trkpt>
      <trkpt lat="38.288181" lon="-6.434789">
        <ele>425.5</ele>
        <time>2011-04-02T13:53:04Z</time>
      </trkpt>
      <trkpt lat="38.288239" lon="-6.434825">
        <ele>425.0</ele>
        <time>2011-04-02T13:53:11Z</time>
      </trkpt>
      <trkpt lat="38.288395" lon="-6.434958">
        <ele>425.5</ele>
        <time>2011-04-02T13:53:29Z</time>
      </trkpt>
      <trkpt lat="38.288399" lon="-6.434960">
        <ele>425.5</ele>
        <time>2011-04-02T13:53:47Z</time>
      </trkpt>
      <trkpt lat="38.288445" lon="-6.434989">
        <ele>425.5</ele>
        <time>2011-04-02T13:53:52Z</time>
      </trkpt>
      <trkpt lat="38.288677" lon="-6.435116">
        <ele>425.0</ele>
        <time>2011-04-02T13:54:13Z</time>
      </trkpt>
      <trkpt lat="38.288830" lon="-6.435186">
        <ele>425.5</ele>
        <time>2011-04-02T13:54:32Z</time>
      </trkpt>
      <trkpt lat="38.288868" lon="-6.435204">
        <ele>425.0</ele>
        <time>2011-04-02T13:54:41Z</time>
      </trkpt>
      <trkpt lat="38.288929" lon="-6.435235">
        <ele>425.0</ele>
        <time>2011-04-02T13:54:48Z</time>
      </trkpt>
      <trkpt lat="38.288956" lon="-6.435254">
        <ele>425.0</ele>
        <time>2011-04-02T13:54:50Z</time>
      </trkpt>
      <trkpt lat="38.288975" lon="-6.435258">
        <ele>425.0</ele>
        <time>2011-04-02T13:54:53Z</time>
      </trkpt>
      <trkpt lat="38.289051" lon="-6.435292">
        <ele>425.0</ele>
        <time>2011-04-02T13:55:03Z</time>
      </trkpt>
      <trkpt lat="38.289227" lon="-6.435316">
        <ele>424.6</ele>
        <time>2011-04-02T13:55:20Z</time>
      </trkpt>
      <trkpt lat="38.289276" lon="-6.435332">
        <ele>424.6</ele>
        <time>2011-04-02T13:55:24Z</time>
      </trkpt>
      <trkpt lat="38.289303" lon="-6.435326">
        <ele>424.6</ele>
        <time>2011-04-02T13:55:27Z</time>
      </trkpt>
      <trkpt lat="38.289352" lon="-6.435329">
        <ele>424.1</ele>
        <time>2011-04-02T13:55:31Z</time>
      </trkpt>
      <trkpt lat="38.289421" lon="-6.435359">
        <ele>424.6</ele>
        <time>2011-04-02T13:55:36Z</time>
      </trkpt>
      <trkpt lat="38.289524" lon="-6.435392">
        <ele>424.1</ele>
        <time>2011-04-02T13:55:46Z</time>
      </trkpt>
      <trkpt lat="38.289589" lon="-6.435413">
        <ele>424.6</ele>
        <time>2011-04-02T13:55:51Z</time>
      </trkpt>
      <trkpt lat="38.289669" lon="-6.435424">
        <ele>423.6</ele>
        <time>2011-04-02T13:55:58Z</time>
      </trkpt>
      <trkpt lat="38.289688" lon="-6.435430">
        <ele>423.1</ele>
        <time>2011-04-02T13:55:59Z</time>
      </trkpt>
      <trkpt lat="38.289745" lon="-6.435458">
        <ele>423.6</ele>
        <time>2011-04-02T13:56:06Z</time>
      </trkpt>
      <trkpt lat="38.289787" lon="-6.435449">
        <ele>422.6</ele>
        <time>2011-04-02T13:56:10Z</time>
      </trkpt>
      <trkpt lat="38.289825" lon="-6.435454">
        <ele>422.6</ele>
        <time>2011-04-02T13:56:14Z</time>
      </trkpt>
      <trkpt lat="38.289871" lon="-6.435453">
        <ele>422.6</ele>
        <time>2011-04-02T13:56:20Z</time>
      </trkpt>
      <trkpt lat="38.289967" lon="-6.435457">
        <ele>423.1</ele>
        <time>2011-04-02T13:56:29Z</time>
      </trkpt>
      <trkpt lat="38.290024" lon="-6.435440">
        <ele>423.1</ele>
        <time>2011-04-02T13:56:34Z</time>
      </trkpt>
      <trkpt lat="38.290039" lon="-6.435418">
        <ele>423.6</ele>
        <time>2011-04-02T13:56:37Z</time>
      </trkpt>
      <trkpt lat="38.290066" lon="-6.435396">
        <ele>423.6</ele>
        <time>2011-04-02T13:56:41Z</time>
      </trkpt>
      <trkpt lat="38.290096" lon="-6.435387">
        <ele>423.6</ele>
        <time>2011-04-02T13:56:44Z</time>
      </trkpt>
      <trkpt lat="38.290184" lon="-6.435398">
        <ele>423.1</ele>
        <time>2011-04-02T13:56:52Z</time>
      </trkpt>
      <trkpt lat="38.290226" lon="-6.435406">
        <ele>423.1</ele>
        <time>2011-04-02T13:56:56Z</time>
      </trkpt>
      <trkpt lat="38.290268" lon="-6.435402">
        <ele>423.6</ele>
        <time>2011-04-02T13:57:00Z</time>
      </trkpt>
      <trkpt lat="38.290340" lon="-6.435397">
        <ele>423.1</ele>
        <time>2011-04-02T13:57:05Z</time>
      </trkpt>
      <trkpt lat="38.290432" lon="-6.435412">
        <ele>423.6</ele>
        <time>2011-04-02T13:57:14Z</time>
      </trkpt>
      <trkpt lat="38.290478" lon="-6.435410">
        <ele>423.6</ele>
        <time>2011-04-02T13:57:18Z</time>
      </trkpt>
      <trkpt lat="38.290527" lon="-6.435421">
        <ele>423.1</ele>
        <time>2011-04-02T13:57:22Z</time>
      </trkpt>
      <trkpt lat="38.290611" lon="-6.435410">
        <ele>422.6</ele>
        <time>2011-04-02T13:57:28Z</time>
      </trkpt>
      <trkpt lat="38.290756" lon="-6.435472">
        <ele>422.6</ele>
        <time>2011-04-02T13:57:43Z</time>
      </trkpt>
      <trkpt lat="38.290810" lon="-6.435477">
        <ele>423.1</ele>
        <time>2011-04-02T13:57:47Z</time>
      </trkpt>
      <trkpt lat="38.290836" lon="-6.435469">
        <ele>423.1</ele>
        <time>2011-04-02T13:57:50Z</time>
      </trkpt>
      <trkpt lat="38.290855" lon="-6.435481">
        <ele>423.1</ele>
        <time>2011-04-02T13:57:54Z</time>
      </trkpt>
      <trkpt lat="38.290939" lon="-6.435504">
        <ele>422.6</ele>
        <time>2011-04-02T13:58:02Z</time>
      </trkpt>
      <trkpt lat="38.291103" lon="-6.435588">
        <ele>422.1</ele>
        <time>2011-04-02T13:58:21Z</time>
      </trkpt>
      <trkpt lat="38.291218" lon="-6.435649">
        <ele>422.6</ele>
        <time>2011-04-02T13:58:33Z</time>
      </trkpt>
      <trkpt lat="38.291313" lon="-6.435656">
        <ele>422.6</ele>
        <time>2011-04-02T13:58:48Z</time>
      </trkpt>
      <trkpt lat="38.291378" lon="-6.435670">
        <ele>421.7</ele>
        <time>2011-04-02T13:58:59Z</time>
      </trkpt>
      <trkpt lat="38.291454" lon="-6.435661">
        <ele>424.1</ele>
        <time>2011-04-02T13:59:11Z</time>
      </trkpt>
      <trkpt lat="38.291565" lon="-6.435703">
        <ele>423.6</ele>
        <time>2011-04-02T13:59:31Z</time>
      </trkpt>
      <trkpt lat="38.291626" lon="-6.435729">
        <ele>423.6</ele>
        <time>2011-04-02T13:59:54Z</time>
      </trkpt>
      <trkpt lat="38.291664" lon="-6.435762">
        <ele>423.1</ele>
        <time>2011-04-02T14:00:02Z</time>
      </trkpt>
      <trkpt lat="38.291714" lon="-6.435802">
        <ele>423.6</ele>
        <time>2011-04-02T14:00:09Z</time>
      </trkpt>
      <trkpt lat="38.291786" lon="-6.435891">
        <ele>423.6</ele>
        <time>2011-04-02T14:00:21Z</time>
      </trkpt>
      <trkpt lat="38.291851" lon="-6.435993">
        <ele>422.6</ele>
        <time>2011-04-02T14:00:31Z</time>
      </trkpt>
      <trkpt lat="38.291870" lon="-6.436008">
        <ele>423.1</ele>
        <time>2011-04-02T14:00:32Z</time>
      </trkpt>
      <trkpt lat="38.291878" lon="-6.436030">
        <ele>423.1</ele>
        <time>2011-04-02T14:00:35Z</time>
      </trkpt>
      <trkpt lat="38.291897" lon="-6.436059">
        <ele>424.1</ele>
        <time>2011-04-02T14:00:37Z</time>
      </trkpt>
      <trkpt lat="38.291931" lon="-6.436083">
        <ele>424.6</ele>
        <time>2011-04-02T14:00:58Z</time>
      </trkpt>
      <trkpt lat="38.291927" lon="-6.436089">
        <ele>423.6</ele>
        <time>2011-04-02T14:01:33Z</time>
      </trkpt>
      <trkpt lat="38.291935" lon="-6.436074">
        <ele>424.1</ele>
        <time>2011-04-02T14:01:57Z</time>
      </trkpt>
      <trkpt lat="38.291943" lon="-6.436072">
        <ele>425.0</ele>
        <time>2011-04-02T14:02:15Z</time>
      </trkpt>
      <trkpt lat="38.291946" lon="-6.436061">
        <ele>424.1</ele>
        <time>2011-04-02T14:02:32Z</time>
      </trkpt>
      <trkpt lat="38.291962" lon="-6.436096">
        <ele>423.1</ele>
        <time>2011-04-02T14:02:52Z</time>
      </trkpt>
      <trkpt lat="38.291973" lon="-6.436128">
        <ele>422.1</ele>
        <time>2011-04-02T14:02:55Z</time>
      </trkpt>
      <trkpt lat="38.292034" lon="-6.436176">
        <ele>421.2</ele>
        <time>2011-04-02T14:03:02Z</time>
      </trkpt>
      <trkpt lat="38.292198" lon="-6.436315">
        <ele>421.7</ele>
        <time>2011-04-02T14:03:18Z</time>
      </trkpt>
      <trkpt lat="38.292271" lon="-6.436384">
        <ele>421.7</ele>
        <time>2011-04-02T14:03:30Z</time>
      </trkpt>
      <trkpt lat="38.292301" lon="-6.436384">
        <ele>422.1</ele>
        <time>2011-04-02T14:03:33Z</time>
      </trkpt>
      <trkpt lat="38.292351" lon="-6.436399">
        <ele>422.1</ele>
        <time>2011-04-02T14:03:37Z</time>
      </trkpt>
      <trkpt lat="38.292549" lon="-6.436538">
        <ele>422.1</ele>
        <time>2011-04-02T14:03:56Z</time>
      </trkpt>
      <trkpt lat="38.292755" lon="-6.436685">
        <ele>422.1</ele>
        <time>2011-04-02T14:04:15Z</time>
      </trkpt>
      <trkpt lat="38.292831" lon="-6.436746">
        <ele>422.1</ele>
        <time>2011-04-02T14:04:21Z</time>
      </trkpt>
      <trkpt lat="38.292877" lon="-6.436795">
        <ele>421.2</ele>
        <time>2011-04-02T14:04:27Z</time>
      </trkpt>
      <trkpt lat="38.292919" lon="-6.436827">
        <ele>421.7</ele>
        <time>2011-04-02T14:04:31Z</time>
      </trkpt>
      <trkpt lat="38.292942" lon="-6.436860">
        <ele>421.7</ele>
        <time>2011-04-02T14:04:34Z</time>
      </trkpt>
      <trkpt lat="38.292984" lon="-6.436905">
        <ele>421.7</ele>
        <time>2011-04-02T14:04:39Z</time>
      </trkpt>
      <trkpt lat="38.293026" lon="-6.436948">
        <ele>421.2</ele>
        <time>2011-04-02T14:04:43Z</time>
      </trkpt>
      <trkpt lat="38.293060" lon="-6.436972">
        <ele>421.7</ele>
        <time>2011-04-02T14:04:47Z</time>
      </trkpt>
      <trkpt lat="38.293148" lon="-6.437047">
        <ele>421.7</ele>
        <time>2011-04-02T14:04:55Z</time>
      </trkpt>
      <trkpt lat="38.293163" lon="-6.437066">
        <ele>421.7</ele>
        <time>2011-04-02T14:04:58Z</time>
      </trkpt>
      <trkpt lat="38.293247" lon="-6.437188">
        <ele>421.7</ele>
        <time>2011-04-02T14:05:09Z</time>
      </trkpt>
      <trkpt lat="38.293259" lon="-6.437266">
        <ele>420.7</ele>
        <time>2011-04-02T14:05:14Z</time>
      </trkpt>
      <trkpt lat="38.293297" lon="-6.437282">
        <ele>421.2</ele>
        <time>2011-04-02T14:05:18Z</time>
      </trkpt>
      <trkpt lat="38.293320" lon="-6.437304">
        <ele>421.2</ele>
        <time>2011-04-02T14:05:22Z</time>
      </trkpt>
      <trkpt lat="38.293346" lon="-6.437413">
        <ele>421.2</ele>
        <time>2011-04-02T14:05:30Z</time>
      </trkpt>
      <trkpt lat="38.293365" lon="-6.437416">
        <ele>421.2</ele>
        <time>2011-04-02T14:05:33Z</time>
      </trkpt>
      <trkpt lat="38.293385" lon="-6.437427">
        <ele>421.7</ele>
        <time>2011-04-02T14:05:34Z</time>
      </trkpt>
      <trkpt lat="38.293407" lon="-6.437425">
        <ele>421.7</ele>
        <time>2011-04-02T14:05:37Z</time>
      </trkpt>
      <trkpt lat="38.293465" lon="-6.437433">
        <ele>421.2</ele>
        <time>2011-04-02T14:05:42Z</time>
      </trkpt>
      <trkpt lat="38.293499" lon="-6.437538">
        <ele>421.2</ele>
        <time>2011-04-02T14:05:51Z</time>
      </trkpt>
      <trkpt lat="38.293633" lon="-6.437669">
        <ele>421.7</ele>
        <time>2011-04-02T14:06:05Z</time>
      </trkpt>
      <trkpt lat="38.293716" lon="-6.437753">
        <ele>421.2</ele>
        <time>2011-04-02T14:06:15Z</time>
      </trkpt>
      <trkpt lat="38.293743" lon="-6.437785">
        <ele>420.7</ele>
        <time>2011-04-02T14:06:18Z</time>
      </trkpt>
      <trkpt lat="38.293797" lon="-6.437860">
        <ele>420.7</ele>
        <time>2011-04-02T14:06:24Z</time>
      </trkpt>
      <trkpt lat="38.293846" lon="-6.437927">
        <ele>421.2</ele>
        <time>2011-04-02T14:06:31Z</time>
      </trkpt>
      <trkpt lat="38.293930" lon="-6.438059">
        <ele>420.7</ele>
        <time>2011-04-02T14:06:49Z</time>
      </trkpt>
      <trkpt lat="38.293930" lon="-6.438059">
        <ele>421.2</ele>
        <time>2011-04-02T14:06:50Z</time>
      </trkpt>
      <trkpt lat="38.293926" lon="-6.438077">
        <ele>420.7</ele>
        <time>2011-04-02T14:06:53Z</time>
      </trkpt>
      <trkpt lat="38.293972" lon="-6.438149">
        <ele>420.7</ele>
        <time>2011-04-02T14:07:12Z</time>
      </trkpt>
      <trkpt lat="38.293972" lon="-6.438142">
        <ele>420.7</ele>
        <time>2011-04-02T14:07:45Z</time>
      </trkpt>
      <trkpt lat="38.293972" lon="-6.438143">
        <ele>420.7</ele>
        <time>2011-04-02T14:08:22Z</time>
      </trkpt>
      <trkpt lat="38.293972" lon="-6.438143">
        <ele>420.2</ele>
        <time>2011-04-02T14:08:23Z</time>
      </trkpt>
      <trkpt lat="38.294041" lon="-6.438359">
        <ele>420.7</ele>
        <time>2011-04-02T14:08:41Z</time>
      </trkpt>
      <trkpt lat="38.294048" lon="-6.438375">
        <ele>421.2</ele>
        <time>2011-04-02T14:08:47Z</time>
      </trkpt>
      <trkpt lat="38.294147" lon="-6.438529">
        <ele>420.2</ele>
        <time>2011-04-02T14:09:04Z</time>
      </trkpt>
      <trkpt lat="38.294170" lon="-6.438565">
        <ele>420.7</ele>
        <time>2011-04-02T14:09:23Z</time>
      </trkpt>
      <trkpt lat="38.294178" lon="-6.438565">
        <ele>420.7</ele>
        <time>2011-04-02T14:09:33Z</time>
      </trkpt>
      <trkpt lat="38.294189" lon="-6.438578">
        <ele>420.2</ele>
        <time>2011-04-02T14:09:36Z</time>
      </trkpt>
      <trkpt lat="38.294304" lon="-6.438579">
        <ele>421.2</ele>
        <time>2011-04-02T14:09:47Z</time>
      </trkpt>
      <trkpt lat="38.294392" lon="-6.438604">
        <ele>421.2</ele>
        <time>2011-04-02T14:09:56Z</time>
      </trkpt>
      <trkpt lat="38.294476" lon="-6.438666">
        <ele>421.2</ele>
        <time>2011-04-02T14:10:07Z</time>
      </trkpt>
      <trkpt lat="38.294590" lon="-6.438742">
        <ele>420.7</ele>
        <time>2011-04-02T14:10:19Z</time>
      </trkpt>
      <trkpt lat="38.294647" lon="-6.438734">
        <ele>421.2</ele>
        <time>2011-04-02T14:10:23Z</time>
      </trkpt>
      <trkpt lat="38.294739" lon="-6.438823">
        <ele>421.2</ele>
        <time>2011-04-02T14:10:34Z</time>
      </trkpt>
      <trkpt lat="38.294796" lon="-6.438843">
        <ele>420.7</ele>
        <time>2011-04-02T14:10:38Z</time>
      </trkpt>
      <trkpt lat="38.294838" lon="-6.438863">
        <ele>420.7</ele>
        <time>2011-04-02T14:10:49Z</time>
      </trkpt>
      <trkpt lat="38.294933" lon="-6.438882">
        <ele>420.7</ele>
        <time>2011-04-02T14:10:58Z</time>
      </trkpt>
      <trkpt lat="38.295029" lon="-6.438890">
        <ele>420.7</ele>
        <time>2011-04-02T14:11:08Z</time>
      </trkpt>
      <trkpt lat="38.295055" lon="-6.438910">
        <ele>420.2</ele>
        <time>2011-04-02T14:11:11Z</time>
      </trkpt>
      <trkpt lat="38.295197" lon="-6.438944">
        <ele>420.2</ele>
        <time>2011-04-02T14:11:28Z</time>
      </trkpt>
      <trkpt lat="38.295269" lon="-6.438962">
        <ele>419.7</ele>
        <time>2011-04-02T14:11:35Z</time>
      </trkpt>
      <trkpt lat="38.295315" lon="-6.438982">
        <ele>419.7</ele>
        <time>2011-04-02T14:11:39Z</time>
      </trkpt>
      <trkpt lat="38.295433" lon="-6.439012">
        <ele>419.3</ele>
        <time>2011-04-02T14:11:48Z</time>
      </trkpt>
      <trkpt lat="38.295544" lon="-6.439010">
        <ele>418.3</ele>
        <time>2011-04-02T14:11:59Z</time>
      </trkpt>
      <trkpt lat="38.295643" lon="-6.438927">
        <ele>418.8</ele>
        <time>2011-04-02T14:12:13Z</time>
      </trkpt>
      <trkpt lat="38.295696" lon="-6.438936">
        <ele>418.8</ele>
        <time>2011-04-02T14:12:18Z</time>
      </trkpt>
      <trkpt lat="38.295742" lon="-6.438936">
        <ele>418.8</ele>
        <time>2011-04-02T14:12:22Z</time>
      </trkpt>
      <trkpt lat="38.295765" lon="-6.438903">
        <ele>418.8</ele>
        <time>2011-04-02T14:12:26Z</time>
      </trkpt>
      <trkpt lat="38.295826" lon="-6.438904">
        <ele>418.8</ele>
        <time>2011-04-02T14:12:41Z</time>
      </trkpt>
      <trkpt lat="38.295841" lon="-6.438913">
        <ele>418.3</ele>
        <time>2011-04-02T14:12:42Z</time>
      </trkpt>
      <trkpt lat="38.295895" lon="-6.438882">
        <ele>418.8</ele>
        <time>2011-04-02T14:12:48Z</time>
      </trkpt>
      <trkpt lat="38.295998" lon="-6.438827">
        <ele>418.8</ele>
        <time>2011-04-02T14:12:59Z</time>
      </trkpt>
      <trkpt lat="38.296051" lon="-6.438830">
        <ele>419.3</ele>
        <time>2011-04-02T14:13:16Z</time>
      </trkpt>
      <trkpt lat="38.296082" lon="-6.438838">
        <ele>418.3</ele>
        <time>2011-04-02T14:13:35Z</time>
      </trkpt>
      <trkpt lat="38.296097" lon="-6.438811">
        <ele>418.8</ele>
        <time>2011-04-02T14:13:36Z</time>
      </trkpt>
      <trkpt lat="38.296200" lon="-6.438704">
        <ele>419.3</ele>
        <time>2011-04-02T14:13:50Z</time>
      </trkpt>
      <trkpt lat="38.296284" lon="-6.438663">
        <ele>418.8</ele>
        <time>2011-04-02T14:13:58Z</time>
      </trkpt>
      <trkpt lat="38.296322" lon="-6.438648">
        <ele>418.3</ele>
        <time>2011-04-02T14:14:01Z</time>
      </trkpt>
      <trkpt lat="38.296333" lon="-6.438629">
        <ele>418.8</ele>
        <time>2011-04-02T14:14:02Z</time>
      </trkpt>
      <trkpt lat="38.296360" lon="-6.438617">
        <ele>417.8</ele>
        <time>2011-04-02T14:14:06Z</time>
      </trkpt>
      <trkpt lat="38.296375" lon="-6.438602">
        <ele>418.8</ele>
        <time>2011-04-02T14:14:07Z</time>
      </trkpt>
      <trkpt lat="38.296471" lon="-6.438567">
        <ele>418.3</ele>
        <time>2011-04-02T14:14:17Z</time>
      </trkpt>
      <trkpt lat="38.296547" lon="-6.438529">
        <ele>418.8</ele>
        <time>2011-04-02T14:14:25Z</time>
      </trkpt>
      <trkpt lat="38.296593" lon="-6.438522">
        <ele>418.3</ele>
        <time>2011-04-02T14:14:29Z</time>
      </trkpt>
      <trkpt lat="38.296757" lon="-6.438409">
        <ele>418.3</ele>
        <time>2011-04-02T14:14:44Z</time>
      </trkpt>
      <trkpt lat="38.296921" lon="-6.438289">
        <ele>417.8</ele>
        <time>2011-04-02T14:15:00Z</time>
      </trkpt>
      <trkpt lat="38.296986" lon="-6.438233">
        <ele>417.4</ele>
        <time>2011-04-02T14:15:08Z</time>
      </trkpt>
      <trkpt lat="38.297016" lon="-6.438215">
        <ele>417.4</ele>
        <time>2011-04-02T14:15:12Z</time>
      </trkpt>
      <trkpt lat="38.297035" lon="-6.438184">
        <ele>416.4</ele>
        <time>2011-04-02T14:15:15Z</time>
      </trkpt>
      <trkpt lat="38.297050" lon="-6.438161">
        <ele>416.9</ele>
        <time>2011-04-02T14:15:16Z</time>
      </trkpt>
      <trkpt lat="38.297058" lon="-6.438138">
        <ele>417.4</ele>
        <time>2011-04-02T14:15:19Z</time>
      </trkpt>
      <trkpt lat="38.297070" lon="-6.438114">
        <ele>417.8</ele>
        <time>2011-04-02T14:15:20Z</time>
      </trkpt>
      <trkpt lat="38.297157" lon="-6.437969">
        <ele>417.8</ele>
        <time>2011-04-02T14:15:34Z</time>
      </trkpt>
      <trkpt lat="38.297272" lon="-6.437883">
        <ele>416.9</ele>
        <time>2011-04-02T14:15:46Z</time>
      </trkpt>
      <trkpt lat="38.297367" lon="-6.437801">
        <ele>417.4</ele>
        <time>2011-04-02T14:15:55Z</time>
      </trkpt>
      <trkpt lat="38.297379" lon="-6.437759">
        <ele>416.9</ele>
        <time>2011-04-02T14:15:58Z</time>
      </trkpt>
      <trkpt lat="38.297516" lon="-6.437685">
        <ele>417.4</ele>
        <time>2011-04-02T14:16:12Z</time>
      </trkpt>
      <trkpt lat="38.297588" lon="-6.437562">
        <ele>416.9</ele>
        <time>2011-04-02T14:16:21Z</time>
      </trkpt>
      <trkpt lat="38.297607" lon="-6.437533">
        <ele>416.9</ele>
        <time>2011-04-02T14:16:24Z</time>
      </trkpt>
      <trkpt lat="38.297691" lon="-6.437474">
        <ele>417.4</ele>
        <time>2011-04-02T14:16:32Z</time>
      </trkpt>
      <trkpt lat="38.297821" lon="-6.437366">
        <ele>416.9</ele>
        <time>2011-04-02T14:16:51Z</time>
      </trkpt>
      <trkpt lat="38.297890" lon="-6.437296">
        <ele>417.4</ele>
        <time>2011-04-02T14:16:57Z</time>
      </trkpt>
      <trkpt lat="38.297916" lon="-6.437253">
        <ele>417.4</ele>
        <time>2011-04-02T14:17:02Z</time>
      </trkpt>
      <trkpt lat="38.297997" lon="-6.437214">
        <ele>416.9</ele>
        <time>2011-04-02T14:17:23Z</time>
      </trkpt>
      <trkpt lat="38.297997" lon="-6.437214">
        <ele>416.9</ele>
        <time>2011-04-02T14:18:02Z</time>
      </trkpt>
      <trkpt lat="38.298004" lon="-6.437182">
        <ele>416.4</ele>
        <time>2011-04-02T14:18:08Z</time>
      </trkpt>
      <trkpt lat="38.298100" lon="-6.437031">
        <ele>416.9</ele>
        <time>2011-04-02T14:18:25Z</time>
      </trkpt>
      <trkpt lat="38.298153" lon="-6.436904">
        <ele>417.4</ele>
        <time>2011-04-02T14:18:37Z</time>
      </trkpt>
      <trkpt lat="38.298161" lon="-6.436880">
        <ele>417.8</ele>
        <time>2011-04-02T14:18:40Z</time>
      </trkpt>
      <trkpt lat="38.298168" lon="-6.436858">
        <ele>417.8</ele>
        <time>2011-04-02T14:18:41Z</time>
      </trkpt>
      <trkpt lat="38.298203" lon="-6.436833">
        <ele>418.3</ele>
        <time>2011-04-02T14:18:45Z</time>
      </trkpt>
      <trkpt lat="38.298416" lon="-6.436742">
        <ele>418.3</ele>
        <time>2011-04-02T14:19:03Z</time>
      </trkpt>
      <trkpt lat="38.298588" lon="-6.436695">
        <ele>418.3</ele>
        <time>2011-04-02T14:19:15Z</time>
      </trkpt>
      <trkpt lat="38.298840" lon="-6.436663">
        <ele>418.3</ele>
        <time>2011-04-02T14:19:35Z</time>
      </trkpt>
      <trkpt lat="38.299007" lon="-6.436701">
        <ele>417.8</ele>
        <time>2011-04-02T14:19:49Z</time>
      </trkpt>
      <trkpt lat="38.299088" lon="-6.436718">
        <ele>417.8</ele>
        <time>2011-04-02T14:20:09Z</time>
      </trkpt>
      <trkpt lat="38.299099" lon="-6.436728">
        <ele>417.4</ele>
        <time>2011-04-02T14:20:38Z</time>
      </trkpt>
      <trkpt lat="38.299099" lon="-6.436729">
        <ele>416.4</ele>
        <time>2011-04-02T14:20:51Z</time>
      </trkpt>
      <trkpt lat="38.299145" lon="-6.436697">
        <ele>418.8</ele>
        <time>2011-04-02T14:44:07Z</time>
      </trkpt>
      <trkpt lat="38.299145" lon="-6.436693">
        <ele>418.3</ele>
        <time>2011-04-02T14:44:08Z</time>
      </trkpt>
      <trkpt lat="38.299198" lon="-6.436725">
        <ele>416.4</ele>
        <time>2011-04-02T14:44:14Z</time>
      </trkpt>
      <trkpt lat="38.299252" lon="-6.436762">
        <ele>413.5</ele>
        <time>2011-04-02T14:44:23Z</time>
      </trkpt>
      <trkpt lat="38.299252" lon="-6.436761">
        <ele>413.5</ele>
        <time>2011-04-02T14:44:24Z</time>
      </trkpt>
      <trkpt lat="38.299294" lon="-6.436833">
        <ele>411.6</ele>
        <time>2011-04-02T14:44:37Z</time>
      </trkpt>
      <trkpt lat="38.299374" lon="-6.436913">
        <ele>409.7</ele>
        <time>2011-04-02T14:44:47Z</time>
      </trkpt>
      <trkpt lat="38.299446" lon="-6.436987">
        <ele>408.7</ele>
        <time>2011-04-02T14:45:05Z</time>
      </trkpt>
      <trkpt lat="38.299438" lon="-6.436988">
        <ele>406.8</ele>
        <time>2011-04-02T14:45:08Z</time>
      </trkpt>
      <trkpt lat="38.299435" lon="-6.436989">
        <ele>409.7</ele>
        <time>2011-04-02T14:45:13Z</time>
      </trkpt>
      <trkpt lat="38.299435" lon="-6.436989">
        <ele>409.7</ele>
        <time>2011-04-02T14:45:13Z</time>
      </trkpt>
      <trkpt lat="38.299465" lon="-6.436961">
        <ele>409.7</ele>
        <time>2011-04-02T14:45:48Z</time>
      </trkpt>
      <trkpt lat="38.299469" lon="-6.437000">
        <ele>409.7</ele>
        <time>2011-04-02T14:46:00Z</time>
      </trkpt>
      <trkpt lat="38.299618" lon="-6.437224">
        <ele>408.7</ele>
        <time>2011-04-02T14:46:19Z</time>
      </trkpt>
      <trkpt lat="38.299664" lon="-6.437284">
        <ele>409.2</ele>
        <time>2011-04-02T14:46:25Z</time>
      </trkpt>
      <trkpt lat="38.299686" lon="-6.437319">
        <ele>409.2</ele>
        <time>2011-04-02T14:46:27Z</time>
      </trkpt>
      <trkpt lat="38.299736" lon="-6.437368">
        <ele>409.2</ele>
        <time>2011-04-02T14:46:34Z</time>
      </trkpt>
      <trkpt lat="38.299759" lon="-6.437379">
        <ele>409.2</ele>
        <time>2011-04-02T14:46:35Z</time>
      </trkpt>
      <trkpt lat="38.299828" lon="-6.437541">
        <ele>409.2</ele>
        <time>2011-04-02T14:46:48Z</time>
      </trkpt>
      <trkpt lat="38.299824" lon="-6.437608">
        <ele>408.7</ele>
        <time>2011-04-02T14:46:53Z</time>
      </trkpt>
      <trkpt lat="38.299828" lon="-6.437667">
        <ele>408.7</ele>
        <time>2011-04-02T14:47:01Z</time>
      </trkpt>
      <trkpt lat="38.299839" lon="-6.437743">
        <ele>407.7</ele>
        <time>2011-04-02T14:47:06Z</time>
      </trkpt>
      <trkpt lat="38.299873" lon="-6.438035">
        <ele>406.3</ele>
        <time>2011-04-02T14:47:24Z</time>
      </trkpt>
      <trkpt lat="38.299908" lon="-6.438189">
        <ele>406.3</ele>
        <time>2011-04-02T14:47:35Z</time>
      </trkpt>
      <trkpt lat="38.299950" lon="-6.438325">
        <ele>407.3</ele>
        <time>2011-04-02T14:47:43Z</time>
      </trkpt>
      <trkpt lat="38.299988" lon="-6.438485">
        <ele>406.8</ele>
        <time>2011-04-02T14:47:54Z</time>
      </trkpt>
      <trkpt lat="38.300007" lon="-6.438671">
        <ele>406.8</ele>
        <time>2011-04-02T14:48:13Z</time>
      </trkpt>
      <trkpt lat="38.300034" lon="-6.438922">
        <ele>405.8</ele>
        <time>2011-04-02T14:48:29Z</time>
      </trkpt>
      <trkpt lat="38.300045" lon="-6.438959">
        <ele>406.8</ele>
        <time>2011-04-02T14:48:32Z</time>
      </trkpt>
      <trkpt lat="38.300060" lon="-6.439044">
        <ele>405.8</ele>
        <time>2011-04-02T14:48:37Z</time>
      </trkpt>
      <trkpt lat="38.300095" lon="-6.439341">
        <ele>406.3</ele>
        <time>2011-04-02T14:48:56Z</time>
      </trkpt>
      <trkpt lat="38.300159" lon="-6.439620">
        <ele>406.3</ele>
        <time>2011-04-02T14:49:13Z</time>
      </trkpt>
      <trkpt lat="38.300159" lon="-6.439634">
        <ele>405.8</ele>
        <time>2011-04-02T14:49:15Z</time>
      </trkpt>
      <trkpt lat="38.300163" lon="-6.439672">
        <ele>406.3</ele>
        <time>2011-04-02T14:49:17Z</time>
      </trkpt>
      <trkpt lat="38.300167" lon="-6.439740">
        <ele>405.8</ele>
        <time>2011-04-02T14:49:23Z</time>
      </trkpt>
      <trkpt lat="38.300179" lon="-6.439834">
        <ele>405.3</ele>
        <time>2011-04-02T14:49:31Z</time>
      </trkpt>
      <trkpt lat="38.300228" lon="-6.439913">
        <ele>405.3</ele>
        <time>2011-04-02T14:49:39Z</time>
      </trkpt>
      <trkpt lat="38.300232" lon="-6.439984">
        <ele>406.3</ele>
        <time>2011-04-02T14:49:51Z</time>
      </trkpt>
      <trkpt lat="38.300240" lon="-6.440027">
        <ele>405.8</ele>
        <time>2011-04-02T14:49:58Z</time>
      </trkpt>
      <trkpt lat="38.300201" lon="-6.440258">
        <ele>404.8</ele>
        <time>2011-04-02T14:50:15Z</time>
      </trkpt>
      <trkpt lat="38.300156" lon="-6.440346">
        <ele>403.9</ele>
        <time>2011-04-02T14:50:22Z</time>
      </trkpt>
      <trkpt lat="38.300137" lon="-6.440526">
        <ele>403.4</ele>
        <time>2011-04-02T14:50:34Z</time>
      </trkpt>
      <trkpt lat="38.300129" lon="-6.440571">
        <ele>403.4</ele>
        <time>2011-04-02T14:50:37Z</time>
      </trkpt>
      <trkpt lat="38.300148" lon="-6.440736">
        <ele>402.9</ele>
        <time>2011-04-02T14:50:52Z</time>
      </trkpt>
      <trkpt lat="38.300159" lon="-6.440774">
        <ele>402.5</ele>
        <time>2011-04-02T14:50:55Z</time>
      </trkpt>
      <trkpt lat="38.300179" lon="-6.440981">
        <ele>402.9</ele>
        <time>2011-04-02T14:51:12Z</time>
      </trkpt>
      <trkpt lat="38.300167" lon="-6.441000">
        <ele>401.0</ele>
        <time>2011-04-02T14:51:15Z</time>
      </trkpt>
      <trkpt lat="38.300163" lon="-6.441037">
        <ele>403.4</ele>
        <time>2011-04-02T14:51:19Z</time>
      </trkpt>
      <trkpt lat="38.300182" lon="-6.441119">
        <ele>403.4</ele>
        <time>2011-04-02T14:51:27Z</time>
      </trkpt>
      <trkpt lat="38.300217" lon="-6.441285">
        <ele>403.4</ele>
        <time>2011-04-02T14:51:42Z</time>
      </trkpt>
      <trkpt lat="38.300232" lon="-6.441318">
        <ele>402.9</ele>
        <time>2011-04-02T14:51:45Z</time>
      </trkpt>
      <trkpt lat="38.300335" lon="-6.441488">
        <ele>404.4</ele>
        <time>2011-04-02T14:52:02Z</time>
      </trkpt>
      <trkpt lat="38.300346" lon="-6.441528">
        <ele>404.4</ele>
        <time>2011-04-02T14:52:05Z</time>
      </trkpt>
      <trkpt lat="38.300381" lon="-6.441860">
        <ele>404.8</ele>
        <time>2011-04-02T14:52:26Z</time>
      </trkpt>
      <trkpt lat="38.300365" lon="-6.441981">
        <ele>404.4</ele>
        <time>2011-04-02T14:52:35Z</time>
      </trkpt>
      <trkpt lat="38.300381" lon="-6.442240">
        <ele>403.4</ele>
        <time>2011-04-02T14:52:52Z</time>
      </trkpt>
      <trkpt lat="38.300415" lon="-6.442283">
        <ele>403.4</ele>
        <time>2011-04-02T14:52:57Z</time>
      </trkpt>
      <trkpt lat="38.300446" lon="-6.442389">
        <ele>403.9</ele>
        <time>2011-04-02T14:53:04Z</time>
      </trkpt>
      <trkpt lat="38.300652" lon="-6.442655">
        <ele>404.4</ele>
        <time>2011-04-02T14:53:30Z</time>
      </trkpt>
      <trkpt lat="38.300716" lon="-6.442849">
        <ele>403.4</ele>
        <time>2011-04-02T14:53:49Z</time>
      </trkpt>
      <trkpt lat="38.300716" lon="-6.442852">
        <ele>403.4</ele>
        <time>2011-04-02T14:54:17Z</time>
      </trkpt>
      <trkpt lat="38.300724" lon="-6.442852">
        <ele>402.9</ele>
        <time>2011-04-02T14:54:18Z</time>
      </trkpt>
      <trkpt lat="38.300785" lon="-6.442887">
        <ele>402.9</ele>
        <time>2011-04-02T14:54:25Z</time>
      </trkpt>
      <trkpt lat="38.300903" lon="-6.442991">
        <ele>402.5</ele>
        <time>2011-04-02T14:54:43Z</time>
      </trkpt>
      <trkpt lat="38.300903" lon="-6.442991">
        <ele>402.5</ele>
        <time>2011-04-02T14:54:48Z</time>
      </trkpt>
      <trkpt lat="38.301151" lon="-6.443158">
        <ele>402.5</ele>
        <time>2011-04-02T14:55:08Z</time>
      </trkpt>
      <trkpt lat="38.301270" lon="-6.443347">
        <ele>402.5</ele>
        <time>2011-04-02T14:55:23Z</time>
      </trkpt>
      <trkpt lat="38.301289" lon="-6.443366">
        <ele>401.5</ele>
        <time>2011-04-02T14:55:26Z</time>
      </trkpt>
      <trkpt lat="38.301350" lon="-6.443445">
        <ele>401.5</ele>
        <time>2011-04-02T14:55:33Z</time>
      </trkpt>
      <trkpt lat="38.301426" lon="-6.443537">
        <ele>401.5</ele>
        <time>2011-04-02T14:55:41Z</time>
      </trkpt>
      <trkpt lat="38.301525" lon="-6.443656">
        <ele>402.0</ele>
        <time>2011-04-02T14:55:50Z</time>
      </trkpt>
      <trkpt lat="38.301609" lon="-6.443719">
        <ele>401.5</ele>
        <time>2011-04-02T14:55:57Z</time>
      </trkpt>
      <trkpt lat="38.301765" lon="-6.443789">
        <ele>401.5</ele>
        <time>2011-04-02T14:56:13Z</time>
      </trkpt>
      <trkpt lat="38.301876" lon="-6.443829">
        <ele>402.0</ele>
        <time>2011-04-02T14:56:23Z</time>
      </trkpt>
      <trkpt lat="38.302101" lon="-6.443965">
        <ele>401.5</ele>
        <time>2011-04-02T14:56:43Z</time>
      </trkpt>
      <trkpt lat="38.302296" lon="-6.444200">
        <ele>401.0</ele>
        <time>2011-04-02T14:57:03Z</time>
      </trkpt>
      <trkpt lat="38.302319" lon="-6.444234">
        <ele>401.0</ele>
        <time>2011-04-02T14:57:07Z</time>
      </trkpt>
      <trkpt lat="38.302387" lon="-6.444358">
        <ele>401.5</ele>
        <time>2011-04-02T14:57:18Z</time>
      </trkpt>
      <trkpt lat="38.302425" lon="-6.444394">
        <ele>401.5</ele>
        <time>2011-04-02T14:57:22Z</time>
      </trkpt>
      <trkpt lat="38.302551" lon="-6.444620">
        <ele>401.5</ele>
        <time>2011-04-02T14:57:41Z</time>
      </trkpt>
      <trkpt lat="38.302616" lon="-6.444681">
        <ele>402.0</ele>
        <time>2011-04-02T14:57:46Z</time>
      </trkpt>
      <trkpt lat="38.302647" lon="-6.444697">
        <ele>402.0</ele>
        <time>2011-04-02T14:57:49Z</time>
      </trkpt>
      <trkpt lat="38.302792" lon="-6.444911">
        <ele>402.0</ele>
        <time>2011-04-02T14:58:08Z</time>
      </trkpt>
      <trkpt lat="38.302776" lon="-6.445158">
        <ele>401.0</ele>
        <time>2011-04-02T14:58:24Z</time>
      </trkpt>
      <trkpt lat="38.302834" lon="-6.445440">
        <ele>400.5</ele>
        <time>2011-04-02T14:58:43Z</time>
      </trkpt>
      <trkpt lat="38.302898" lon="-6.445576">
        <ele>400.5</ele>
        <time>2011-04-02T14:59:01Z</time>
      </trkpt>
      <trkpt lat="38.302979" lon="-6.445910">
        <ele>400.0</ele>
        <time>2011-04-02T14:59:22Z</time>
      </trkpt>
      <trkpt lat="38.303020" lon="-6.446044">
        <ele>400.5</ele>
        <time>2011-04-02T14:59:40Z</time>
      </trkpt>
      <trkpt lat="38.303123" lon="-6.446245">
        <ele>400.0</ele>
        <time>2011-04-02T14:59:57Z</time>
      </trkpt>
      <trkpt lat="38.303268" lon="-6.446457">
        <ele>400.5</ele>
        <time>2011-04-02T15:00:16Z</time>
      </trkpt>
      <trkpt lat="38.303326" lon="-6.446559">
        <ele>400.0</ele>
        <time>2011-04-02T15:00:24Z</time>
      </trkpt>
      <trkpt lat="38.303406" lon="-6.446695">
        <ele>399.6</ele>
        <time>2011-04-02T15:00:36Z</time>
      </trkpt>
      <trkpt lat="38.303436" lon="-6.447039">
        <ele>401.0</ele>
        <time>2011-04-02T15:00:58Z</time>
      </trkpt>
      <trkpt lat="38.303448" lon="-6.447175">
        <ele>400.5</ele>
        <time>2011-04-02T15:01:06Z</time>
      </trkpt>
      <trkpt lat="38.303459" lon="-6.447270">
        <ele>400.0</ele>
        <time>2011-04-02T15:01:13Z</time>
      </trkpt>
      <trkpt lat="38.303543" lon="-6.447618">
        <ele>400.5</ele>
        <time>2011-04-02T15:01:35Z</time>
      </trkpt>
      <trkpt lat="38.303535" lon="-6.447702">
        <ele>400.5</ele>
        <time>2011-04-02T15:01:40Z</time>
      </trkpt>
      <trkpt lat="38.303516" lon="-6.447929">
        <ele>400.0</ele>
        <time>2011-04-02T15:01:53Z</time>
      </trkpt>
      <trkpt lat="38.303524" lon="-6.448032">
        <ele>400.0</ele>
        <time>2011-04-02T15:02:00Z</time>
      </trkpt>
      <trkpt lat="38.303516" lon="-6.448089">
        <ele>400.5</ele>
        <time>2011-04-02T15:02:04Z</time>
      </trkpt>
      <trkpt lat="38.303528" lon="-6.448395">
        <ele>399.6</ele>
        <time>2011-04-02T15:02:23Z</time>
      </trkpt>
      <trkpt lat="38.303558" lon="-6.448634">
        <ele>400.0</ele>
        <time>2011-04-02T15:02:42Z</time>
      </trkpt>
      <trkpt lat="38.303577" lon="-6.448672">
        <ele>400.0</ele>
        <time>2011-04-02T15:02:45Z</time>
      </trkpt>
      <trkpt lat="38.303612" lon="-6.448787">
        <ele>401.0</ele>
        <time>2011-04-02T15:02:53Z</time>
      </trkpt>
      <trkpt lat="38.303635" lon="-6.448858">
        <ele>400.5</ele>
        <time>2011-04-02T15:02:58Z</time>
      </trkpt>
      <trkpt lat="38.303654" lon="-6.449017">
        <ele>400.5</ele>
        <time>2011-04-02T15:03:09Z</time>
      </trkpt>
      <trkpt lat="38.303574" lon="-6.449216">
        <ele>399.1</ele>
        <time>2011-04-02T15:06:17Z</time>
      </trkpt>
      <trkpt lat="38.303566" lon="-6.449229">
        <ele>398.6</ele>
        <time>2011-04-02T15:06:37Z</time>
      </trkpt>
      <trkpt lat="38.303574" lon="-6.449276">
        <ele>398.6</ele>
        <time>2011-04-02T15:06:41Z</time>
      </trkpt>
      <trkpt lat="38.303555" lon="-6.449438">
        <ele>397.6</ele>
        <time>2011-04-02T15:06:52Z</time>
      </trkpt>
      <trkpt lat="38.303516" lon="-6.449641">
        <ele>396.2</ele>
        <time>2011-04-02T15:07:05Z</time>
      </trkpt>
      <trkpt lat="38.303558" lon="-6.449913">
        <ele>395.7</ele>
        <time>2011-04-02T15:07:23Z</time>
      </trkpt>
      <trkpt lat="38.303570" lon="-6.450005">
        <ele>395.2</ele>
        <time>2011-04-02T15:07:28Z</time>
      </trkpt>
      <trkpt lat="38.303574" lon="-6.450118">
        <ele>395.7</ele>
        <time>2011-04-02T15:07:36Z</time>
      </trkpt>
      <trkpt lat="38.303589" lon="-6.450366">
        <ele>395.7</ele>
        <time>2011-04-02T15:07:53Z</time>
      </trkpt>
      <trkpt lat="38.303585" lon="-6.450413">
        <ele>395.7</ele>
        <time>2011-04-02T15:07:55Z</time>
      </trkpt>
      <trkpt lat="38.303722" lon="-6.450740">
        <ele>394.3</ele>
        <time>2011-04-02T15:08:18Z</time>
      </trkpt>
      <trkpt lat="38.303875" lon="-6.450913">
        <ele>394.3</ele>
        <time>2011-04-02T15:08:36Z</time>
      </trkpt>
      <trkpt lat="38.303970" lon="-6.450970">
        <ele>394.3</ele>
        <time>2011-04-02T15:08:51Z</time>
      </trkpt>
      <trkpt lat="38.303989" lon="-6.450979">
        <ele>394.7</ele>
        <time>2011-04-02T15:08:52Z</time>
      </trkpt>
      <trkpt lat="38.304050" lon="-6.450974">
        <ele>394.7</ele>
        <time>2011-04-02T15:08:57Z</time>
      </trkpt>
      <trkpt lat="38.304253" lon="-6.450991">
        <ele>397.2</ele>
        <time>2011-04-02T15:09:16Z</time>
      </trkpt>
      <trkpt lat="38.304260" lon="-6.450999">
        <ele>397.2</ele>
        <time>2011-04-02T15:09:18Z</time>
      </trkpt>
      <trkpt lat="38.304371" lon="-6.451152">
        <ele>397.6</ele>
        <time>2011-04-02T15:09:35Z</time>
      </trkpt>
      <trkpt lat="38.304382" lon="-6.451191">
        <ele>397.6</ele>
        <time>2011-04-02T15:09:54Z</time>
      </trkpt>
      <trkpt lat="38.304382" lon="-6.451187">
        <ele>398.1</ele>
        <time>2011-04-02T15:10:14Z</time>
      </trkpt>
      <trkpt lat="38.304379" lon="-6.451193">
        <ele>397.6</ele>
        <time>2011-04-02T15:10:21Z</time>
      </trkpt>
      <trkpt lat="38.304371" lon="-6.451281">
        <ele>398.1</ele>
        <time>2011-04-02T15:10:30Z</time>
      </trkpt>
      <trkpt lat="38.304417" lon="-6.451464">
        <ele>400.0</ele>
        <time>2011-04-02T15:10:48Z</time>
      </trkpt>
      <trkpt lat="38.304432" lon="-6.451516">
        <ele>400.0</ele>
        <time>2011-04-02T15:10:52Z</time>
      </trkpt>
      <trkpt lat="38.304436" lon="-6.451539">
        <ele>400.0</ele>
        <time>2011-04-02T15:10:55Z</time>
      </trkpt>
      <trkpt lat="38.304466" lon="-6.451591">
        <ele>399.6</ele>
        <time>2011-04-02T15:11:00Z</time>
      </trkpt>
      <trkpt lat="38.304478" lon="-6.451787">
        <ele>398.6</ele>
        <time>2011-04-02T15:11:19Z</time>
      </trkpt>
      <trkpt lat="38.304485" lon="-6.451872">
        <ele>398.1</ele>
        <time>2011-04-02T15:11:35Z</time>
      </trkpt>
      <trkpt lat="38.304489" lon="-6.451926">
        <ele>397.6</ele>
        <time>2011-04-02T15:11:39Z</time>
      </trkpt>
      <trkpt lat="38.304546" lon="-6.452276">
        <ele>395.2</ele>
        <time>2011-04-02T15:12:01Z</time>
      </trkpt>
      <trkpt lat="38.304550" lon="-6.452302">
        <ele>394.7</ele>
        <time>2011-04-02T15:12:02Z</time>
      </trkpt>
      <trkpt lat="38.304680" lon="-6.452537">
        <ele>394.3</ele>
        <time>2011-04-02T15:12:21Z</time>
      </trkpt>
      <trkpt lat="38.304699" lon="-6.452583">
        <ele>393.8</ele>
        <time>2011-04-02T15:12:27Z</time>
      </trkpt>
      <trkpt lat="38.304855" lon="-6.452867">
        <ele>392.8</ele>
        <time>2011-04-02T15:12:48Z</time>
      </trkpt>
      <trkpt lat="38.305016" lon="-6.453148">
        <ele>393.3</ele>
        <time>2011-04-02T15:13:10Z</time>
      </trkpt>
      <trkpt lat="38.305164" lon="-6.453423">
        <ele>392.8</ele>
        <time>2011-04-02T15:13:30Z</time>
      </trkpt>
      <trkpt lat="38.305309" lon="-6.453708">
        <ele>392.4</ele>
        <time>2011-04-02T15:13:49Z</time>
      </trkpt>
      <trkpt lat="38.305397" lon="-6.453982">
        <ele>391.9</ele>
        <time>2011-04-02T15:14:08Z</time>
      </trkpt>
      <trkpt lat="38.305470" lon="-6.454329">
        <ele>391.9</ele>
        <time>2011-04-02T15:14:29Z</time>
      </trkpt>
      <trkpt lat="38.305519" lon="-6.454638">
        <ele>390.0</ele>
        <time>2011-04-02T15:14:48Z</time>
      </trkpt>
      <trkpt lat="38.305527" lon="-6.454710">
        <ele>390.4</ele>
        <time>2011-04-02T15:14:54Z</time>
      </trkpt>
      <trkpt lat="38.305527" lon="-6.454810">
        <ele>390.9</ele>
        <time>2011-04-02T15:14:59Z</time>
      </trkpt>
      <trkpt lat="38.305527" lon="-6.454875">
        <ele>390.4</ele>
        <time>2011-04-02T15:15:03Z</time>
      </trkpt>
      <trkpt lat="38.305569" lon="-6.455194">
        <ele>390.9</ele>
        <time>2011-04-02T15:15:25Z</time>
      </trkpt>
      <trkpt lat="38.305561" lon="-6.455266">
        <ele>390.9</ele>
        <time>2011-04-02T15:15:45Z</time>
      </trkpt>
      <trkpt lat="38.305569" lon="-6.455470">
        <ele>390.9</ele>
        <time>2011-04-02T15:16:01Z</time>
      </trkpt>
      <trkpt lat="38.305504" lon="-6.455669">
        <ele>390.9</ele>
        <time>2011-04-02T15:16:20Z</time>
      </trkpt>
      <trkpt lat="38.305378" lon="-6.455981">
        <ele>390.4</ele>
        <time>2011-04-02T15:16:42Z</time>
      </trkpt>
      <trkpt lat="38.305340" lon="-6.456177">
        <ele>390.9</ele>
        <time>2011-04-02T15:16:53Z</time>
      </trkpt>
      <trkpt lat="38.305313" lon="-6.456249">
        <ele>390.9</ele>
        <time>2011-04-02T15:16:58Z</time>
      </trkpt>
      <trkpt lat="38.305294" lon="-6.456318">
        <ele>390.4</ele>
        <time>2011-04-02T15:17:02Z</time>
      </trkpt>
      <trkpt lat="38.305267" lon="-6.456453">
        <ele>390.4</ele>
        <time>2011-04-02T15:17:10Z</time>
      </trkpt>
      <trkpt lat="38.305210" lon="-6.456716">
        <ele>390.4</ele>
        <time>2011-04-02T15:17:29Z</time>
      </trkpt>
      <trkpt lat="38.305202" lon="-6.456848">
        <ele>390.4</ele>
        <time>2011-04-02T15:17:37Z</time>
      </trkpt>
      <trkpt lat="38.305214" lon="-6.457035">
        <ele>390.0</ele>
        <time>2011-04-02T15:17:51Z</time>
      </trkpt>
      <trkpt lat="38.305241" lon="-6.457176">
        <ele>390.0</ele>
        <time>2011-04-02T15:18:00Z</time>
      </trkpt>
      <trkpt lat="38.305290" lon="-6.457344">
        <ele>390.0</ele>
        <time>2011-04-02T15:18:12Z</time>
      </trkpt>
      <trkpt lat="38.305504" lon="-6.457485">
        <ele>389.0</ele>
        <time>2011-04-02T15:18:34Z</time>
      </trkpt>
      <trkpt lat="38.305511" lon="-6.457490">
        <ele>389.0</ele>
        <time>2011-04-02T15:18:35Z</time>
      </trkpt>
      <trkpt lat="38.305618" lon="-6.457537">
        <ele>388.0</ele>
        <time>2011-04-02T15:18:43Z</time>
      </trkpt>
      <trkpt lat="38.305653" lon="-6.457561">
        <ele>387.6</ele>
        <time>2011-04-02T15:18:47Z</time>
      </trkpt>
      <trkpt lat="38.305763" lon="-6.457626">
        <ele>388.5</ele>
        <time>2011-04-02T15:19:08Z</time>
      </trkpt>
      <trkpt lat="38.305763" lon="-6.457626">
        <ele>386.6</ele>
        <time>2011-04-02T15:19:29Z</time>
      </trkpt>
      <trkpt lat="38.305779" lon="-6.457613">
        <ele>389.0</ele>
        <time>2011-04-02T15:19:56Z</time>
      </trkpt>
      <trkpt lat="38.305862" lon="-6.457672">
        <ele>389.5</ele>
        <time>2011-04-02T15:20:07Z</time>
      </trkpt>
      <trkpt lat="38.306065" lon="-6.457806">
        <ele>389.0</ele>
        <time>2011-04-02T15:20:26Z</time>
      </trkpt>
      <trkpt lat="38.306118" lon="-6.457832">
        <ele>389.0</ele>
        <time>2011-04-02T15:20:31Z</time>
      </trkpt>
      <trkpt lat="38.306171" lon="-6.457912">
        <ele>388.0</ele>
        <time>2011-04-02T15:20:37Z</time>
      </trkpt>
      <trkpt lat="38.306416" lon="-6.458053">
        <ele>387.6</ele>
        <time>2011-04-02T15:20:58Z</time>
      </trkpt>
      <trkpt lat="38.306503" lon="-6.458117">
        <ele>387.6</ele>
        <time>2011-04-02T15:21:05Z</time>
      </trkpt>
      <trkpt lat="38.306683" lon="-6.458332">
        <ele>387.1</ele>
        <time>2011-04-02T15:21:24Z</time>
      </trkpt>
      <trkpt lat="38.306747" lon="-6.458431">
        <ele>387.6</ele>
        <time>2011-04-02T15:21:32Z</time>
      </trkpt>
      <trkpt lat="38.306774" lon="-6.458505">
        <ele>387.1</ele>
        <time>2011-04-02T15:21:36Z</time>
      </trkpt>
      <trkpt lat="38.306793" lon="-6.458528">
        <ele>388.5</ele>
        <time>2011-04-02T15:21:40Z</time>
      </trkpt>
      <trkpt lat="38.306824" lon="-6.458623">
        <ele>388.5</ele>
        <time>2011-04-02T15:21:52Z</time>
      </trkpt>
      <trkpt lat="38.306858" lon="-6.458690">
        <ele>389.0</ele>
        <time>2011-04-02T15:21:58Z</time>
      </trkpt>
      <trkpt lat="38.306976" lon="-6.459005">
        <ele>388.0</ele>
        <time>2011-04-02T15:22:19Z</time>
      </trkpt>
      <trkpt lat="38.307007" lon="-6.459095">
        <ele>388.5</ele>
        <time>2011-04-02T15:22:25Z</time>
      </trkpt>
      <trkpt lat="38.307110" lon="-6.459382">
        <ele>387.6</ele>
        <time>2011-04-02T15:22:44Z</time>
      </trkpt>
      <trkpt lat="38.307236" lon="-6.459650">
        <ele>388.0</ele>
        <time>2011-04-02T15:23:02Z</time>
      </trkpt>
      <trkpt lat="38.307240" lon="-6.459674">
        <ele>388.0</ele>
        <time>2011-04-02T15:23:05Z</time>
      </trkpt>
      <trkpt lat="38.307243" lon="-6.459716">
        <ele>388.0</ele>
        <time>2011-04-02T15:23:08Z</time>
      </trkpt>
      <trkpt lat="38.307274" lon="-6.459970">
        <ele>389.0</ele>
        <time>2011-04-02T15:23:27Z</time>
      </trkpt>
      <trkpt lat="38.307274" lon="-6.459988">
        <ele>389.0</ele>
        <time>2011-04-02T15:23:28Z</time>
      </trkpt>
      <trkpt lat="38.307228" lon="-6.460365">
        <ele>386.6</ele>
        <time>2011-04-02T15:23:51Z</time>
      </trkpt>
      <trkpt lat="38.307224" lon="-6.460381">
        <ele>386.6</ele>
        <time>2011-04-02T15:23:51Z</time>
      </trkpt>
      <trkpt lat="38.307270" lon="-6.460701">
        <ele>388.0</ele>
        <time>2011-04-02T15:24:11Z</time>
      </trkpt>
      <trkpt lat="38.307270" lon="-6.460731">
        <ele>387.6</ele>
        <time>2011-04-02T15:24:14Z</time>
      </trkpt>
      <trkpt lat="38.307289" lon="-6.460769">
        <ele>387.6</ele>
        <time>2011-04-02T15:24:17Z</time>
      </trkpt>
      <trkpt lat="38.307301" lon="-6.460852">
        <ele>386.6</ele>
        <time>2011-04-02T15:24:22Z</time>
      </trkpt>
      <trkpt lat="38.307339" lon="-6.461174">
        <ele>386.6</ele>
        <time>2011-04-02T15:24:41Z</time>
      </trkpt>
      <trkpt lat="38.307365" lon="-6.461348">
        <ele>386.6</ele>
        <time>2011-04-02T15:24:53Z</time>
      </trkpt>
      <trkpt lat="38.307373" lon="-6.461406">
        <ele>386.1</ele>
        <time>2011-04-02T15:24:57Z</time>
      </trkpt>
      <trkpt lat="38.307384" lon="-6.461470">
        <ele>386.6</ele>
        <time>2011-04-02T15:25:01Z</time>
      </trkpt>
      <trkpt lat="38.307396" lon="-6.461548">
        <ele>386.1</ele>
        <time>2011-04-02T15:25:07Z</time>
      </trkpt>
      <trkpt lat="38.307407" lon="-6.461662">
        <ele>386.1</ele>
        <time>2011-04-02T15:25:13Z</time>
      </trkpt>
      <trkpt lat="38.307465" lon="-6.462018">
        <ele>386.6</ele>
        <time>2011-04-02T15:25:35Z</time>
      </trkpt>
      <trkpt lat="38.307461" lon="-6.462330">
        <ele>385.1</ele>
        <time>2011-04-02T15:25:55Z</time>
      </trkpt>
      <trkpt lat="38.307453" lon="-6.462389">
        <ele>385.6</ele>
        <time>2011-04-02T15:25:58Z</time>
      </trkpt>
      <trkpt lat="38.307480" lon="-6.462710">
        <ele>385.6</ele>
        <time>2011-04-02T15:26:20Z</time>
      </trkpt>
      <trkpt lat="38.307495" lon="-6.462766">
        <ele>385.1</ele>
        <time>2011-04-02T15:26:24Z</time>
      </trkpt>
      <trkpt lat="38.307499" lon="-6.462827">
        <ele>385.1</ele>
        <time>2011-04-02T15:26:28Z</time>
      </trkpt>
      <trkpt lat="38.307518" lon="-6.462889">
        <ele>385.1</ele>
        <time>2011-04-02T15:26:33Z</time>
      </trkpt>
      <trkpt lat="38.307484" lon="-6.463239">
        <ele>385.1</ele>
        <time>2011-04-02T15:26:53Z</time>
      </trkpt>
      <trkpt lat="38.307354" lon="-6.463485">
        <ele>385.1</ele>
        <time>2011-04-02T15:27:14Z</time>
      </trkpt>
      <trkpt lat="38.307182" lon="-6.463742">
        <ele>385.1</ele>
        <time>2011-04-02T15:27:35Z</time>
      </trkpt>
      <trkpt lat="38.307152" lon="-6.463798">
        <ele>385.1</ele>
        <time>2011-04-02T15:27:39Z</time>
      </trkpt>
      <trkpt lat="38.307076" lon="-6.463986">
        <ele>385.6</ele>
        <time>2011-04-02T15:27:54Z</time>
      </trkpt>
      <trkpt lat="38.307045" lon="-6.464054">
        <ele>386.1</ele>
        <time>2011-04-02T15:27:59Z</time>
      </trkpt>
      <trkpt lat="38.306858" lon="-6.464347">
        <ele>385.6</ele>
        <time>2011-04-02T15:28:21Z</time>
      </trkpt>
      <trkpt lat="38.306702" lon="-6.464437">
        <ele>386.1</ele>
        <time>2011-04-02T15:28:35Z</time>
      </trkpt>
      <trkpt lat="38.306458" lon="-6.464587">
        <ele>386.1</ele>
        <time>2011-04-02T15:28:56Z</time>
      </trkpt>
      <trkpt lat="38.306313" lon="-6.464730">
        <ele>385.1</ele>
        <time>2011-04-02T15:29:11Z</time>
      </trkpt>
      <trkpt lat="38.306255" lon="-6.464746">
        <ele>385.1</ele>
        <time>2011-04-02T15:29:19Z</time>
      </trkpt>
      <trkpt lat="38.306217" lon="-6.464758">
        <ele>384.2</ele>
        <time>2011-04-02T15:29:34Z</time>
      </trkpt>
      <trkpt lat="38.306190" lon="-6.464808">
        <ele>383.7</ele>
        <time>2011-04-02T15:29:38Z</time>
      </trkpt>
      <trkpt lat="38.306160" lon="-6.464860">
        <ele>383.7</ele>
        <time>2011-04-02T15:29:42Z</time>
      </trkpt>
      <trkpt lat="38.306129" lon="-6.464918">
        <ele>383.7</ele>
        <time>2011-04-02T15:29:47Z</time>
      </trkpt>
      <trkpt lat="38.306126" lon="-6.464949">
        <ele>383.7</ele>
        <time>2011-04-02T15:30:08Z</time>
      </trkpt>
      <trkpt lat="38.306007" lon="-6.465091">
        <ele>384.2</ele>
        <time>2011-04-02T15:30:28Z</time>
      </trkpt>
      <trkpt lat="38.305946" lon="-6.465153">
        <ele>383.7</ele>
        <time>2011-04-02T15:30:35Z</time>
      </trkpt>
      <trkpt lat="38.305843" lon="-6.465432">
        <ele>383.7</ele>
        <time>2011-04-02T15:30:55Z</time>
      </trkpt>
      <trkpt lat="38.305824" lon="-6.465481">
        <ele>384.2</ele>
        <time>2011-04-02T15:31:00Z</time>
      </trkpt>
      <trkpt lat="38.305775" lon="-6.465791">
        <ele>384.7</ele>
        <time>2011-04-02T15:31:22Z</time>
      </trkpt>
      <trkpt lat="38.305759" lon="-6.466136">
        <ele>383.7</ele>
        <time>2011-04-02T15:31:42Z</time>
      </trkpt>
      <trkpt lat="38.305767" lon="-6.466357">
        <ele>383.7</ele>
        <time>2011-04-02T15:31:57Z</time>
      </trkpt>
      <trkpt lat="38.305767" lon="-6.466578">
        <ele>383.7</ele>
        <time>2011-04-02T15:32:11Z</time>
      </trkpt>
      <trkpt lat="38.305820" lon="-6.466883">
        <ele>383.2</ele>
        <time>2011-04-02T15:32:31Z</time>
      </trkpt>
      <trkpt lat="38.305840" lon="-6.467107">
        <ele>383.2</ele>
        <time>2011-04-02T15:32:51Z</time>
      </trkpt>
      <trkpt lat="38.305866" lon="-6.467439">
        <ele>382.7</ele>
        <time>2011-04-02T15:33:10Z</time>
      </trkpt>
      <trkpt lat="38.305935" lon="-6.467783">
        <ele>383.2</ele>
        <time>2011-04-02T15:33:32Z</time>
      </trkpt>
      <trkpt lat="38.305969" lon="-6.468085">
        <ele>382.7</ele>
        <time>2011-04-02T15:33:50Z</time>
      </trkpt>
      <trkpt lat="38.305969" lon="-6.468102">
        <ele>382.7</ele>
        <time>2011-04-02T15:33:52Z</time>
      </trkpt>
      <trkpt lat="38.306026" lon="-6.468424">
        <ele>383.2</ele>
        <time>2011-04-02T15:34:12Z</time>
      </trkpt>
      <trkpt lat="38.306038" lon="-6.468498">
        <ele>381.8</ele>
        <time>2011-04-02T15:34:16Z</time>
      </trkpt>
      <trkpt lat="38.306076" lon="-6.468621">
        <ele>383.7</ele>
        <time>2011-04-02T15:34:35Z</time>
      </trkpt>
      <trkpt lat="38.306076" lon="-6.468628">
        <ele>382.7</ele>
        <time>2011-04-02T15:34:58Z</time>
      </trkpt>
      <trkpt lat="38.306099" lon="-6.468683">
        <ele>381.3</ele>
        <time>2011-04-02T15:35:22Z</time>
      </trkpt>
      <trkpt lat="38.306118" lon="-6.468686">
        <ele>383.2</ele>
        <time>2011-04-02T15:35:45Z</time>
      </trkpt>
      <trkpt lat="38.306126" lon="-6.468681">
        <ele>383.2</ele>
        <time>2011-04-02T15:38:26Z</time>
      </trkpt>
      <trkpt lat="38.306126" lon="-6.468679">
        <ele>382.7</ele>
        <time>2011-04-02T15:38:42Z</time>
      </trkpt>
      <trkpt lat="38.306126" lon="-6.468679">
        <ele>383.2</ele>
        <time>2011-04-02T15:38:45Z</time>
      </trkpt>
      <trkpt lat="38.306149" lon="-6.468650">
        <ele>383.2</ele>
        <time>2011-04-02T15:38:47Z</time>
      </trkpt>
      <trkpt lat="38.306168" lon="-6.468568">
        <ele>383.7</ele>
        <time>2011-04-02T15:54:14Z</time>
      </trkpt>
      <trkpt lat="38.306168" lon="-6.468568">
        <ele>383.7</ele>
        <time>2011-04-02T15:54:15Z</time>
      </trkpt>
      <trkpt lat="38.306168" lon="-6.468568">
        <ele>383.7</ele>
        <time>2011-04-02T15:54:16Z</time>
      </trkpt>
      <trkpt lat="38.306194" lon="-6.468530">
        <ele>384.7</ele>
        <time>2011-04-02T15:54:23Z</time>
      </trkpt>
      <trkpt lat="38.306293" lon="-6.468311">
        <ele>384.7</ele>
        <time>2011-04-02T15:54:39Z</time>
      </trkpt>
      <trkpt lat="38.306297" lon="-6.468244">
        <ele>384.2</ele>
        <time>2011-04-02T15:54:43Z</time>
      </trkpt>
      <trkpt lat="38.306339" lon="-6.468151">
        <ele>384.2</ele>
        <time>2011-04-02T15:54:50Z</time>
      </trkpt>
      <trkpt lat="38.306438" lon="-6.467900">
        <ele>384.7</ele>
        <time>2011-04-02T15:55:09Z</time>
      </trkpt>
      <trkpt lat="38.306507" lon="-6.467770">
        <ele>383.7</ele>
        <time>2011-04-02T15:55:18Z</time>
      </trkpt>
      <trkpt lat="38.306549" lon="-6.467629">
        <ele>384.7</ele>
        <time>2011-04-02T15:55:37Z</time>
      </trkpt>
      <trkpt lat="38.306561" lon="-6.467585">
        <ele>384.7</ele>
        <time>2011-04-02T15:55:53Z</time>
      </trkpt>
      <trkpt lat="38.306595" lon="-6.467471">
        <ele>385.6</ele>
        <time>2011-04-02T15:56:14Z</time>
      </trkpt>
      <trkpt lat="38.306602" lon="-6.467433">
        <ele>385.6</ele>
        <time>2011-04-02T15:56:46Z</time>
      </trkpt>
      <trkpt lat="38.306606" lon="-6.467404">
        <ele>385.6</ele>
        <time>2011-04-02T15:56:47Z</time>
      </trkpt>
      <trkpt lat="38.306652" lon="-6.467209">
        <ele>385.6</ele>
        <time>2011-04-02T15:57:09Z</time>
      </trkpt>
      <trkpt lat="38.306705" lon="-6.467018">
        <ele>386.1</ele>
        <time>2011-04-02T15:57:31Z</time>
      </trkpt>
      <trkpt lat="38.306736" lon="-6.466855">
        <ele>383.2</ele>
        <time>2011-04-02T15:57:40Z</time>
      </trkpt>
      <trkpt lat="38.306751" lon="-6.466805">
        <ele>385.6</ele>
        <time>2011-04-02T15:57:44Z</time>
      </trkpt>
      <trkpt lat="38.306759" lon="-6.466797">
        <ele>386.1</ele>
        <time>2011-04-02T15:57:45Z</time>
      </trkpt>
      <trkpt lat="38.306858" lon="-6.466611">
        <ele>386.1</ele>
        <time>2011-04-02T15:57:59Z</time>
      </trkpt>
      <trkpt lat="38.306873" lon="-6.466581">
        <ele>385.6</ele>
        <time>2011-04-02T15:58:00Z</time>
      </trkpt>
      <trkpt lat="38.306892" lon="-6.466518">
        <ele>385.6</ele>
        <time>2011-04-02T15:58:04Z</time>
      </trkpt>
      <trkpt lat="38.307022" lon="-6.466327">
        <ele>386.6</ele>
        <time>2011-04-02T15:58:19Z</time>
      </trkpt>
      <trkpt lat="38.307091" lon="-6.466247">
        <ele>386.1</ele>
        <time>2011-04-02T15:58:26Z</time>
      </trkpt>
      <trkpt lat="38.307281" lon="-6.466016">
        <ele>385.6</ele>
        <time>2011-04-02T15:58:46Z</time>
      </trkpt>
      <trkpt lat="38.307526" lon="-6.465874">
        <ele>386.1</ele>
        <time>2011-04-02T15:59:06Z</time>
      </trkpt>
      <trkpt lat="38.307781" lon="-6.465743">
        <ele>387.1</ele>
        <time>2011-04-02T15:59:28Z</time>
      </trkpt>
      <trkpt lat="38.308037" lon="-6.465607">
        <ele>386.1</ele>
        <time>2011-04-02T15:59:50Z</time>
      </trkpt>
      <trkpt lat="38.308319" lon="-6.465525">
        <ele>386.6</ele>
        <time>2011-04-02T16:00:10Z</time>
      </trkpt>
      <trkpt lat="38.308510" lon="-6.465475">
        <ele>387.1</ele>
        <time>2011-04-02T16:00:26Z</time>
      </trkpt>
      <trkpt lat="38.308723" lon="-6.465434">
        <ele>387.6</ele>
        <time>2011-04-02T16:00:45Z</time>
      </trkpt>
      <trkpt lat="38.308949" lon="-6.465329">
        <ele>387.6</ele>
        <time>2011-04-02T16:01:04Z</time>
      </trkpt>
      <trkpt lat="38.309002" lon="-6.465322">
        <ele>387.1</ele>
        <time>2011-04-02T16:01:08Z</time>
      </trkpt>
      <trkpt lat="38.309040" lon="-6.465291">
        <ele>387.1</ele>
        <time>2011-04-02T16:01:12Z</time>
      </trkpt>
      <trkpt lat="38.309177" lon="-6.465200">
        <ele>387.1</ele>
        <time>2011-04-02T16:01:24Z</time>
      </trkpt>
      <trkpt lat="38.309299" lon="-6.465124">
        <ele>387.6</ele>
        <time>2011-04-02T16:01:35Z</time>
      </trkpt>
      <trkpt lat="38.309391" lon="-6.465075">
        <ele>387.1</ele>
        <time>2011-04-02T16:01:43Z</time>
      </trkpt>
      <trkpt lat="38.309456" lon="-6.464938">
        <ele>390.4</ele>
        <time>2011-04-02T16:02:01Z</time>
      </trkpt>
      <trkpt lat="38.309483" lon="-6.464917">
        <ele>390.4</ele>
        <time>2011-04-02T16:02:07Z</time>
      </trkpt>
      <trkpt lat="38.309509" lon="-6.464901">
        <ele>390.4</ele>
        <time>2011-04-02T16:02:11Z</time>
      </trkpt>
      <trkpt lat="38.309601" lon="-6.464864">
        <ele>389.0</ele>
        <time>2011-04-02T16:02:20Z</time>
      </trkpt>
      <trkpt lat="38.309792" lon="-6.464692">
        <ele>390.9</ele>
        <time>2011-04-02T16:02:40Z</time>
      </trkpt>
      <trkpt lat="38.309795" lon="-6.464679">
        <ele>390.0</ele>
        <time>2011-04-02T16:02:41Z</time>
      </trkpt>
      <trkpt lat="38.309803" lon="-6.464658">
        <ele>390.4</ele>
        <time>2011-04-02T16:02:57Z</time>
      </trkpt>
      <trkpt lat="38.309837" lon="-6.464664">
        <ele>390.0</ele>
        <time>2011-04-02T16:04:17Z</time>
      </trkpt>
      <trkpt lat="38.309849" lon="-6.464648">
        <ele>389.5</ele>
        <time>2011-04-02T16:04:35Z</time>
      </trkpt>
      <trkpt lat="38.309875" lon="-6.464625">
        <ele>389.5</ele>
        <time>2011-04-02T16:04:40Z</time>
      </trkpt>
      <trkpt lat="38.310135" lon="-6.464550">
        <ele>390.0</ele>
        <time>2011-04-02T16:05:02Z</time>
      </trkpt>
      <trkpt lat="38.310268" lon="-6.464526">
        <ele>390.4</ele>
        <time>2011-04-02T16:05:12Z</time>
      </trkpt>
      <trkpt lat="38.310524" lon="-6.464458">
        <ele>390.0</ele>
        <time>2011-04-02T16:05:34Z</time>
      </trkpt>
      <trkpt lat="38.310783" lon="-6.464447">
        <ele>389.5</ele>
        <time>2011-04-02T16:05:54Z</time>
      </trkpt>
      <trkpt lat="38.310810" lon="-6.464448">
        <ele>389.5</ele>
        <time>2011-04-02T16:05:57Z</time>
      </trkpt>
      <trkpt lat="38.310966" lon="-6.464425">
        <ele>389.5</ele>
        <time>2011-04-02T16:06:09Z</time>
      </trkpt>
      <trkpt lat="38.311005" lon="-6.464358">
        <ele>389.0</ele>
        <time>2011-04-02T16:06:25Z</time>
      </trkpt>
      <trkpt lat="38.311012" lon="-6.464324">
        <ele>388.5</ele>
        <time>2011-04-02T16:06:31Z</time>
      </trkpt>
      <trkpt lat="38.311058" lon="-6.464172">
        <ele>389.5</ele>
        <time>2011-04-02T16:06:40Z</time>
      </trkpt>
      <trkpt lat="38.311066" lon="-6.464125">
        <ele>389.5</ele>
        <time>2011-04-02T16:06:44Z</time>
      </trkpt>
      <trkpt lat="38.311069" lon="-6.464077">
        <ele>390.0</ele>
        <time>2011-04-02T16:06:48Z</time>
      </trkpt>
      <trkpt lat="38.311050" lon="-6.464001">
        <ele>389.5</ele>
        <time>2011-04-02T16:06:52Z</time>
      </trkpt>
      <trkpt lat="38.311058" lon="-6.463709">
        <ele>390.0</ele>
        <time>2011-04-02T16:07:11Z</time>
      </trkpt>
      <trkpt lat="38.311089" lon="-6.463438">
        <ele>389.5</ele>
        <time>2011-04-02T16:07:30Z</time>
      </trkpt>
      <trkpt lat="38.311096" lon="-6.463254">
        <ele>389.0</ele>
        <time>2011-04-02T16:07:48Z</time>
      </trkpt>
      <trkpt lat="38.311131" lon="-6.463013">
        <ele>389.0</ele>
        <time>2011-04-02T16:08:04Z</time>
      </trkpt>
      <trkpt lat="38.311100" lon="-6.462760">
        <ele>390.0</ele>
        <time>2011-04-02T16:08:23Z</time>
      </trkpt>
      <trkpt lat="38.311062" lon="-6.462668">
        <ele>390.0</ele>
        <time>2011-04-02T16:08:31Z</time>
      </trkpt>
      <trkpt lat="38.311016" lon="-6.462533">
        <ele>390.9</ele>
        <time>2011-04-02T16:08:42Z</time>
      </trkpt>
      <trkpt lat="38.310986" lon="-6.462457">
        <ele>391.9</ele>
        <time>2011-04-02T16:08:47Z</time>
      </trkpt>
      <trkpt lat="38.310963" lon="-6.462329">
        <ele>392.8</ele>
        <time>2011-04-02T16:08:58Z</time>
      </trkpt>
      <trkpt lat="38.310940" lon="-6.462269">
        <ele>393.8</ele>
        <time>2011-04-02T16:09:03Z</time>
      </trkpt>
      <trkpt lat="38.310928" lon="-6.462225">
        <ele>394.3</ele>
        <time>2011-04-02T16:09:07Z</time>
      </trkpt>
      <trkpt lat="38.310917" lon="-6.462157">
        <ele>395.2</ele>
        <time>2011-04-02T16:09:13Z</time>
      </trkpt>
      <trkpt lat="38.310959" lon="-6.461936">
        <ele>394.7</ele>
        <time>2011-04-02T16:09:27Z</time>
      </trkpt>
      <trkpt lat="38.310966" lon="-6.461872">
        <ele>394.7</ele>
        <time>2011-04-02T16:09:33Z</time>
      </trkpt>
      <trkpt lat="38.310947" lon="-6.461720">
        <ele>394.3</ele>
        <time>2011-04-02T16:09:44Z</time>
      </trkpt>
      <trkpt lat="38.310951" lon="-6.461688">
        <ele>392.8</ele>
        <time>2011-04-02T16:10:04Z</time>
      </trkpt>
      <trkpt lat="38.310951" lon="-6.461688">
        <ele>393.3</ele>
        <time>2011-04-02T16:10:39Z</time>
      </trkpt>
      <trkpt lat="38.310947" lon="-6.461680">
        <ele>393.3</ele>
        <time>2011-04-02T16:11:36Z</time>
      </trkpt>
      <trkpt lat="38.310944" lon="-6.461673">
        <ele>393.3</ele>
        <time>2011-04-02T16:12:19Z</time>
      </trkpt>
      <trkpt lat="38.310940" lon="-6.461674">
        <ele>393.8</ele>
        <time>2011-04-02T16:13:09Z</time>
      </trkpt>
      <trkpt lat="38.310940" lon="-6.461676">
        <ele>393.8</ele>
        <time>2011-04-02T16:13:55Z</time>
      </trkpt>
      <trkpt lat="38.310936" lon="-6.461677">
        <ele>394.3</ele>
        <time>2011-04-02T16:14:37Z</time>
      </trkpt>
      <trkpt lat="38.310936" lon="-6.461676">
        <ele>393.8</ele>
        <time>2011-04-02T16:15:21Z</time>
      </trkpt>
      <trkpt lat="38.310944" lon="-6.461680">
        <ele>395.2</ele>
        <time>2011-04-02T16:15:50Z</time>
      </trkpt>
      <trkpt lat="38.310944" lon="-6.461680">
        <ele>391.4</ele>
        <time>2011-04-02T16:15:59Z</time>
      </trkpt>
      <trkpt lat="38.310944" lon="-6.461680">
        <ele>395.7</ele>
        <time>2011-04-02T16:15:59Z</time>
      </trkpt>
      <trkpt lat="38.310936" lon="-6.461555">
        <ele>395.7</ele>
        <time>2011-04-02T16:16:12Z</time>
      </trkpt>
      <trkpt lat="38.310928" lon="-6.461483">
        <ele>394.7</ele>
        <time>2011-04-02T16:16:18Z</time>
      </trkpt>
      <trkpt lat="38.310936" lon="-6.461457">
        <ele>394.7</ele>
        <time>2011-04-02T16:16:19Z</time>
      </trkpt>
      <trkpt lat="38.310959" lon="-6.461313">
        <ele>394.7</ele>
        <time>2011-04-02T16:16:30Z</time>
      </trkpt>
      <trkpt lat="38.311081" lon="-6.461007">
        <ele>393.8</ele>
        <time>2011-04-02T16:16:52Z</time>
      </trkpt>
      <trkpt lat="38.311146" lon="-6.460838">
        <ele>393.3</ele>
        <time>2011-04-02T16:17:05Z</time>
      </trkpt>
      <trkpt lat="38.311214" lon="-6.460750">
        <ele>393.8</ele>
        <time>2011-04-02T16:17:13Z</time>
      </trkpt>
      <trkpt lat="38.311337" lon="-6.460518">
        <ele>395.2</ele>
        <time>2011-04-02T16:17:32Z</time>
      </trkpt>
      <trkpt lat="38.311367" lon="-6.460452">
        <ele>395.7</ele>
        <time>2011-04-02T16:17:36Z</time>
      </trkpt>
      <trkpt lat="38.311432" lon="-6.460320">
        <ele>396.2</ele>
        <time>2011-04-02T16:17:47Z</time>
      </trkpt>
      <trkpt lat="38.311478" lon="-6.460243">
        <ele>396.7</ele>
        <time>2011-04-02T16:17:55Z</time>
      </trkpt>
      <trkpt lat="38.311600" lon="-6.460080">
        <ele>398.1</ele>
        <time>2011-04-02T16:18:10Z</time>
      </trkpt>
      <trkpt lat="38.311684" lon="-6.459874">
        <ele>397.2</ele>
        <time>2011-04-02T16:18:26Z</time>
      </trkpt>
      <trkpt lat="38.311726" lon="-6.459786">
        <ele>397.6</ele>
        <time>2011-04-02T16:18:34Z</time>
      </trkpt>
      <trkpt lat="38.311813" lon="-6.459607">
        <ele>398.1</ele>
        <time>2011-04-02T16:18:46Z</time>
      </trkpt>
      <trkpt lat="38.311913" lon="-6.459508">
        <ele>397.6</ele>
        <time>2011-04-02T16:18:57Z</time>
      </trkpt>
      <trkpt lat="38.311989" lon="-6.459451">
        <ele>398.1</ele>
        <time>2011-04-02T16:19:08Z</time>
      </trkpt>
      <trkpt lat="38.312004" lon="-6.459409">
        <ele>398.6</ele>
        <time>2011-04-02T16:19:11Z</time>
      </trkpt>
      <trkpt lat="38.312027" lon="-6.459382">
        <ele>398.6</ele>
        <time>2011-04-02T16:19:13Z</time>
      </trkpt>
      <trkpt lat="38.312199" lon="-6.459209">
        <ele>397.6</ele>
        <time>2011-04-02T16:19:31Z</time>
      </trkpt>
      <trkpt lat="38.312237" lon="-6.459165">
        <ele>397.2</ele>
        <time>2011-04-02T16:19:36Z</time>
      </trkpt>
      <trkpt lat="38.312263" lon="-6.459139">
        <ele>397.6</ele>
        <time>2011-04-02T16:19:40Z</time>
      </trkpt>
      <trkpt lat="38.312317" lon="-6.459086">
        <ele>397.6</ele>
        <time>2011-04-02T16:19:47Z</time>
      </trkpt>
      <trkpt lat="38.312336" lon="-6.459067">
        <ele>397.6</ele>
        <time>2011-04-02T16:19:48Z</time>
      </trkpt>
      <trkpt lat="38.312397" lon="-6.458992">
        <ele>398.1</ele>
        <time>2011-04-02T16:19:57Z</time>
      </trkpt>
      <trkpt lat="38.312416" lon="-6.458996">
        <ele>398.1</ele>
        <time>2011-04-02T16:19:58Z</time>
      </trkpt>
      <trkpt lat="38.312492" lon="-6.458903">
        <ele>398.1</ele>
        <time>2011-04-02T16:20:10Z</time>
      </trkpt>
      <trkpt lat="38.312508" lon="-6.458864">
        <ele>398.6</ele>
        <time>2011-04-02T16:20:14Z</time>
      </trkpt>
      <trkpt lat="38.312531" lon="-6.458798">
        <ele>398.6</ele>
        <time>2011-04-02T16:20:18Z</time>
      </trkpt>
      <trkpt lat="38.312546" lon="-6.458527">
        <ele>397.2</ele>
        <time>2011-04-02T16:20:38Z</time>
      </trkpt>
      <trkpt lat="38.312542" lon="-6.458437">
        <ele>398.1</ele>
        <time>2011-04-02T16:20:45Z</time>
      </trkpt>
      <trkpt lat="38.312538" lon="-6.458305">
        <ele>399.6</ele>
        <time>2011-04-02T16:20:56Z</time>
      </trkpt>
      <trkpt lat="38.312561" lon="-6.458156">
        <ele>402.5</ele>
        <time>2011-04-02T16:21:14Z</time>
      </trkpt>
      <trkpt lat="38.312580" lon="-6.458136">
        <ele>402.0</ele>
        <time>2011-04-02T16:21:16Z</time>
      </trkpt>
      <trkpt lat="38.312618" lon="-6.458063">
        <ele>401.0</ele>
        <time>2011-04-02T16:21:23Z</time>
      </trkpt>
      <trkpt lat="38.312618" lon="-6.458010">
        <ele>400.5</ele>
        <time>2011-04-02T16:21:27Z</time>
      </trkpt>
      <trkpt lat="38.312752" lon="-6.457780">
        <ele>398.6</ele>
        <time>2011-04-02T16:21:46Z</time>
      </trkpt>
      <trkpt lat="38.312786" lon="-6.457760">
        <ele>397.6</ele>
        <time>2011-04-02T16:21:50Z</time>
      </trkpt>
      <trkpt lat="38.312832" lon="-6.457728">
        <ele>398.1</ele>
        <time>2011-04-02T16:21:54Z</time>
      </trkpt>
      <trkpt lat="38.312889" lon="-6.457693">
        <ele>397.6</ele>
        <time>2011-04-02T16:21:59Z</time>
      </trkpt>
      <trkpt lat="38.312977" lon="-6.457589">
        <ele>397.6</ele>
        <time>2011-04-02T16:22:16Z</time>
      </trkpt>
      <trkpt lat="38.313049" lon="-6.457522">
        <ele>397.6</ele>
        <time>2011-04-02T16:22:24Z</time>
      </trkpt>
      <trkpt lat="38.313141" lon="-6.457458">
        <ele>397.2</ele>
        <time>2011-04-02T16:22:35Z</time>
      </trkpt>
      <trkpt lat="38.313217" lon="-6.457343">
        <ele>397.6</ele>
        <time>2011-04-02T16:22:45Z</time>
      </trkpt>
      <trkpt lat="38.313225" lon="-6.457317">
        <ele>397.6</ele>
        <time>2011-04-02T16:22:48Z</time>
      </trkpt>
      <trkpt lat="38.313271" lon="-6.457235">
        <ele>398.1</ele>
        <time>2011-04-02T16:23:03Z</time>
      </trkpt>
      <trkpt lat="38.313259" lon="-6.457210">
        <ele>398.1</ele>
        <time>2011-04-02T16:23:06Z</time>
      </trkpt>
      <trkpt lat="38.313263" lon="-6.457186">
        <ele>397.6</ele>
        <time>2011-04-02T16:23:07Z</time>
      </trkpt>
      <trkpt lat="38.313255" lon="-6.457129">
        <ele>397.6</ele>
        <time>2011-04-02T16:23:20Z</time>
      </trkpt>
      <trkpt lat="38.313271" lon="-6.457078">
        <ele>398.1</ele>
        <time>2011-04-02T16:23:38Z</time>
      </trkpt>
      <trkpt lat="38.313271" lon="-6.457058">
        <ele>397.6</ele>
        <time>2011-04-02T16:23:45Z</time>
      </trkpt>
      <trkpt lat="38.313305" lon="-6.456949">
        <ele>398.1</ele>
        <time>2011-04-02T16:23:53Z</time>
      </trkpt>
      <trkpt lat="38.313366" lon="-6.456839">
        <ele>398.1</ele>
        <time>2011-04-02T16:24:08Z</time>
      </trkpt>
      <trkpt lat="38.313511" lon="-6.456579">
        <ele>398.6</ele>
        <time>2011-04-02T16:24:28Z</time>
      </trkpt>
      <trkpt lat="38.313614" lon="-6.456293">
        <ele>398.1</ele>
        <time>2011-04-02T16:24:48Z</time>
      </trkpt>
      <trkpt lat="38.313660" lon="-6.456015">
        <ele>398.1</ele>
        <time>2011-04-02T16:25:06Z</time>
      </trkpt>
      <trkpt lat="38.313663" lon="-6.455959">
        <ele>399.1</ele>
        <time>2011-04-02T16:25:22Z</time>
      </trkpt>
      <trkpt lat="38.313667" lon="-6.455922">
        <ele>398.6</ele>
        <time>2011-04-02T16:25:46Z</time>
      </trkpt>
      <trkpt lat="38.313652" lon="-6.455850">
        <ele>398.6</ele>
        <time>2011-04-02T16:26:04Z</time>
      </trkpt>
      <trkpt lat="38.313641" lon="-6.455842">
        <ele>399.1</ele>
        <time>2011-04-02T16:26:20Z</time>
      </trkpt>
      <trkpt lat="38.313644" lon="-6.455843">
        <ele>398.6</ele>
        <time>2011-04-02T16:26:43Z</time>
      </trkpt>
      <trkpt lat="38.313648" lon="-6.455816">
        <ele>399.1</ele>
        <time>2011-04-02T16:26:52Z</time>
      </trkpt>
      <trkpt lat="38.313675" lon="-6.455756">
        <ele>399.1</ele>
        <time>2011-04-02T16:26:56Z</time>
      </trkpt>
      <trkpt lat="38.313686" lon="-6.455708">
        <ele>399.1</ele>
        <time>2011-04-02T16:26:59Z</time>
      </trkpt>
      <trkpt lat="38.313698" lon="-6.455626">
        <ele>399.1</ele>
        <time>2011-04-02T16:27:05Z</time>
      </trkpt>
      <trkpt lat="38.313778" lon="-6.455321">
        <ele>399.1</ele>
        <time>2011-04-02T16:27:26Z</time>
      </trkpt>
      <trkpt lat="38.313869" lon="-6.455070">
        <ele>399.6</ele>
        <time>2011-04-02T16:27:42Z</time>
      </trkpt>
      <trkpt lat="38.313950" lon="-6.454784">
        <ele>399.6</ele>
        <time>2011-04-02T16:28:01Z</time>
      </trkpt>
      <trkpt lat="38.313961" lon="-6.454634">
        <ele>399.6</ele>
        <time>2011-04-02T16:28:12Z</time>
      </trkpt>
      <trkpt lat="38.313931" lon="-6.454445">
        <ele>400.5</ele>
        <time>2011-04-02T16:28:24Z</time>
      </trkpt>
      <trkpt lat="38.313934" lon="-6.454364">
        <ele>401.0</ele>
        <time>2011-04-02T16:28:31Z</time>
      </trkpt>
      <trkpt lat="38.313938" lon="-6.454334">
        <ele>401.0</ele>
        <time>2011-04-02T16:28:32Z</time>
      </trkpt>
      <trkpt lat="38.313950" lon="-6.454109">
        <ele>401.5</ele>
        <time>2011-04-02T16:28:47Z</time>
      </trkpt>
      <trkpt lat="38.313931" lon="-6.454056">
        <ele>401.5</ele>
        <time>2011-04-02T16:28:51Z</time>
      </trkpt>
      <trkpt lat="38.313896" lon="-6.453977">
        <ele>402.0</ele>
        <time>2011-04-02T16:28:58Z</time>
      </trkpt>
      <trkpt lat="38.313904" lon="-6.453955">
        <ele>402.0</ele>
        <time>2011-04-02T16:29:01Z</time>
      </trkpt>
      <trkpt lat="38.313934" lon="-6.453684">
        <ele>402.0</ele>
        <time>2011-04-02T16:29:18Z</time>
      </trkpt>
      <trkpt lat="38.314007" lon="-6.453417">
        <ele>402.0</ele>
        <time>2011-04-02T16:29:37Z</time>
      </trkpt>
      <trkpt lat="38.314186" lon="-6.453145">
        <ele>401.5</ele>
        <time>2011-04-02T16:30:00Z</time>
      </trkpt>
      <trkpt lat="38.314323" lon="-6.452981">
        <ele>402.0</ele>
        <time>2011-04-02T16:30:18Z</time>
      </trkpt>
      <trkpt lat="38.314541" lon="-6.452793">
        <ele>402.5</ele>
        <time>2011-04-02T16:30:41Z</time>
      </trkpt>
      <trkpt lat="38.314552" lon="-6.452766">
        <ele>402.0</ele>
        <time>2011-04-02T16:30:43Z</time>
      </trkpt>
      <trkpt lat="38.314587" lon="-6.452721">
        <ele>402.5</ele>
        <time>2011-04-02T16:30:46Z</time>
      </trkpt>
      <trkpt lat="38.314739" lon="-6.452433">
        <ele>402.5</ele>
        <time>2011-04-02T16:31:09Z</time>
      </trkpt>
      <trkpt lat="38.314762" lon="-6.452318">
        <ele>403.4</ele>
        <time>2011-04-02T16:31:17Z</time>
      </trkpt>
      <trkpt lat="38.314777" lon="-6.452257">
        <ele>402.9</ele>
        <time>2011-04-02T16:31:21Z</time>
      </trkpt>
      <trkpt lat="38.314796" lon="-6.452095">
        <ele>402.9</ele>
        <time>2011-04-02T16:31:32Z</time>
      </trkpt>
      <trkpt lat="38.314808" lon="-6.451935">
        <ele>402.9</ele>
        <time>2011-04-02T16:31:43Z</time>
      </trkpt>
      <trkpt lat="38.314789" lon="-6.451812">
        <ele>402.5</ele>
        <time>2011-04-02T16:31:59Z</time>
      </trkpt>
      <trkpt lat="38.314808" lon="-6.451713">
        <ele>401.5</ele>
        <time>2011-04-02T16:32:07Z</time>
      </trkpt>
      <trkpt lat="38.314819" lon="-6.451678">
        <ele>401.0</ele>
        <time>2011-04-02T16:32:10Z</time>
      </trkpt>
      <trkpt lat="38.314777" lon="-6.451575">
        <ele>402.0</ele>
        <time>2011-04-02T16:32:29Z</time>
      </trkpt>
      <trkpt lat="38.314793" lon="-6.451532">
        <ele>402.0</ele>
        <time>2011-04-02T16:32:53Z</time>
      </trkpt>
      <trkpt lat="38.314796" lon="-6.451482">
        <ele>402.5</ele>
        <time>2011-04-02T16:33:14Z</time>
      </trkpt>
      <trkpt lat="38.314796" lon="-6.451453">
        <ele>401.5</ele>
        <time>2011-04-02T16:33:20Z</time>
      </trkpt>
      <trkpt lat="38.314793" lon="-6.451413">
        <ele>401.5</ele>
        <time>2011-04-02T16:33:23Z</time>
      </trkpt>
      <trkpt lat="38.314758" lon="-6.451322">
        <ele>402.0</ele>
        <time>2011-04-02T16:33:31Z</time>
      </trkpt>
      <trkpt lat="38.314758" lon="-6.451270">
        <ele>402.9</ele>
        <time>2011-04-02T16:33:35Z</time>
      </trkpt>
      <trkpt lat="38.314739" lon="-6.451175">
        <ele>402.5</ele>
        <time>2011-04-02T16:33:41Z</time>
      </trkpt>
      <trkpt lat="38.314716" lon="-6.451093">
        <ele>402.9</ele>
        <time>2011-04-02T16:33:48Z</time>
      </trkpt>
      <trkpt lat="38.314724" lon="-6.451015">
        <ele>402.9</ele>
        <time>2011-04-02T16:33:54Z</time>
      </trkpt>
      <trkpt lat="38.314724" lon="-6.450946">
        <ele>402.9</ele>
        <time>2011-04-02T16:33:59Z</time>
      </trkpt>
      <trkpt lat="38.314754" lon="-6.450757">
        <ele>402.5</ele>
        <time>2011-04-02T16:34:11Z</time>
      </trkpt>
      <trkpt lat="38.314770" lon="-6.450492">
        <ele>402.9</ele>
        <time>2011-04-02T16:34:30Z</time>
      </trkpt>
      <trkpt lat="38.314762" lon="-6.450298">
        <ele>403.4</ele>
        <time>2011-04-02T16:34:45Z</time>
      </trkpt>
      <trkpt lat="38.314754" lon="-6.450171">
        <ele>403.4</ele>
        <time>2011-04-02T16:34:53Z</time>
      </trkpt>
      <trkpt lat="38.314747" lon="-6.450099">
        <ele>403.4</ele>
        <time>2011-04-02T16:34:58Z</time>
      </trkpt>
      <trkpt lat="38.314732" lon="-6.449871">
        <ele>403.9</ele>
        <time>2011-04-02T16:35:13Z</time>
      </trkpt>
      <trkpt lat="38.314724" lon="-6.449653">
        <ele>403.9</ele>
        <time>2011-04-02T16:35:28Z</time>
      </trkpt>
      <trkpt lat="38.314724" lon="-6.449523">
        <ele>404.4</ele>
        <time>2011-04-02T16:35:36Z</time>
      </trkpt>
      <trkpt lat="38.314720" lon="-6.449465">
        <ele>403.9</ele>
        <time>2011-04-02T16:35:40Z</time>
      </trkpt>
      <trkpt lat="38.314720" lon="-6.449307">
        <ele>403.9</ele>
        <time>2011-04-02T16:36:03Z</time>
      </trkpt>
      <trkpt lat="38.314655" lon="-6.449176">
        <ele>404.4</ele>
        <time>2011-04-02T16:36:18Z</time>
      </trkpt>
      <trkpt lat="38.314598" lon="-6.449104">
        <ele>404.4</ele>
        <time>2011-04-02T16:36:37Z</time>
      </trkpt>
      <trkpt lat="38.314602" lon="-6.449094">
        <ele>404.8</ele>
        <time>2011-04-02T16:36:53Z</time>
      </trkpt>
      <trkpt lat="38.314610" lon="-6.449085">
        <ele>404.8</ele>
        <time>2011-04-02T16:36:57Z</time>
      </trkpt>
      <trkpt lat="38.314636" lon="-6.448980">
        <ele>405.8</ele>
        <time>2011-04-02T16:39:58Z</time>
      </trkpt>
      <trkpt lat="38.314610" lon="-6.448924">
        <ele>404.8</ele>
        <time>2011-04-02T16:40:17Z</time>
      </trkpt>
      <trkpt lat="38.314610" lon="-6.448902">
        <ele>404.8</ele>
        <time>2011-04-02T16:40:18Z</time>
      </trkpt>
      <trkpt lat="38.314613" lon="-6.448712">
        <ele>404.4</ele>
        <time>2011-04-02T16:40:36Z</time>
      </trkpt>
      <trkpt lat="38.314617" lon="-6.448697">
        <ele>404.4</ele>
        <time>2011-04-02T16:40:37Z</time>
      </trkpt>
      <trkpt lat="38.314629" lon="-6.448653">
        <ele>403.9</ele>
        <time>2011-04-02T16:40:41Z</time>
      </trkpt>
      <trkpt lat="38.314640" lon="-6.448498">
        <ele>403.9</ele>
        <time>2011-04-02T16:40:52Z</time>
      </trkpt>
      <trkpt lat="38.314651" lon="-6.448453">
        <ele>403.4</ele>
        <time>2011-04-02T16:40:56Z</time>
      </trkpt>
      <trkpt lat="38.314629" lon="-6.448361">
        <ele>404.8</ele>
        <time>2011-04-02T16:41:03Z</time>
      </trkpt>
      <trkpt lat="38.314648" lon="-6.448222">
        <ele>403.9</ele>
        <time>2011-04-02T16:41:11Z</time>
      </trkpt>
      <trkpt lat="38.314606" lon="-6.447950">
        <ele>405.3</ele>
        <time>2011-04-02T16:41:34Z</time>
      </trkpt>
      <trkpt lat="38.314568" lon="-6.447878">
        <ele>405.3</ele>
        <time>2011-04-02T16:41:42Z</time>
      </trkpt>
      <trkpt lat="38.314526" lon="-6.447850">
        <ele>405.3</ele>
        <time>2011-04-02T16:41:46Z</time>
      </trkpt>
      <trkpt lat="38.314510" lon="-6.447843">
        <ele>405.3</ele>
        <time>2011-04-02T16:41:47Z</time>
      </trkpt>
      <trkpt lat="38.314419" lon="-6.447719">
        <ele>405.8</ele>
        <time>2011-04-02T16:42:01Z</time>
      </trkpt>
      <trkpt lat="38.314369" lon="-6.447532">
        <ele>406.3</ele>
        <time>2011-04-02T16:42:16Z</time>
      </trkpt>
      <trkpt lat="38.314369" lon="-6.447480">
        <ele>406.3</ele>
        <time>2011-04-02T16:42:20Z</time>
      </trkpt>
      <trkpt lat="38.314358" lon="-6.447368">
        <ele>406.3</ele>
        <time>2011-04-02T16:42:28Z</time>
      </trkpt>
      <trkpt lat="38.314362" lon="-6.447259">
        <ele>405.8</ele>
        <time>2011-04-02T16:42:36Z</time>
      </trkpt>
      <trkpt lat="38.314362" lon="-6.447210">
        <ele>405.8</ele>
        <time>2011-04-02T16:42:39Z</time>
      </trkpt>
      <trkpt lat="38.314358" lon="-6.447078">
        <ele>405.8</ele>
        <time>2011-04-02T16:42:48Z</time>
      </trkpt>
      <trkpt lat="38.314350" lon="-6.447041">
        <ele>405.8</ele>
        <time>2011-04-02T16:42:52Z</time>
      </trkpt>
      <trkpt lat="38.314350" lon="-6.446948">
        <ele>405.8</ele>
        <time>2011-04-02T16:43:00Z</time>
      </trkpt>
      <trkpt lat="38.314373" lon="-6.446926">
        <ele>405.8</ele>
        <time>2011-04-02T16:43:08Z</time>
      </trkpt>
      <trkpt lat="38.314411" lon="-6.446887">
        <ele>404.8</ele>
        <time>2011-04-02T16:43:14Z</time>
      </trkpt>
      <trkpt lat="38.314457" lon="-6.446893">
        <ele>405.8</ele>
        <time>2011-04-02T16:43:19Z</time>
      </trkpt>
      <trkpt lat="38.314533" lon="-6.446955">
        <ele>405.8</ele>
        <time>2011-04-02T16:43:31Z</time>
      </trkpt>
      <trkpt lat="38.314548" lon="-6.446902">
        <ele>405.8</ele>
        <time>2011-04-02T16:43:38Z</time>
      </trkpt>
      <trkpt lat="38.314602" lon="-6.446800">
        <ele>405.3</ele>
        <time>2011-04-02T16:43:46Z</time>
      </trkpt>
      <trkpt lat="38.314606" lon="-6.446706">
        <ele>405.8</ele>
        <time>2011-04-02T16:43:53Z</time>
      </trkpt>
      <trkpt lat="38.314606" lon="-6.446675">
        <ele>405.8</ele>
        <time>2011-04-02T16:43:54Z</time>
      </trkpt>
      <trkpt lat="38.314693" lon="-6.446495">
        <ele>405.8</ele>
        <time>2011-04-02T16:44:09Z</time>
      </trkpt>
      <trkpt lat="38.314693" lon="-6.446465">
        <ele>405.3</ele>
        <time>2011-04-02T16:44:11Z</time>
      </trkpt>
      <trkpt lat="38.314697" lon="-6.446413">
        <ele>405.8</ele>
        <time>2011-04-02T16:44:15Z</time>
      </trkpt>
      <trkpt lat="38.314739" lon="-6.446143">
        <ele>406.8</ele>
        <time>2011-04-02T16:44:35Z</time>
      </trkpt>
      <trkpt lat="38.314743" lon="-6.446134">
        <ele>407.3</ele>
        <time>2011-04-02T16:44:36Z</time>
      </trkpt>
      <trkpt lat="38.314758" lon="-6.446086">
        <ele>406.8</ele>
        <time>2011-04-02T16:45:03Z</time>
      </trkpt>
      <trkpt lat="38.314911" lon="-6.445873">
        <ele>406.8</ele>
        <time>2011-04-02T16:45:23Z</time>
      </trkpt>
      <trkpt lat="38.314957" lon="-6.445783">
        <ele>407.3</ele>
        <time>2011-04-02T16:45:46Z</time>
      </trkpt>
      <trkpt lat="38.314983" lon="-6.445765">
        <ele>406.8</ele>
        <time>2011-04-02T16:46:04Z</time>
      </trkpt>
      <trkpt lat="38.314980" lon="-6.445773">
        <ele>406.3</ele>
        <time>2011-04-02T16:46:26Z</time>
      </trkpt>
      <trkpt lat="38.314983" lon="-6.445773">
        <ele>407.3</ele>
        <time>2011-04-02T16:47:06Z</time>
      </trkpt>
      <trkpt lat="38.314980" lon="-6.445772">
        <ele>406.8</ele>
        <time>2011-04-02T16:47:30Z</time>
      </trkpt>
      <trkpt lat="38.314987" lon="-6.445777">
        <ele>407.3</ele>
        <time>2011-04-02T16:48:03Z</time>
      </trkpt>
      <trkpt lat="38.315033" lon="-6.445685">
        <ele>407.3</ele>
        <time>2011-04-02T16:48:20Z</time>
      </trkpt>
      <trkpt lat="38.315132" lon="-6.445417">
        <ele>407.3</ele>
        <time>2011-04-02T16:48:41Z</time>
      </trkpt>
      <trkpt lat="38.315132" lon="-6.445386">
        <ele>407.7</ele>
        <time>2011-04-02T16:48:43Z</time>
      </trkpt>
      <trkpt lat="38.315212" lon="-6.445221">
        <ele>407.7</ele>
        <time>2011-04-02T16:48:58Z</time>
      </trkpt>
      <trkpt lat="38.315224" lon="-6.445199">
        <ele>407.3</ele>
        <time>2011-04-02T16:48:59Z</time>
      </trkpt>
      <trkpt lat="38.315250" lon="-6.445042">
        <ele>407.3</ele>
        <time>2011-04-02T16:49:12Z</time>
      </trkpt>
      <trkpt lat="38.315285" lon="-6.444983">
        <ele>407.7</ele>
        <time>2011-04-02T16:49:18Z</time>
      </trkpt>
      <trkpt lat="38.315289" lon="-6.444958">
        <ele>407.3</ele>
        <time>2011-04-02T16:49:21Z</time>
      </trkpt>
      <trkpt lat="38.315308" lon="-6.444904">
        <ele>407.7</ele>
        <time>2011-04-02T16:49:25Z</time>
      </trkpt>
      <trkpt lat="38.315327" lon="-6.444856">
        <ele>407.3</ele>
        <time>2011-04-02T16:49:29Z</time>
      </trkpt>
      <trkpt lat="38.315342" lon="-6.444749">
        <ele>407.3</ele>
        <time>2011-04-02T16:49:37Z</time>
      </trkpt>
      <trkpt lat="38.315407" lon="-6.444602">
        <ele>407.7</ele>
        <time>2011-04-02T16:49:51Z</time>
      </trkpt>
      <trkpt lat="38.315395" lon="-6.444571">
        <ele>407.7</ele>
        <time>2011-04-02T16:49:53Z</time>
      </trkpt>
      <trkpt lat="38.315388" lon="-6.444522">
        <ele>407.3</ele>
        <time>2011-04-02T16:49:57Z</time>
      </trkpt>
      <trkpt lat="38.315407" lon="-6.444448">
        <ele>407.3</ele>
        <time>2011-04-02T16:50:03Z</time>
      </trkpt>
      <trkpt lat="38.315472" lon="-6.444262">
        <ele>407.3</ele>
        <time>2011-04-02T16:50:16Z</time>
      </trkpt>
      <trkpt lat="38.315502" lon="-6.444204">
        <ele>407.3</ele>
        <time>2011-04-02T16:50:22Z</time>
      </trkpt>
      <trkpt lat="38.315563" lon="-6.443913">
        <ele>408.2</ele>
        <time>2011-04-02T16:50:45Z</time>
      </trkpt>
      <trkpt lat="38.315571" lon="-6.443884">
        <ele>407.7</ele>
        <time>2011-04-02T16:50:46Z</time>
      </trkpt>
      <trkpt lat="38.315639" lon="-6.443716">
        <ele>407.7</ele>
        <time>2011-04-02T16:51:01Z</time>
      </trkpt>
      <trkpt lat="38.315659" lon="-6.443666">
        <ele>408.2</ele>
        <time>2011-04-02T16:53:28Z</time>
      </trkpt>
      <trkpt lat="38.315655" lon="-6.443668">
        <ele>408.2</ele>
        <time>2011-04-02T16:57:22Z</time>
      </trkpt>
      <trkpt lat="38.315651" lon="-6.443611">
        <ele>411.1</ele>
        <time>2011-04-02T17:00:55Z</time>
      </trkpt>
      <trkpt lat="38.315639" lon="-6.443526">
        <ele>412.1</ele>
        <time>2011-04-02T17:01:53Z</time>
      </trkpt>
      <trkpt lat="38.315609" lon="-6.443486">
        <ele>412.5</ele>
        <time>2011-04-02T17:01:57Z</time>
      </trkpt>
      <trkpt lat="38.315556" lon="-6.443335">
        <ele>411.6</ele>
        <time>2011-04-02T17:02:16Z</time>
      </trkpt>
      <trkpt lat="38.315556" lon="-6.443327">
        <ele>410.1</ele>
        <time>2011-04-02T17:02:44Z</time>
      </trkpt>
      <trkpt lat="38.315590" lon="-6.443247">
        <ele>410.6</ele>
        <time>2011-04-02T17:02:50Z</time>
      </trkpt>
      <trkpt lat="38.315739" lon="-6.442999">
        <ele>410.1</ele>
        <time>2011-04-02T17:03:10Z</time>
      </trkpt>
      <trkpt lat="38.315845" lon="-6.442842">
        <ele>409.7</ele>
        <time>2011-04-02T17:03:30Z</time>
      </trkpt>
      <trkpt lat="38.315887" lon="-6.442776">
        <ele>410.1</ele>
        <time>2011-04-02T17:03:34Z</time>
      </trkpt>
      <trkpt lat="38.315929" lon="-6.442723">
        <ele>409.7</ele>
        <time>2011-04-02T17:03:40Z</time>
      </trkpt>
      <trkpt lat="38.315956" lon="-6.442670">
        <ele>409.7</ele>
        <time>2011-04-02T17:03:44Z</time>
      </trkpt>
      <trkpt lat="38.316116" lon="-6.442395">
        <ele>410.1</ele>
        <time>2011-04-02T17:04:07Z</time>
      </trkpt>
      <trkpt lat="38.316124" lon="-6.442380">
        <ele>410.1</ele>
        <time>2011-04-02T17:04:08Z</time>
      </trkpt>
      <trkpt lat="38.316040" lon="-6.442261">
        <ele>410.6</ele>
        <time>2011-04-02T17:04:19Z</time>
      </trkpt>
      <trkpt lat="38.315891" lon="-6.442129">
        <ele>411.1</ele>
        <time>2011-04-02T17:04:34Z</time>
      </trkpt>
      <trkpt lat="38.315834" lon="-6.442078">
        <ele>411.1</ele>
        <time>2011-04-02T17:04:39Z</time>
      </trkpt>
      <trkpt lat="38.315647" lon="-6.441910">
        <ele>412.5</ele>
        <time>2011-04-02T17:04:58Z</time>
      </trkpt>
      <trkpt lat="38.315578" lon="-6.441860">
        <ele>413.0</ele>
        <time>2011-04-02T17:05:06Z</time>
      </trkpt>
      <trkpt lat="38.315495" lon="-6.441780">
        <ele>413.5</ele>
        <time>2011-04-02T17:05:14Z</time>
      </trkpt>
      <trkpt lat="38.315235" lon="-6.441596">
        <ele>415.4</ele>
        <time>2011-04-02T17:05:38Z</time>
      </trkpt>
      <trkpt lat="38.315048" lon="-6.441422">
        <ele>415.9</ele>
        <time>2011-04-02T17:05:57Z</time>
      </trkpt>
      <trkpt lat="38.314842" lon="-6.441247">
        <ele>417.4</ele>
        <time>2011-04-02T17:06:19Z</time>
      </trkpt>
      <trkpt lat="38.314640" lon="-6.441099">
        <ele>418.3</ele>
        <time>2011-04-02T17:06:38Z</time>
      </trkpt>
      <trkpt lat="38.314442" lon="-6.440913">
        <ele>419.7</ele>
        <time>2011-04-02T17:06:58Z</time>
      </trkpt>
      <trkpt lat="38.314278" lon="-6.440729">
        <ele>420.2</ele>
        <time>2011-04-02T17:07:16Z</time>
      </trkpt>
      <trkpt lat="38.314064" lon="-6.440500">
        <ele>422.1</ele>
        <time>2011-04-02T17:07:39Z</time>
      </trkpt>
      <trkpt lat="38.313961" lon="-6.440372">
        <ele>422.1</ele>
        <time>2011-04-02T17:07:51Z</time>
      </trkpt>
      <trkpt lat="38.313862" lon="-6.440257">
        <ele>423.6</ele>
        <time>2011-04-02T17:08:02Z</time>
      </trkpt>
      <trkpt lat="38.313675" lon="-6.440032">
        <ele>426.0</ele>
        <time>2011-04-02T17:08:23Z</time>
      </trkpt>
      <trkpt lat="38.313610" lon="-6.439947">
        <ele>426.5</ele>
        <time>2011-04-02T17:08:31Z</time>
      </trkpt>
      <trkpt lat="38.313515" lon="-6.439824">
        <ele>427.5</ele>
        <time>2011-04-02T17:08:43Z</time>
      </trkpt>
      <trkpt lat="38.313362" lon="-6.439655">
        <ele>430.3</ele>
        <time>2011-04-02T17:09:04Z</time>
      </trkpt>
      <trkpt lat="38.313213" lon="-6.439482">
        <ele>432.7</ele>
        <time>2011-04-02T17:09:23Z</time>
      </trkpt>
      <trkpt lat="38.313194" lon="-6.439467">
        <ele>433.2</ele>
        <time>2011-04-02T17:09:25Z</time>
      </trkpt>
      <trkpt lat="38.313175" lon="-6.439446">
        <ele>433.2</ele>
        <time>2011-04-02T17:09:27Z</time>
      </trkpt>
      <trkpt lat="38.313148" lon="-6.439425">
        <ele>433.7</ele>
        <time>2011-04-02T17:09:29Z</time>
      </trkpt>
      <trkpt lat="38.313042" lon="-6.439333">
        <ele>435.1</ele>
        <time>2011-04-02T17:09:41Z</time>
      </trkpt>
      <trkpt lat="38.312901" lon="-6.439165">
        <ele>436.6</ele>
        <time>2011-04-02T17:09:59Z</time>
      </trkpt>
      <trkpt lat="38.312874" lon="-6.439116">
        <ele>437.1</ele>
        <time>2011-04-02T17:10:03Z</time>
      </trkpt>
      <trkpt lat="38.312809" lon="-6.439032">
        <ele>437.5</ele>
        <time>2011-04-02T17:10:11Z</time>
      </trkpt>
      <trkpt lat="38.312710" lon="-6.438770">
        <ele>439.0</ele>
        <time>2011-04-02T17:10:31Z</time>
      </trkpt>
      <trkpt lat="38.312675" lon="-6.438696">
        <ele>439.5</ele>
        <time>2011-04-02T17:10:38Z</time>
      </trkpt>
      <trkpt lat="38.312523" lon="-6.438518">
        <ele>441.9</ele>
        <time>2011-04-02T17:10:57Z</time>
      </trkpt>
      <trkpt lat="38.312489" lon="-6.438479">
        <ele>442.3</ele>
        <time>2011-04-02T17:11:01Z</time>
      </trkpt>
      <trkpt lat="38.312389" lon="-6.438334">
        <ele>444.8</ele>
        <time>2011-04-02T17:11:15Z</time>
      </trkpt>
      <trkpt lat="38.312321" lon="-6.438175">
        <ele>447.1</ele>
        <time>2011-04-02T17:11:28Z</time>
      </trkpt>
      <trkpt lat="38.312305" lon="-6.438132">
        <ele>447.6</ele>
        <time>2011-04-02T17:11:39Z</time>
      </trkpt>
      <trkpt lat="38.312290" lon="-6.438100">
        <ele>447.6</ele>
        <time>2011-04-02T17:11:42Z</time>
      </trkpt>
      <trkpt lat="38.312180" lon="-6.437903">
        <ele>451.0</ele>
        <time>2011-04-02T17:12:00Z</time>
      </trkpt>
      <trkpt lat="38.312164" lon="-6.437847">
        <ele>451.0</ele>
        <time>2011-04-02T17:12:18Z</time>
      </trkpt>
      <trkpt lat="38.312103" lon="-6.437818">
        <ele>452.0</ele>
        <time>2011-04-02T17:12:45Z</time>
      </trkpt>
      <trkpt lat="38.311970" lon="-6.437638">
        <ele>454.9</ele>
        <time>2011-04-02T17:13:04Z</time>
      </trkpt>
      <trkpt lat="38.311909" lon="-6.437489">
        <ele>454.9</ele>
        <time>2011-04-02T17:13:16Z</time>
      </trkpt>
      <trkpt lat="38.311760" lon="-6.437301">
        <ele>456.8</ele>
        <time>2011-04-02T17:13:36Z</time>
      </trkpt>
      <trkpt lat="38.311752" lon="-6.437276">
        <ele>456.8</ele>
        <time>2011-04-02T17:13:39Z</time>
      </trkpt>
      <trkpt lat="38.311710" lon="-6.437218">
        <ele>457.7</ele>
        <time>2011-04-02T17:13:44Z</time>
      </trkpt>
      <trkpt lat="38.311672" lon="-6.437154">
        <ele>457.7</ele>
        <time>2011-04-02T17:13:51Z</time>
      </trkpt>
      <trkpt lat="38.311657" lon="-6.437119">
        <ele>458.2</ele>
        <time>2011-04-02T17:13:54Z</time>
      </trkpt>
      <trkpt lat="38.311642" lon="-6.437100">
        <ele>458.2</ele>
        <time>2011-04-02T17:13:55Z</time>
      </trkpt>
      <trkpt lat="38.311596" lon="-6.436970">
        <ele>458.7</ele>
        <time>2011-04-02T17:14:06Z</time>
      </trkpt>
      <trkpt lat="38.311577" lon="-6.436916">
        <ele>459.6</ele>
        <time>2011-04-02T17:14:10Z</time>
      </trkpt>
      <trkpt lat="38.311634" lon="-6.436607">
        <ele>462.0</ele>
        <time>2011-04-02T17:14:32Z</time>
      </trkpt>
      <trkpt lat="38.311657" lon="-6.436559">
        <ele>462.0</ele>
        <time>2011-04-02T17:14:36Z</time>
      </trkpt>
      <trkpt lat="38.311737" lon="-6.436283">
        <ele>465.9</ele>
        <time>2011-04-02T17:14:57Z</time>
      </trkpt>
      <trkpt lat="38.311745" lon="-6.436240">
        <ele>466.9</ele>
        <time>2011-04-02T17:15:01Z</time>
      </trkpt>
      <trkpt lat="38.311779" lon="-6.436164">
        <ele>466.9</ele>
        <time>2011-04-02T17:15:08Z</time>
      </trkpt>
      <trkpt lat="38.311832" lon="-6.436007">
        <ele>469.3</ele>
        <time>2011-04-02T17:15:22Z</time>
      </trkpt>
      <trkpt lat="38.311947" lon="-6.435776">
        <ele>472.6</ele>
        <time>2011-04-02T17:15:43Z</time>
      </trkpt>
      <trkpt lat="38.311970" lon="-6.435742">
        <ele>472.6</ele>
        <time>2011-04-02T17:15:46Z</time>
      </trkpt>
      <trkpt lat="38.311993" lon="-6.435721">
        <ele>473.1</ele>
        <time>2011-04-02T17:15:50Z</time>
      </trkpt>
      <trkpt lat="38.312065" lon="-6.435616">
        <ele>474.5</ele>
        <time>2011-04-02T17:16:01Z</time>
      </trkpt>
      <trkpt lat="38.312157" lon="-6.435388">
        <ele>477.9</ele>
        <time>2011-04-02T17:16:21Z</time>
      </trkpt>
      <trkpt lat="38.312157" lon="-6.435373">
        <ele>477.9</ele>
        <time>2011-04-02T17:16:21Z</time>
      </trkpt>
      <trkpt lat="38.312183" lon="-6.435144">
        <ele>480.8</ele>
        <time>2011-04-02T17:16:41Z</time>
      </trkpt>
      <trkpt lat="38.312183" lon="-6.435118">
        <ele>481.3</ele>
        <time>2011-04-02T17:16:44Z</time>
      </trkpt>
      <trkpt lat="38.312233" lon="-6.434965">
        <ele>482.7</ele>
        <time>2011-04-02T17:16:56Z</time>
      </trkpt>
      <trkpt lat="38.312332" lon="-6.434747">
        <ele>485.1</ele>
        <time>2011-04-02T17:17:16Z</time>
      </trkpt>
      <trkpt lat="38.312370" lon="-6.434616">
        <ele>487.0</ele>
        <time>2011-04-02T17:17:27Z</time>
      </trkpt>
      <trkpt lat="38.312431" lon="-6.434487">
        <ele>488.5</ele>
        <time>2011-04-02T17:17:38Z</time>
      </trkpt>
      <trkpt lat="38.312466" lon="-6.434393">
        <ele>489.0</ele>
        <time>2011-04-02T17:17:46Z</time>
      </trkpt>
      <trkpt lat="38.312485" lon="-6.434340">
        <ele>489.4</ele>
        <time>2011-04-02T17:17:50Z</time>
      </trkpt>
      <trkpt lat="38.312508" lon="-6.434192">
        <ele>490.4</ele>
        <time>2011-04-02T17:18:01Z</time>
      </trkpt>
      <trkpt lat="38.312550" lon="-6.433973">
        <ele>490.4</ele>
        <time>2011-04-02T17:18:18Z</time>
      </trkpt>
      <trkpt lat="38.312538" lon="-6.433697">
        <ele>493.3</ele>
        <time>2011-04-02T17:18:40Z</time>
      </trkpt>
      <trkpt lat="38.312542" lon="-6.433563">
        <ele>494.3</ele>
        <time>2011-04-02T17:18:58Z</time>
      </trkpt>
      <trkpt lat="38.312538" lon="-6.433519">
        <ele>494.3</ele>
        <time>2011-04-02T17:19:00Z</time>
      </trkpt>
      <trkpt lat="38.312542" lon="-6.433493">
        <ele>494.3</ele>
        <time>2011-04-02T17:19:03Z</time>
      </trkpt>
      <trkpt lat="38.312534" lon="-6.433305">
        <ele>496.7</ele>
        <time>2011-04-02T17:19:18Z</time>
      </trkpt>
      <trkpt lat="38.312534" lon="-6.433246">
        <ele>497.1</ele>
        <time>2011-04-02T17:19:22Z</time>
      </trkpt>
      <trkpt lat="38.312534" lon="-6.433218">
        <ele>497.1</ele>
        <time>2011-04-02T17:19:23Z</time>
      </trkpt>
      <trkpt lat="38.312527" lon="-6.433177">
        <ele>497.6</ele>
        <time>2011-04-02T17:19:26Z</time>
      </trkpt>
      <trkpt lat="38.312508" lon="-6.432938">
        <ele>500.0</ele>
        <time>2011-04-02T17:19:46Z</time>
      </trkpt>
      <trkpt lat="38.312500" lon="-6.432693">
        <ele>501.5</ele>
        <time>2011-04-02T17:20:02Z</time>
      </trkpt>
      <trkpt lat="38.312485" lon="-6.432611">
        <ele>501.9</ele>
        <time>2011-04-02T17:20:09Z</time>
      </trkpt>
      <trkpt lat="38.312477" lon="-6.432498">
        <ele>502.9</ele>
        <time>2011-04-02T17:20:17Z</time>
      </trkpt>
      <trkpt lat="38.312477" lon="-6.432469">
        <ele>502.9</ele>
        <time>2011-04-02T17:20:20Z</time>
      </trkpt>
      <trkpt lat="38.312466" lon="-6.432388">
        <ele>503.4</ele>
        <time>2011-04-02T17:20:25Z</time>
      </trkpt>
      <trkpt lat="38.312443" lon="-6.432294">
        <ele>504.4</ele>
        <time>2011-04-02T17:20:32Z</time>
      </trkpt>
      <trkpt lat="38.312401" lon="-6.432074">
        <ele>504.8</ele>
        <time>2011-04-02T17:20:47Z</time>
      </trkpt>
      <trkpt lat="38.312355" lon="-6.431973">
        <ele>504.8</ele>
        <time>2011-04-02T17:20:55Z</time>
      </trkpt>
      <trkpt lat="38.312252" lon="-6.431668">
        <ele>503.4</ele>
        <time>2011-04-02T17:21:19Z</time>
      </trkpt>
      <trkpt lat="38.312130" lon="-6.431404">
        <ele>500.0</ele>
        <time>2011-04-02T17:21:41Z</time>
      </trkpt>
      <trkpt lat="38.312107" lon="-6.431328">
        <ele>499.5</ele>
        <time>2011-04-02T17:21:46Z</time>
      </trkpt>
      <trkpt lat="38.312023" lon="-6.431130">
        <ele>497.1</ele>
        <time>2011-04-02T17:22:05Z</time>
      </trkpt>
      <trkpt lat="38.312023" lon="-6.431117">
        <ele>496.2</ele>
        <time>2011-04-02T17:22:07Z</time>
      </trkpt>
      <trkpt lat="38.311920" lon="-6.430860">
        <ele>493.3</ele>
        <time>2011-04-02T17:22:27Z</time>
      </trkpt>
      <trkpt lat="38.311832" lon="-6.430633">
        <ele>491.4</ele>
        <time>2011-04-02T17:22:48Z</time>
      </trkpt>
      <trkpt lat="38.311733" lon="-6.430425">
        <ele>489.4</ele>
        <time>2011-04-02T17:23:06Z</time>
      </trkpt>
      <trkpt lat="38.311676" lon="-6.430295">
        <ele>488.5</ele>
        <time>2011-04-02T17:23:25Z</time>
      </trkpt>
      <trkpt lat="38.311543" lon="-6.429979">
        <ele>485.1</ele>
        <time>2011-04-02T17:23:51Z</time>
      </trkpt>
      <trkpt lat="38.311527" lon="-6.429936">
        <ele>485.1</ele>
        <time>2011-04-02T17:23:53Z</time>
      </trkpt>
      <trkpt lat="38.311512" lon="-6.429871">
        <ele>484.2</ele>
        <time>2011-04-02T17:23:59Z</time>
      </trkpt>
      <trkpt lat="38.311493" lon="-6.429818">
        <ele>483.7</ele>
        <time>2011-04-02T17:24:03Z</time>
      </trkpt>
      <trkpt lat="38.311474" lon="-6.429752">
        <ele>483.7</ele>
        <time>2011-04-02T17:24:08Z</time>
      </trkpt>
      <trkpt lat="38.311462" lon="-6.429734">
        <ele>483.2</ele>
        <time>2011-04-02T17:24:09Z</time>
      </trkpt>
      <trkpt lat="38.311443" lon="-6.429633">
        <ele>482.7</ele>
        <time>2011-04-02T17:24:28Z</time>
      </trkpt>
      <trkpt lat="38.311443" lon="-6.429633">
        <ele>481.3</ele>
        <time>2011-04-02T17:24:46Z</time>
      </trkpt>
      <trkpt lat="38.311440" lon="-6.429633">
        <ele>481.3</ele>
        <time>2011-04-02T17:29:25Z</time>
      </trkpt>
      <trkpt lat="38.311443" lon="-6.429636">
        <ele>481.3</ele>
        <time>2011-04-02T17:31:04Z</time>
      </trkpt>
      <trkpt lat="38.311440" lon="-6.429637">
        <ele>480.8</ele>
        <time>2011-04-02T17:31:51Z</time>
      </trkpt>
      <trkpt lat="38.311440" lon="-6.429639">
        <ele>480.8</ele>
        <time>2011-04-02T17:32:44Z</time>
      </trkpt>
      <trkpt lat="38.311440" lon="-6.429642">
        <ele>480.3</ele>
        <time>2011-04-02T17:33:34Z</time>
      </trkpt>
      <trkpt lat="38.311443" lon="-6.429642">
        <ele>481.3</ele>
        <time>2011-04-02T17:34:14Z</time>
      </trkpt>
      <trkpt lat="38.311363" lon="-6.429497">
        <ele>482.3</ele>
        <time>2011-04-02T17:39:36Z</time>
      </trkpt>
      <trkpt lat="38.311272" lon="-6.429340">
        <ele>481.3</ele>
        <time>2011-04-02T17:39:50Z</time>
      </trkpt>
      <trkpt lat="38.311131" lon="-6.429114">
        <ele>480.3</ele>
        <time>2011-04-02T17:40:11Z</time>
      </trkpt>
      <trkpt lat="38.311100" lon="-6.429071">
        <ele>480.8</ele>
        <time>2011-04-02T17:40:15Z</time>
      </trkpt>
      <trkpt lat="38.311089" lon="-6.429044">
        <ele>480.3</ele>
        <time>2011-04-02T17:40:16Z</time>
      </trkpt>
      <trkpt lat="38.311028" lon="-6.428940">
        <ele>480.3</ele>
        <time>2011-04-02T17:40:26Z</time>
      </trkpt>
      <trkpt lat="38.311012" lon="-6.428918">
        <ele>480.3</ele>
        <time>2011-04-02T17:40:28Z</time>
      </trkpt>
      <trkpt lat="38.311005" lon="-6.428891">
        <ele>480.3</ele>
        <time>2011-04-02T17:40:30Z</time>
      </trkpt>
      <trkpt lat="38.310989" lon="-6.428833">
        <ele>479.8</ele>
        <time>2011-04-02T17:41:20Z</time>
      </trkpt>
      <trkpt lat="38.310890" lon="-6.428710">
        <ele>479.4</ele>
        <time>2011-04-02T17:41:33Z</time>
      </trkpt>
      <trkpt lat="38.310883" lon="-6.428665">
        <ele>480.3</ele>
        <time>2011-04-02T17:41:52Z</time>
      </trkpt>
      <trkpt lat="38.310871" lon="-6.428649">
        <ele>480.8</ele>
        <time>2011-04-02T17:42:07Z</time>
      </trkpt>
      <trkpt lat="38.310825" lon="-6.428603">
        <ele>480.8</ele>
        <time>2011-04-02T17:42:12Z</time>
      </trkpt>
      <trkpt lat="38.310799" lon="-6.428565">
        <ele>480.8</ele>
        <time>2011-04-02T17:42:16Z</time>
      </trkpt>
      <trkpt lat="38.310692" lon="-6.428400">
        <ele>480.3</ele>
        <time>2011-04-02T17:42:35Z</time>
      </trkpt>
      <trkpt lat="38.310600" lon="-6.428259">
        <ele>481.3</ele>
        <time>2011-04-02T17:42:47Z</time>
      </trkpt>
      <trkpt lat="38.310429" lon="-6.428026">
        <ele>482.3</ele>
        <time>2011-04-02T17:43:09Z</time>
      </trkpt>
      <trkpt lat="38.310394" lon="-6.427986">
        <ele>482.7</ele>
        <time>2011-04-02T17:43:13Z</time>
      </trkpt>
      <trkpt lat="38.310238" lon="-6.427786">
        <ele>484.2</ele>
        <time>2011-04-02T17:43:33Z</time>
      </trkpt>
      <trkpt lat="38.310108" lon="-6.427613">
        <ele>485.6</ele>
        <time>2011-04-02T17:43:49Z</time>
      </trkpt>
      <trkpt lat="38.310101" lon="-6.427585">
        <ele>485.6</ele>
        <time>2011-04-02T17:43:52Z</time>
      </trkpt>
      <trkpt lat="38.310066" lon="-6.427546">
        <ele>486.1</ele>
        <time>2011-04-02T17:43:56Z</time>
      </trkpt>
      <trkpt lat="38.309856" lon="-6.427308">
        <ele>488.0</ele>
        <time>2011-04-02T17:44:19Z</time>
      </trkpt>
      <trkpt lat="38.309822" lon="-6.427275">
        <ele>488.0</ele>
        <time>2011-04-02T17:44:23Z</time>
      </trkpt>
      <trkpt lat="38.309746" lon="-6.427205">
        <ele>489.0</ele>
        <time>2011-04-02T17:44:33Z</time>
      </trkpt>
      <trkpt lat="38.309643" lon="-6.427043">
        <ele>490.9</ele>
        <time>2011-04-02T17:44:50Z</time>
      </trkpt>
      <trkpt lat="38.309570" lon="-6.426924">
        <ele>492.3</ele>
        <time>2011-04-02T17:45:01Z</time>
      </trkpt>
      <trkpt lat="38.309433" lon="-6.426733">
        <ele>494.3</ele>
        <time>2011-04-02T17:45:21Z</time>
      </trkpt>
      <trkpt lat="38.309425" lon="-6.426728">
        <ele>494.3</ele>
        <time>2011-04-02T17:45:21Z</time>
      </trkpt>
      <trkpt lat="38.309341" lon="-6.426651">
        <ele>494.8</ele>
        <time>2011-04-02T17:45:31Z</time>
      </trkpt>
      <trkpt lat="38.309322" lon="-6.426615">
        <ele>495.2</ele>
        <time>2011-04-02T17:45:33Z</time>
      </trkpt>
      <trkpt lat="38.309303" lon="-6.426600">
        <ele>495.7</ele>
        <time>2011-04-02T17:45:36Z</time>
      </trkpt>
      <trkpt lat="38.309292" lon="-6.426580">
        <ele>495.7</ele>
        <time>2011-04-02T17:45:37Z</time>
      </trkpt>
      <trkpt lat="38.309277" lon="-6.426560">
        <ele>495.7</ele>
        <time>2011-04-02T17:45:40Z</time>
      </trkpt>
      <trkpt lat="38.309246" lon="-6.426492">
        <ele>497.1</ele>
        <time>2011-04-02T17:45:45Z</time>
      </trkpt>
      <trkpt lat="38.309223" lon="-6.426450">
        <ele>497.1</ele>
        <time>2011-04-02T17:45:50Z</time>
      </trkpt>
      <trkpt lat="38.309212" lon="-6.426431">
        <ele>497.6</ele>
        <time>2011-04-02T17:45:52Z</time>
      </trkpt>
      <trkpt lat="38.309166" lon="-6.426299">
        <ele>498.6</ele>
        <time>2011-04-02T17:46:02Z</time>
      </trkpt>
      <trkpt lat="38.309078" lon="-6.426027">
        <ele>501.9</ele>
        <time>2011-04-02T17:46:22Z</time>
      </trkpt>
      <trkpt lat="38.308994" lon="-6.425814">
        <ele>503.4</ele>
        <time>2011-04-02T17:46:39Z</time>
      </trkpt>
      <trkpt lat="38.308964" lon="-6.425753">
        <ele>503.9</ele>
        <time>2011-04-02T17:46:45Z</time>
      </trkpt>
      <trkpt lat="38.308914" lon="-6.425653">
        <ele>504.4</ele>
        <time>2011-04-02T17:46:53Z</time>
      </trkpt>
      <trkpt lat="38.308868" lon="-6.425541">
        <ele>504.8</ele>
        <time>2011-04-02T17:47:02Z</time>
      </trkpt>
      <trkpt lat="38.308697" lon="-6.425189">
        <ele>502.9</ele>
        <time>2011-04-02T17:47:28Z</time>
      </trkpt>
      <trkpt lat="38.308659" lon="-6.425113">
        <ele>502.9</ele>
        <time>2011-04-02T17:47:35Z</time>
      </trkpt>
      <trkpt lat="38.308601" lon="-6.425027">
        <ele>501.9</ele>
        <time>2011-04-02T17:47:43Z</time>
      </trkpt>
      <trkpt lat="38.308365" lon="-6.424834">
        <ele>499.5</ele>
        <time>2011-04-02T17:48:06Z</time>
      </trkpt>
      <trkpt lat="38.308224" lon="-6.424740">
        <ele>499.0</ele>
        <time>2011-04-02T17:48:18Z</time>
      </trkpt>
      <trkpt lat="38.308102" lon="-6.424649">
        <ele>498.6</ele>
        <time>2011-04-02T17:48:30Z</time>
      </trkpt>
      <trkpt lat="38.307987" lon="-6.424585">
        <ele>498.6</ele>
        <time>2011-04-02T17:48:41Z</time>
      </trkpt>
      <trkpt lat="38.307755" lon="-6.424432">
        <ele>498.1</ele>
        <time>2011-04-02T17:49:01Z</time>
      </trkpt>
      <trkpt lat="38.307743" lon="-6.424426">
        <ele>498.1</ele>
        <time>2011-04-02T17:49:03Z</time>
      </trkpt>
      <trkpt lat="38.307522" lon="-6.424252">
        <ele>498.1</ele>
        <time>2011-04-02T17:49:24Z</time>
      </trkpt>
      <trkpt lat="38.307293" lon="-6.424073">
        <ele>497.6</ele>
        <time>2011-04-02T17:49:46Z</time>
      </trkpt>
      <trkpt lat="38.307251" lon="-6.424035">
        <ele>497.1</ele>
        <time>2011-04-02T17:49:50Z</time>
      </trkpt>
      <trkpt lat="38.307137" lon="-6.423929">
        <ele>497.1</ele>
        <time>2011-04-02T17:50:01Z</time>
      </trkpt>
      <trkpt lat="38.306896" lon="-6.423727">
        <ele>497.1</ele>
        <time>2011-04-02T17:50:24Z</time>
      </trkpt>
      <trkpt lat="38.306877" lon="-6.423712">
        <ele>497.6</ele>
        <time>2011-04-02T17:50:25Z</time>
      </trkpt>
      <trkpt lat="38.306778" lon="-6.423662">
        <ele>497.6</ele>
        <time>2011-04-02T17:50:33Z</time>
      </trkpt>
      <trkpt lat="38.306652" lon="-6.423637">
        <ele>497.6</ele>
        <time>2011-04-02T17:50:44Z</time>
      </trkpt>
      <trkpt lat="38.306576" lon="-6.423611">
        <ele>498.1</ele>
        <time>2011-04-02T17:50:49Z</time>
      </trkpt>
      <trkpt lat="38.306316" lon="-6.423482">
        <ele>498.1</ele>
        <time>2011-04-02T17:51:12Z</time>
      </trkpt>
      <trkpt lat="38.306061" lon="-6.423316">
        <ele>498.6</ele>
        <time>2011-04-02T17:51:35Z</time>
      </trkpt>
      <trkpt lat="38.306030" lon="-6.423307">
        <ele>498.1</ele>
        <time>2011-04-02T17:51:38Z</time>
      </trkpt>
      <trkpt lat="38.305954" lon="-6.423259">
        <ele>498.1</ele>
        <time>2011-04-02T17:51:45Z</time>
      </trkpt>
      <trkpt lat="38.305733" lon="-6.423078">
        <ele>498.6</ele>
        <time>2011-04-02T17:52:06Z</time>
      </trkpt>
      <trkpt lat="38.305527" lon="-6.422879">
        <ele>498.6</ele>
        <time>2011-04-02T17:52:26Z</time>
      </trkpt>
      <trkpt lat="38.305351" lon="-6.422650">
        <ele>498.6</ele>
        <time>2011-04-02T17:52:47Z</time>
      </trkpt>
      <trkpt lat="38.305267" lon="-6.422540">
        <ele>499.0</ele>
        <time>2011-04-02T17:52:56Z</time>
      </trkpt>
      <trkpt lat="38.305218" lon="-6.422473">
        <ele>499.0</ele>
        <time>2011-04-02T17:53:03Z</time>
      </trkpt>
      <trkpt lat="38.305096" lon="-6.422316">
        <ele>499.5</ele>
        <time>2011-04-02T17:53:16Z</time>
      </trkpt>
      <trkpt lat="38.305035" lon="-6.422257">
        <ele>499.0</ele>
        <time>2011-04-02T17:53:23Z</time>
      </trkpt>
      <trkpt lat="38.304928" lon="-6.422130">
        <ele>499.5</ele>
        <time>2011-04-02T17:53:34Z</time>
      </trkpt>
      <trkpt lat="38.304916" lon="-6.422107">
        <ele>500.0</ele>
        <time>2011-04-02T17:53:35Z</time>
      </trkpt>
      <trkpt lat="38.304813" lon="-6.421982">
        <ele>499.5</ele>
        <time>2011-04-02T17:53:46Z</time>
      </trkpt>
      <trkpt lat="38.304649" lon="-6.421684">
        <ele>498.6</ele>
        <time>2011-04-02T17:54:08Z</time>
      </trkpt>
      <trkpt lat="38.304516" lon="-6.421389">
        <ele>498.6</ele>
        <time>2011-04-02T17:54:28Z</time>
      </trkpt>
      <trkpt lat="38.304371" lon="-6.421122">
        <ele>499.5</ele>
        <time>2011-04-02T17:54:50Z</time>
      </trkpt>
      <trkpt lat="38.304264" lon="-6.420975">
        <ele>499.0</ele>
        <time>2011-04-02T17:55:02Z</time>
      </trkpt>
      <trkpt lat="38.304100" lon="-6.420709">
        <ele>497.6</ele>
        <time>2011-04-02T17:55:25Z</time>
      </trkpt>
      <trkpt lat="38.303978" lon="-6.420413">
        <ele>497.1</ele>
        <time>2011-04-02T17:55:48Z</time>
      </trkpt>
      <trkpt lat="38.303844" lon="-6.420149">
        <ele>496.2</ele>
        <time>2011-04-02T17:56:08Z</time>
      </trkpt>
      <trkpt lat="38.303780" lon="-6.419970">
        <ele>496.2</ele>
        <time>2011-04-02T17:56:28Z</time>
      </trkpt>
      <trkpt lat="38.303764" lon="-6.419936">
        <ele>496.2</ele>
        <time>2011-04-02T17:56:39Z</time>
      </trkpt>
      <trkpt lat="38.303734" lon="-6.419894">
        <ele>496.7</ele>
        <time>2011-04-02T17:56:43Z</time>
      </trkpt>
      <trkpt lat="38.303684" lon="-6.419771">
        <ele>496.2</ele>
        <time>2011-04-02T17:56:54Z</time>
      </trkpt>
      <trkpt lat="38.303680" lon="-6.419729">
        <ele>496.2</ele>
        <time>2011-04-02T17:56:56Z</time>
      </trkpt>
      <trkpt lat="38.303673" lon="-6.419671">
        <ele>496.2</ele>
        <time>2011-04-02T17:57:00Z</time>
      </trkpt>
      <trkpt lat="38.303646" lon="-6.419520">
        <ele>496.7</ele>
        <time>2011-04-02T17:57:18Z</time>
      </trkpt>
      <trkpt lat="38.303635" lon="-6.419376">
        <ele>497.6</ele>
        <time>2011-04-02T17:57:27Z</time>
      </trkpt>
      <trkpt lat="38.303631" lon="-6.419125">
        <ele>498.1</ele>
        <time>2011-04-02T17:57:44Z</time>
      </trkpt>
      <trkpt lat="38.303631" lon="-6.418801">
        <ele>499.0</ele>
        <time>2011-04-02T17:58:04Z</time>
      </trkpt>
      <trkpt lat="38.303627" lon="-6.418767">
        <ele>498.6</ele>
        <time>2011-04-02T17:58:07Z</time>
      </trkpt>
      <trkpt lat="38.303623" lon="-6.418678">
        <ele>499.5</ele>
        <time>2011-04-02T17:58:12Z</time>
      </trkpt>
      <trkpt lat="38.303600" lon="-6.418380">
        <ele>501.0</ele>
        <time>2011-04-02T17:58:32Z</time>
      </trkpt>
      <trkpt lat="38.303612" lon="-6.418263">
        <ele>501.9</ele>
        <time>2011-04-02T17:58:40Z</time>
      </trkpt>
      <trkpt lat="38.303604" lon="-6.418187">
        <ele>501.5</ele>
        <time>2011-04-02T17:58:46Z</time>
      </trkpt>
      <trkpt lat="38.303585" lon="-6.418084">
        <ele>502.9</ele>
        <time>2011-04-02T17:58:53Z</time>
      </trkpt>
      <trkpt lat="38.303585" lon="-6.417787">
        <ele>504.8</ele>
        <time>2011-04-02T17:59:14Z</time>
      </trkpt>
      <trkpt lat="38.303593" lon="-6.417634">
        <ele>505.8</ele>
        <time>2011-04-02T17:59:24Z</time>
      </trkpt>
      <trkpt lat="38.303604" lon="-6.417507">
        <ele>506.8</ele>
        <time>2011-04-02T17:59:32Z</time>
      </trkpt>
      <trkpt lat="38.303600" lon="-6.417279">
        <ele>507.2</ele>
        <time>2011-04-02T17:59:47Z</time>
      </trkpt>
      <trkpt lat="38.303600" lon="-6.417220">
        <ele>507.2</ele>
        <time>2011-04-02T17:59:51Z</time>
      </trkpt>
      <trkpt lat="38.303570" lon="-6.416896">
        <ele>508.2</ele>
        <time>2011-04-02T18:00:12Z</time>
      </trkpt>
      <trkpt lat="38.303596" lon="-6.416611">
        <ele>506.8</ele>
        <time>2011-04-02T18:00:31Z</time>
      </trkpt>
      <trkpt lat="38.303642" lon="-6.416390">
        <ele>503.9</ele>
        <time>2011-04-02T18:00:46Z</time>
      </trkpt>
      <trkpt lat="38.303654" lon="-6.416341">
        <ele>503.4</ele>
        <time>2011-04-02T18:00:50Z</time>
      </trkpt>
      <trkpt lat="38.303692" lon="-6.416087">
        <ele>501.9</ele>
        <time>2011-04-02T18:01:10Z</time>
      </trkpt>
      <trkpt lat="38.303762" lon="-6.415753">
        <ele>500.5</ele>
        <time>2011-04-02T18:01:32Z</time>
      </trkpt>
      <trkpt lat="38.303823" lon="-6.415466">
        <ele>500.5</ele>
        <time>2011-04-02T18:01:52Z</time>
      </trkpt>
      <trkpt lat="38.303838" lon="-6.415421">
        <ele>500.0</ele>
        <time>2011-04-02T18:01:55Z</time>
      </trkpt>
      <trkpt lat="38.303891" lon="-6.415131">
        <ele>496.7</ele>
        <time>2011-04-02T18:02:15Z</time>
      </trkpt>
      <trkpt lat="38.303937" lon="-6.414944">
        <ele>495.2</ele>
        <time>2011-04-02T18:02:27Z</time>
      </trkpt>
      <trkpt lat="38.303941" lon="-6.414887">
        <ele>494.8</ele>
        <time>2011-04-02T18:02:31Z</time>
      </trkpt>
      <trkpt lat="38.303926" lon="-6.414766">
        <ele>494.3</ele>
        <time>2011-04-02T18:02:42Z</time>
      </trkpt>
      <trkpt lat="38.303937" lon="-6.414714">
        <ele>494.3</ele>
        <time>2011-04-02T18:02:46Z</time>
      </trkpt>
      <trkpt lat="38.304093" lon="-6.414650">
        <ele>490.9</ele>
        <time>2011-04-02T18:03:01Z</time>
      </trkpt>
      <trkpt lat="38.304341" lon="-6.414748">
        <ele>488.0</ele>
        <time>2011-04-02T18:03:24Z</time>
      </trkpt>
      <trkpt lat="38.304513" lon="-6.414900">
        <ele>484.6</ele>
        <time>2011-04-02T18:03:41Z</time>
      </trkpt>
      <trkpt lat="38.304521" lon="-6.414902">
        <ele>484.6</ele>
        <time>2011-04-02T18:03:43Z</time>
      </trkpt>
      <trkpt lat="38.304669" lon="-6.415188">
        <ele>482.3</ele>
        <time>2011-04-02T18:04:07Z</time>
      </trkpt>
      <trkpt lat="38.304727" lon="-6.415524">
        <ele>480.8</ele>
        <time>2011-04-02T18:04:29Z</time>
      </trkpt>
      <trkpt lat="38.304887" lon="-6.415780">
        <ele>479.8</ele>
        <time>2011-04-02T18:04:49Z</time>
      </trkpt>
      <trkpt lat="38.304894" lon="-6.415789">
        <ele>479.4</ele>
        <time>2011-04-02T18:04:50Z</time>
      </trkpt>
      <trkpt lat="38.304929" lon="-6.415830">
        <ele>478.9</ele>
        <time>2011-04-02T18:04:54Z</time>
      </trkpt>
      <trkpt lat="38.305066" lon="-6.416047">
        <ele>476.0</ele>
        <time>2011-04-02T18:05:15Z</time>
      </trkpt>
      <trkpt lat="38.305242" lon="-6.416271">
        <ele>473.6</ele>
        <time>2011-04-02T18:05:36Z</time>
      </trkpt>
      <trkpt lat="38.305471" lon="-6.416417">
        <ele>471.2</ele>
        <time>2011-04-02T18:05:59Z</time>
      </trkpt>
      <trkpt lat="38.305547" lon="-6.416461">
        <ele>470.7</ele>
        <time>2011-04-02T18:06:07Z</time>
      </trkpt>
      <trkpt lat="38.305623" lon="-6.416523">
        <ele>469.3</ele>
        <time>2011-04-02T18:06:14Z</time>
      </trkpt>
      <trkpt lat="38.305699" lon="-6.416630">
        <ele>467.8</ele>
        <time>2011-04-02T18:06:25Z</time>
      </trkpt>
      <trkpt lat="38.305730" lon="-6.416714">
        <ele>467.3</ele>
        <time>2011-04-02T18:06:30Z</time>
      </trkpt>
      <trkpt lat="38.305791" lon="-6.417048">
        <ele>464.9</ele>
        <time>2011-04-02T18:06:53Z</time>
      </trkpt>
      <trkpt lat="38.305837" lon="-6.417265">
        <ele>464.0</ele>
        <time>2011-04-02T18:07:08Z</time>
      </trkpt>
      <trkpt lat="38.305863" lon="-6.417352">
        <ele>464.0</ele>
        <time>2011-04-02T18:07:13Z</time>
      </trkpt>
      <trkpt lat="38.305936" lon="-6.417611">
        <ele>462.0</ele>
        <time>2011-04-02T18:07:31Z</time>
      </trkpt>
      <trkpt lat="38.306001" lon="-6.417757">
        <ele>461.1</ele>
        <time>2011-04-02T18:07:43Z</time>
      </trkpt>
      <trkpt lat="38.306085" lon="-6.418124">
        <ele>459.6</ele>
        <time>2011-04-02T18:08:07Z</time>
      </trkpt>
      <trkpt lat="38.306207" lon="-6.418371">
        <ele>457.7</ele>
        <time>2011-04-02T18:08:28Z</time>
      </trkpt>
      <trkpt lat="38.306264" lon="-6.418419">
        <ele>457.2</ele>
        <time>2011-04-02T18:08:33Z</time>
      </trkpt>
      <trkpt lat="38.306504" lon="-6.418547">
        <ele>454.4</ele>
        <time>2011-04-02T18:08:56Z</time>
      </trkpt>
      <trkpt lat="38.306745" lon="-6.418600">
        <ele>452.0</ele>
        <time>2011-04-02T18:09:19Z</time>
      </trkpt>
      <trkpt lat="38.306794" lon="-6.418615">
        <ele>451.0</ele>
        <time>2011-04-02T18:09:23Z</time>
      </trkpt>
      <trkpt lat="38.307050" lon="-6.418790">
        <ele>448.6</ele>
        <time>2011-04-02T18:09:46Z</time>
      </trkpt>
      <trkpt lat="38.307286" lon="-6.418918">
        <ele>446.2</ele>
        <time>2011-04-02T18:10:08Z</time>
      </trkpt>
      <trkpt lat="38.307332" lon="-6.418924">
        <ele>446.2</ele>
        <time>2011-04-02T18:10:12Z</time>
      </trkpt>
      <trkpt lat="38.307534" lon="-6.418969">
        <ele>442.8</ele>
        <time>2011-04-02T18:10:29Z</time>
      </trkpt>
      <trkpt lat="38.307771" lon="-6.419037">
        <ele>440.9</ele>
        <time>2011-04-02T18:10:51Z</time>
      </trkpt>
      <trkpt lat="38.307935" lon="-6.419107">
        <ele>439.9</ele>
        <time>2011-04-02T18:11:11Z</time>
      </trkpt>
      <trkpt lat="38.308122" lon="-6.419215">
        <ele>439.5</ele>
        <time>2011-04-02T18:11:31Z</time>
      </trkpt>
      <trkpt lat="38.308347" lon="-6.419429">
        <ele>439.0</ele>
        <time>2011-04-02T18:11:54Z</time>
      </trkpt>
      <trkpt lat="38.308545" lon="-6.419661">
        <ele>438.0</ele>
        <time>2011-04-02T18:12:16Z</time>
      </trkpt>
      <trkpt lat="38.308614" lon="-6.419738">
        <ele>438.0</ele>
        <time>2011-04-02T18:12:24Z</time>
      </trkpt>
      <trkpt lat="38.308641" lon="-6.419788">
        <ele>438.0</ele>
        <time>2011-04-02T18:12:28Z</time>
      </trkpt>
      <trkpt lat="38.308713" lon="-6.419853">
        <ele>437.5</ele>
        <time>2011-04-02T18:12:36Z</time>
      </trkpt>
      <trkpt lat="38.308873" lon="-6.420027">
        <ele>437.5</ele>
        <time>2011-04-02T18:12:54Z</time>
      </trkpt>
      <trkpt lat="38.308892" lon="-6.420074">
        <ele>437.1</ele>
        <time>2011-04-02T18:12:58Z</time>
      </trkpt>
      <trkpt lat="38.308930" lon="-6.420135">
        <ele>437.1</ele>
        <time>2011-04-02T18:13:03Z</time>
      </trkpt>
      <trkpt lat="38.308976" lon="-6.420174">
        <ele>437.1</ele>
        <time>2011-04-02T18:13:07Z</time>
      </trkpt>
      <trkpt lat="38.309075" lon="-6.420268">
        <ele>437.5</ele>
        <time>2011-04-02T18:13:18Z</time>
      </trkpt>
      <trkpt lat="38.309239" lon="-6.420444">
        <ele>436.6</ele>
        <time>2011-04-02T18:13:38Z</time>
      </trkpt>
      <trkpt lat="38.309300" lon="-6.420487">
        <ele>437.1</ele>
        <time>2011-04-02T18:13:44Z</time>
      </trkpt>
      <trkpt lat="38.309472" lon="-6.420564">
        <ele>437.1</ele>
        <time>2011-04-02T18:13:58Z</time>
      </trkpt>
      <trkpt lat="38.309499" lon="-6.420587">
        <ele>437.1</ele>
        <time>2011-04-02T18:14:01Z</time>
      </trkpt>
      <trkpt lat="38.309567" lon="-6.420613">
        <ele>437.1</ele>
        <time>2011-04-02T18:14:08Z</time>
      </trkpt>
      <trkpt lat="38.309777" lon="-6.420706">
        <ele>436.6</ele>
        <time>2011-04-02T18:14:27Z</time>
      </trkpt>
      <trkpt lat="38.310029" lon="-6.420806">
        <ele>436.1</ele>
        <time>2011-04-02T18:14:50Z</time>
      </trkpt>
      <trkpt lat="38.310079" lon="-6.420821">
        <ele>435.6</ele>
        <time>2011-04-02T18:14:55Z</time>
      </trkpt>
      <trkpt lat="38.310124" lon="-6.420840">
        <ele>435.6</ele>
        <time>2011-04-02T18:14:59Z</time>
      </trkpt>
      <trkpt lat="38.310250" lon="-6.420940">
        <ele>433.2</ele>
        <time>2011-04-02T18:16:59Z</time>
      </trkpt>
      <trkpt lat="38.310266" lon="-6.420943">
        <ele>432.2</ele>
        <time>2011-04-02T18:17:18Z</time>
      </trkpt>
      <trkpt lat="38.310468" lon="-6.420966">
        <ele>431.8</ele>
        <time>2011-04-02T18:26:51Z</time>
      </trkpt>
      <trkpt lat="38.310617" lon="-6.420975">
        <ele>430.8</ele>
        <time>2011-04-02T18:27:15Z</time>
      </trkpt>
      <trkpt lat="38.310678" lon="-6.420955">
        <ele>432.7</ele>
        <time>2011-04-02T18:29:31Z</time>
      </trkpt>
      <trkpt lat="38.310796" lon="-6.420915">
        <ele>433.2</ele>
        <time>2011-04-02T18:29:42Z</time>
      </trkpt>
      <trkpt lat="38.310914" lon="-6.420899">
        <ele>434.6</ele>
        <time>2011-04-02T18:29:54Z</time>
      </trkpt>
      <trkpt lat="38.310964" lon="-6.420876">
        <ele>434.6</ele>
        <time>2011-04-02T18:29:58Z</time>
      </trkpt>
      <trkpt lat="38.310994" lon="-6.420856">
        <ele>435.6</ele>
        <time>2011-04-02T18:30:01Z</time>
      </trkpt>
      <trkpt lat="38.311067" lon="-6.420846">
        <ele>435.6</ele>
        <time>2011-04-02T18:30:08Z</time>
      </trkpt>
      <trkpt lat="38.311158" lon="-6.420825">
        <ele>436.6</ele>
        <time>2011-04-02T18:30:16Z</time>
      </trkpt>
      <trkpt lat="38.311254" lon="-6.420816">
        <ele>436.1</ele>
        <time>2011-04-02T18:30:25Z</time>
      </trkpt>
      <trkpt lat="38.311368" lon="-6.420793">
        <ele>437.5</ele>
        <time>2011-04-02T18:30:35Z</time>
      </trkpt>
      <trkpt lat="38.311387" lon="-6.420783">
        <ele>437.5</ele>
        <time>2011-04-02T18:30:36Z</time>
      </trkpt>
      <trkpt lat="38.311597" lon="-6.420731">
        <ele>439.9</ele>
        <time>2011-04-02T18:30:56Z</time>
      </trkpt>
      <trkpt lat="38.311616" lon="-6.420726">
        <ele>439.5</ele>
        <time>2011-04-02T18:30:59Z</time>
      </trkpt>
      <trkpt lat="38.311746" lon="-6.420661">
        <ele>441.9</ele>
        <time>2011-04-02T18:31:12Z</time>
      </trkpt>
      <trkpt lat="38.311909" lon="-6.420645">
        <ele>443.8</ele>
        <time>2011-04-02T18:31:27Z</time>
      </trkpt>
      <trkpt lat="38.311928" lon="-6.420638">
        <ele>443.8</ele>
        <time>2011-04-02T18:31:30Z</time>
      </trkpt>
      <trkpt lat="38.311970" lon="-6.420619">
        <ele>444.8</ele>
        <time>2011-04-02T18:31:34Z</time>
      </trkpt>
      <trkpt lat="38.312031" lon="-6.420586">
        <ele>445.2</ele>
        <time>2011-04-02T18:31:41Z</time>
      </trkpt>
      <trkpt lat="38.312145" lon="-6.420497">
        <ele>446.7</ele>
        <time>2011-04-02T18:31:53Z</time>
      </trkpt>
      <trkpt lat="38.312225" lon="-6.420411">
        <ele>447.1</ele>
        <time>2011-04-02T18:32:02Z</time>
      </trkpt>
      <trkpt lat="38.312290" lon="-6.420346">
        <ele>448.6</ele>
        <time>2011-04-02T18:32:09Z</time>
      </trkpt>
      <trkpt lat="38.312313" lon="-6.420333">
        <ele>448.6</ele>
        <time>2011-04-02T18:32:12Z</time>
      </trkpt>
      <trkpt lat="38.312340" lon="-6.420306">
        <ele>448.6</ele>
        <time>2011-04-02T18:32:15Z</time>
      </trkpt>
      <trkpt lat="38.312355" lon="-6.420295">
        <ele>448.6</ele>
        <time>2011-04-02T18:32:16Z</time>
      </trkpt>
      <trkpt lat="38.312458" lon="-6.420207">
        <ele>450.5</ele>
        <time>2011-04-02T18:32:28Z</time>
      </trkpt>
      <trkpt lat="38.312576" lon="-6.420161">
        <ele>451.5</ele>
        <time>2011-04-02T18:32:40Z</time>
      </trkpt>
      <trkpt lat="38.312592" lon="-6.420148">
        <ele>452.0</ele>
        <time>2011-04-02T18:32:43Z</time>
      </trkpt>
      <trkpt lat="38.312611" lon="-6.420141">
        <ele>452.9</ele>
        <time>2011-04-02T18:32:44Z</time>
      </trkpt>
      <trkpt lat="38.312649" lon="-6.420118">
        <ele>453.4</ele>
        <time>2011-04-02T18:32:48Z</time>
      </trkpt>
      <trkpt lat="38.312691" lon="-6.420078">
        <ele>453.9</ele>
        <time>2011-04-02T18:32:55Z</time>
      </trkpt>
      <trkpt lat="38.312714" lon="-6.420060">
        <ele>454.4</ele>
        <time>2011-04-02T18:32:58Z</time>
      </trkpt>
      <trkpt lat="38.312737" lon="-6.420051">
        <ele>454.4</ele>
        <time>2011-04-02T18:32:59Z</time>
      </trkpt>
      <trkpt lat="38.312782" lon="-6.420009">
        <ele>455.3</ele>
        <time>2011-04-02T18:33:06Z</time>
      </trkpt>
      <trkpt lat="38.312801" lon="-6.419997">
        <ele>455.3</ele>
        <time>2011-04-02T18:33:07Z</time>
      </trkpt>
      <trkpt lat="38.312820" lon="-6.419983">
        <ele>455.8</ele>
        <time>2011-04-02T18:33:10Z</time>
      </trkpt>
      <trkpt lat="38.312843" lon="-6.419972">
        <ele>455.8</ele>
        <time>2011-04-02T18:33:11Z</time>
      </trkpt>
      <trkpt lat="38.312984" lon="-6.419885">
        <ele>457.7</ele>
        <time>2011-04-02T18:33:27Z</time>
      </trkpt>
      <trkpt lat="38.313095" lon="-6.419839">
        <ele>459.2</ele>
        <time>2011-04-02T18:33:40Z</time>
      </trkpt>
      <trkpt lat="38.313126" lon="-6.419831">
        <ele>459.2</ele>
        <time>2011-04-02T18:33:42Z</time>
      </trkpt>
      <trkpt lat="38.313210" lon="-6.419801">
        <ele>460.6</ele>
        <time>2011-04-02T18:33:50Z</time>
      </trkpt>
      <trkpt lat="38.313229" lon="-6.419794">
        <ele>460.6</ele>
        <time>2011-04-02T18:33:53Z</time>
      </trkpt>
      <trkpt lat="38.313309" lon="-6.419764">
        <ele>461.1</ele>
        <time>2011-04-02T18:34:01Z</time>
      </trkpt>
      <trkpt lat="38.313332" lon="-6.419762">
        <ele>461.6</ele>
        <time>2011-04-02T18:34:03Z</time>
      </trkpt>
      <trkpt lat="38.313393" lon="-6.419737">
        <ele>462.0</ele>
        <time>2011-04-02T18:34:08Z</time>
      </trkpt>
      <trkpt lat="38.313438" lon="-6.419720">
        <ele>462.5</ele>
        <time>2011-04-02T18:34:12Z</time>
      </trkpt>
      <trkpt lat="38.313480" lon="-6.419697">
        <ele>463.0</ele>
        <time>2011-04-02T18:34:16Z</time>
      </trkpt>
      <trkpt lat="38.313534" lon="-6.419666">
        <ele>463.5</ele>
        <time>2011-04-02T18:34:20Z</time>
      </trkpt>
      <trkpt lat="38.313576" lon="-6.419620">
        <ele>464.0</ele>
        <time>2011-04-02T18:34:27Z</time>
      </trkpt>
      <trkpt lat="38.313763" lon="-6.419489">
        <ele>465.4</ele>
        <time>2011-04-02T18:34:44Z</time>
      </trkpt>
      <trkpt lat="38.313984" lon="-6.419390">
        <ele>465.9</ele>
        <time>2011-04-02T18:35:05Z</time>
      </trkpt>
      <trkpt lat="38.314152" lon="-6.419368">
        <ele>465.4</ele>
        <time>2011-04-02T18:35:18Z</time>
      </trkpt>
      <trkpt lat="38.314182" lon="-6.419363">
        <ele>465.4</ele>
        <time>2011-04-02T18:35:21Z</time>
      </trkpt>
      <trkpt lat="38.314259" lon="-6.419336">
        <ele>465.4</ele>
        <time>2011-04-02T18:35:26Z</time>
      </trkpt>
      <trkpt lat="38.314442" lon="-6.419240">
        <ele>465.9</ele>
        <time>2011-04-02T18:35:42Z</time>
      </trkpt>
      <trkpt lat="38.314499" lon="-6.419213">
        <ele>465.9</ele>
        <time>2011-04-02T18:35:48Z</time>
      </trkpt>
      <trkpt lat="38.314564" lon="-6.419182">
        <ele>466.4</ele>
        <time>2011-04-02T18:35:53Z</time>
      </trkpt>
      <trkpt lat="38.314713" lon="-6.419092">
        <ele>467.3</ele>
        <time>2011-04-02T18:36:08Z</time>
      </trkpt>
      <trkpt lat="38.314785" lon="-6.419042">
        <ele>466.9</ele>
        <time>2011-04-02T18:36:15Z</time>
      </trkpt>
      <trkpt lat="38.314888" lon="-6.418962">
        <ele>467.8</ele>
        <time>2011-04-02T18:36:24Z</time>
      </trkpt>
      <trkpt lat="38.314941" lon="-6.418917">
        <ele>468.3</ele>
        <time>2011-04-02T18:36:31Z</time>
      </trkpt>
      <trkpt lat="38.314987" lon="-6.418890">
        <ele>468.3</ele>
        <time>2011-04-02T18:36:35Z</time>
      </trkpt>
      <trkpt lat="38.315052" lon="-6.418823">
        <ele>468.8</ele>
        <time>2011-04-02T18:36:42Z</time>
      </trkpt>
      <trkpt lat="38.315140" lon="-6.418772">
        <ele>469.7</ele>
        <time>2011-04-02T18:36:50Z</time>
      </trkpt>
      <trkpt lat="38.315262" lon="-6.418679">
        <ele>470.7</ele>
        <time>2011-04-02T18:37:03Z</time>
      </trkpt>
      <trkpt lat="38.315319" lon="-6.418624">
        <ele>471.2</ele>
        <time>2011-04-02T18:37:10Z</time>
      </trkpt>
      <trkpt lat="38.315346" lon="-6.418597">
        <ele>472.1</ele>
        <time>2011-04-02T18:37:13Z</time>
      </trkpt>
      <trkpt lat="38.315376" lon="-6.418557">
        <ele>472.1</ele>
        <time>2011-04-02T18:37:17Z</time>
      </trkpt>
      <trkpt lat="38.315430" lon="-6.418522">
        <ele>472.6</ele>
        <time>2011-04-02T18:37:21Z</time>
      </trkpt>
      <trkpt lat="38.315475" lon="-6.418471">
        <ele>473.1</ele>
        <time>2011-04-02T18:37:26Z</time>
      </trkpt>
      <trkpt lat="38.315647" lon="-6.418342">
        <ele>474.5</ele>
        <time>2011-04-02T18:37:44Z</time>
      </trkpt>
      <trkpt lat="38.315716" lon="-6.418303">
        <ele>475.0</ele>
        <time>2011-04-02T18:37:52Z</time>
      </trkpt>
      <trkpt lat="38.315742" lon="-6.418283">
        <ele>475.5</ele>
        <time>2011-04-02T18:37:55Z</time>
      </trkpt>
      <trkpt lat="38.315853" lon="-6.418233">
        <ele>476.0</ele>
        <time>2011-04-02T18:38:06Z</time>
      </trkpt>
      <trkpt lat="38.315876" lon="-6.418233">
        <ele>476.0</ele>
        <time>2011-04-02T18:38:07Z</time>
      </trkpt>
      <trkpt lat="38.315933" lon="-6.418214">
        <ele>476.5</ele>
        <time>2011-04-02T18:38:12Z</time>
      </trkpt>
      <trkpt lat="38.316074" lon="-6.418138">
        <ele>478.4</ele>
        <time>2011-04-02T18:38:27Z</time>
      </trkpt>
      <trkpt lat="38.316193" lon="-6.418135">
        <ele>479.8</ele>
        <time>2011-04-02T18:38:38Z</time>
      </trkpt>
      <trkpt lat="38.316235" lon="-6.418138">
        <ele>479.4</ele>
        <time>2011-04-02T18:38:42Z</time>
      </trkpt>
      <trkpt lat="38.316257" lon="-6.418137">
        <ele>479.8</ele>
        <time>2011-04-02T18:38:45Z</time>
      </trkpt>
      <trkpt lat="38.316315" lon="-6.418126">
        <ele>480.3</ele>
        <time>2011-04-02T18:38:50Z</time>
      </trkpt>
      <trkpt lat="38.316341" lon="-6.418133">
        <ele>480.3</ele>
        <time>2011-04-02T18:38:53Z</time>
      </trkpt>
      <trkpt lat="38.316448" lon="-6.418139">
        <ele>481.3</ele>
        <time>2011-04-02T18:39:02Z</time>
      </trkpt>
      <trkpt lat="38.316513" lon="-6.418131">
        <ele>481.8</ele>
        <time>2011-04-02T18:39:09Z</time>
      </trkpt>
      <trkpt lat="38.316574" lon="-6.418142">
        <ele>482.3</ele>
        <time>2011-04-02T18:39:14Z</time>
      </trkpt>
      <trkpt lat="38.316738" lon="-6.418122">
        <ele>485.1</ele>
        <time>2011-04-02T18:39:33Z</time>
      </trkpt>
      <trkpt lat="38.316765" lon="-6.418108">
        <ele>486.1</ele>
        <time>2011-04-02T18:39:36Z</time>
      </trkpt>
      <trkpt lat="38.316811" lon="-6.418081">
        <ele>486.1</ele>
        <time>2011-04-02T18:39:41Z</time>
      </trkpt>
      <trkpt lat="38.316841" lon="-6.418077">
        <ele>486.1</ele>
        <time>2011-04-02T18:39:52Z</time>
      </trkpt>
      <trkpt lat="38.316982" lon="-6.418066">
        <ele>487.5</ele>
        <time>2011-04-02T18:40:03Z</time>
      </trkpt>
      <trkpt lat="38.317009" lon="-6.418050">
        <ele>487.0</ele>
        <time>2011-04-02T18:40:07Z</time>
      </trkpt>
      <trkpt lat="38.317104" lon="-6.418045">
        <ele>488.0</ele>
        <time>2011-04-02T18:40:15Z</time>
      </trkpt>
      <trkpt lat="38.317211" lon="-6.418046">
        <ele>488.5</ele>
        <time>2011-04-02T18:40:25Z</time>
      </trkpt>
      <trkpt lat="38.317387" lon="-6.418036">
        <ele>489.4</ele>
        <time>2011-04-02T18:40:38Z</time>
      </trkpt>
      <trkpt lat="38.317524" lon="-6.418044">
        <ele>489.9</ele>
        <time>2011-04-02T18:40:50Z</time>
      </trkpt>
      <trkpt lat="38.317665" lon="-6.418051">
        <ele>490.4</ele>
        <time>2011-04-02T18:41:02Z</time>
      </trkpt>
      <trkpt lat="38.317703" lon="-6.418061">
        <ele>490.9</ele>
        <time>2011-04-02T18:41:05Z</time>
      </trkpt>
      <trkpt lat="38.317921" lon="-6.418070">
        <ele>491.9</ele>
        <time>2011-04-02T18:41:24Z</time>
      </trkpt>
      <trkpt lat="38.317944" lon="-6.418070">
        <ele>492.3</ele>
        <time>2011-04-02T18:41:27Z</time>
      </trkpt>
      <trkpt lat="38.317963" lon="-6.418075">
        <ele>492.3</ele>
        <time>2011-04-02T18:41:28Z</time>
      </trkpt>
      <trkpt lat="38.318073" lon="-6.418074">
        <ele>493.3</ele>
        <time>2011-04-02T18:41:38Z</time>
      </trkpt>
      <trkpt lat="38.318157" lon="-6.418066">
        <ele>493.8</ele>
        <time>2011-04-02T18:41:44Z</time>
      </trkpt>
      <trkpt lat="38.318195" lon="-6.418068">
        <ele>494.3</ele>
        <time>2011-04-02T18:41:48Z</time>
      </trkpt>
      <trkpt lat="38.318428" lon="-6.418053">
        <ele>495.7</ele>
        <time>2011-04-02T18:42:09Z</time>
      </trkpt>
      <trkpt lat="38.318535" lon="-6.418036">
        <ele>497.1</ele>
        <time>2011-04-02T18:42:18Z</time>
      </trkpt>
      <trkpt lat="38.318630" lon="-6.418034">
        <ele>498.1</ele>
        <time>2011-04-02T18:42:26Z</time>
      </trkpt>
      <trkpt lat="38.318653" lon="-6.418036">
        <ele>498.1</ele>
        <time>2011-04-02T18:42:29Z</time>
      </trkpt>
      <trkpt lat="38.318733" lon="-6.418020">
        <ele>498.6</ele>
        <time>2011-04-02T18:42:36Z</time>
      </trkpt>
      <trkpt lat="38.318775" lon="-6.418015">
        <ele>499.0</ele>
        <time>2011-04-02T18:42:40Z</time>
      </trkpt>
      <trkpt lat="38.318890" lon="-6.417999">
        <ele>499.5</ele>
        <time>2011-04-02T18:42:49Z</time>
      </trkpt>
      <trkpt lat="38.318932" lon="-6.417983">
        <ele>500.0</ele>
        <time>2011-04-02T18:42:53Z</time>
      </trkpt>
      <trkpt lat="38.319115" lon="-6.417861">
        <ele>501.5</ele>
        <time>2011-04-02T18:43:11Z</time>
      </trkpt>
      <trkpt lat="38.319157" lon="-6.417838">
        <ele>501.5</ele>
        <time>2011-04-02T18:43:15Z</time>
      </trkpt>
      <trkpt lat="38.319244" lon="-6.417775">
        <ele>501.0</ele>
        <time>2011-04-02T18:43:23Z</time>
      </trkpt>
      <trkpt lat="38.319542" lon="-6.417706">
        <ele>499.0</ele>
        <time>2011-04-02T18:43:47Z</time>
      </trkpt>
      <trkpt lat="38.319626" lon="-6.417697">
        <ele>498.6</ele>
        <time>2011-04-02T18:43:54Z</time>
      </trkpt>
      <trkpt lat="38.319878" lon="-6.417738">
        <ele>497.6</ele>
        <time>2011-04-02T18:44:14Z</time>
      </trkpt>
      <trkpt lat="38.320137" lon="-6.417817">
        <ele>497.1</ele>
        <time>2011-04-02T18:44:37Z</time>
      </trkpt>
      <trkpt lat="38.320316" lon="-6.417862">
        <ele>496.2</ele>
        <time>2011-04-02T18:44:52Z</time>
      </trkpt>
      <trkpt lat="38.320587" lon="-6.417904">
        <ele>495.7</ele>
        <time>2011-04-02T18:45:14Z</time>
      </trkpt>
      <trkpt lat="38.320850" lon="-6.417993">
        <ele>495.7</ele>
        <time>2011-04-02T18:45:35Z</time>
      </trkpt>
      <trkpt lat="38.321018" lon="-6.418060">
        <ele>495.7</ele>
        <time>2011-04-02T18:45:57Z</time>
      </trkpt>
      <trkpt lat="38.321049" lon="-6.418056">
        <ele>494.8</ele>
        <time>2011-04-02T18:46:02Z</time>
      </trkpt>
      <trkpt lat="38.321323" lon="-6.418102">
        <ele>494.8</ele>
        <time>2011-04-02T18:46:25Z</time>
      </trkpt>
      <trkpt lat="38.321579" lon="-6.418220">
        <ele>494.3</ele>
        <time>2011-04-02T18:46:47Z</time>
      </trkpt>
      <trkpt lat="38.321594" lon="-6.418240">
        <ele>494.8</ele>
        <time>2011-04-02T18:46:48Z</time>
      </trkpt>
      <trkpt lat="38.321857" lon="-6.418365">
        <ele>494.8</ele>
        <time>2011-04-02T18:47:11Z</time>
      </trkpt>
      <trkpt lat="38.322014" lon="-6.418450">
        <ele>494.3</ele>
        <time>2011-04-02T18:47:26Z</time>
      </trkpt>
      <trkpt lat="38.322075" lon="-6.418475">
        <ele>493.3</ele>
        <time>2011-04-02T18:47:31Z</time>
      </trkpt>
      <trkpt lat="38.322330" lon="-6.418597">
        <ele>493.8</ele>
        <time>2011-04-02T18:47:54Z</time>
      </trkpt>
      <trkpt lat="38.322567" lon="-6.418717">
        <ele>493.3</ele>
        <time>2011-04-02T18:48:14Z</time>
      </trkpt>
      <trkpt lat="38.322800" lon="-6.418813">
        <ele>494.3</ele>
        <time>2011-04-02T18:48:36Z</time>
      </trkpt>
      <trkpt lat="38.322838" lon="-6.418827">
        <ele>494.3</ele>
        <time>2011-04-02T18:48:39Z</time>
      </trkpt>
      <trkpt lat="38.322880" lon="-6.418847">
        <ele>494.8</ele>
        <time>2011-04-02T18:48:43Z</time>
      </trkpt>
      <trkpt lat="38.322983" lon="-6.418890">
        <ele>495.7</ele>
        <time>2011-04-02T18:48:52Z</time>
      </trkpt>
      <trkpt lat="38.323025" lon="-6.418897">
        <ele>496.2</ele>
        <time>2011-04-02T18:48:55Z</time>
      </trkpt>
      <trkpt lat="38.323238" lon="-6.418865">
        <ele>498.1</ele>
        <time>2011-04-02T18:49:15Z</time>
      </trkpt>
      <trkpt lat="38.323433" lon="-6.418819">
        <ele>499.5</ele>
        <time>2011-04-02T18:49:31Z</time>
      </trkpt>
      <trkpt lat="38.323486" lon="-6.418814">
        <ele>500.0</ele>
        <time>2011-04-02T18:49:37Z</time>
      </trkpt>
      <trkpt lat="38.323666" lon="-6.418795">
        <ele>501.0</ele>
        <time>2011-04-02T18:49:53Z</time>
      </trkpt>
      <trkpt lat="38.323917" lon="-6.418765">
        <ele>502.9</ele>
        <time>2011-04-02T18:50:13Z</time>
      </trkpt>
      <trkpt lat="38.323940" lon="-6.418766">
        <ele>502.9</ele>
        <time>2011-04-02T18:50:16Z</time>
      </trkpt>
      <trkpt lat="38.324020" lon="-6.418745">
        <ele>503.4</ele>
        <time>2011-04-02T18:50:23Z</time>
      </trkpt>
      <trkpt lat="38.324158" lon="-6.418707">
        <ele>503.9</ele>
        <time>2011-04-02T18:50:35Z</time>
      </trkpt>
      <trkpt lat="38.324234" lon="-6.418701">
        <ele>504.4</ele>
        <time>2011-04-02T18:50:40Z</time>
      </trkpt>
      <trkpt lat="38.324482" lon="-6.418668">
        <ele>505.3</ele>
        <time>2011-04-02T18:51:02Z</time>
      </trkpt>
      <trkpt lat="38.324707" lon="-6.418599">
        <ele>506.8</ele>
        <time>2011-04-02T18:51:22Z</time>
      </trkpt>
      <trkpt lat="38.324718" lon="-6.418595">
        <ele>506.3</ele>
        <time>2011-04-02T18:51:22Z</time>
      </trkpt>
      <trkpt lat="38.324966" lon="-6.418526">
        <ele>506.8</ele>
        <time>2011-04-02T18:51:44Z</time>
      </trkpt>
      <trkpt lat="38.325237" lon="-6.418483">
        <ele>508.2</ele>
        <time>2011-04-02T18:52:07Z</time>
      </trkpt>
      <trkpt lat="38.325409" lon="-6.418481">
        <ele>509.2</ele>
        <time>2011-04-02T18:52:21Z</time>
      </trkpt>
      <trkpt lat="38.325535" lon="-6.418516">
        <ele>510.1</ele>
        <time>2011-04-02T18:52:32Z</time>
      </trkpt>
      <trkpt lat="38.325687" lon="-6.418554">
        <ele>510.6</ele>
        <time>2011-04-02T18:52:51Z</time>
      </trkpt>
      <trkpt lat="38.325726" lon="-6.418561">
        <ele>511.1</ele>
        <time>2011-04-02T18:52:55Z</time>
      </trkpt>
      <trkpt lat="38.325867" lon="-6.418553">
        <ele>511.5</ele>
        <time>2011-04-02T18:53:07Z</time>
      </trkpt>
      <trkpt lat="38.325886" lon="-6.418553">
        <ele>512.0</ele>
        <time>2011-04-02T18:53:10Z</time>
      </trkpt>
      <trkpt lat="38.326096" lon="-6.418461">
        <ele>513.5</ele>
        <time>2011-04-02T18:53:29Z</time>
      </trkpt>
      <trkpt lat="38.326313" lon="-6.418355">
        <ele>513.0</ele>
        <time>2011-04-02T18:53:51Z</time>
      </trkpt>
      <trkpt lat="38.326397" lon="-6.418308">
        <ele>512.0</ele>
        <time>2011-04-02T18:54:04Z</time>
      </trkpt>
      <trkpt lat="38.326511" lon="-6.418219">
        <ele>512.0</ele>
        <time>2011-04-02T18:54:16Z</time>
      </trkpt>
      <trkpt lat="38.326637" lon="-6.418124">
        <ele>511.5</ele>
        <time>2011-04-02T18:54:27Z</time>
      </trkpt>
      <trkpt lat="38.326782" lon="-6.418043">
        <ele>511.5</ele>
        <time>2011-04-02T18:54:46Z</time>
      </trkpt>
      <trkpt lat="38.326988" lon="-6.417965">
        <ele>511.5</ele>
        <time>2011-04-02T18:55:06Z</time>
      </trkpt>
      <trkpt lat="38.327129" lon="-6.417949">
        <ele>512.0</ele>
        <time>2011-04-02T18:55:17Z</time>
      </trkpt>
      <trkpt lat="38.327274" lon="-6.417939">
        <ele>512.0</ele>
        <time>2011-04-02T18:55:29Z</time>
      </trkpt>
      <trkpt lat="38.327332" lon="-6.417935">
        <ele>512.5</ele>
        <time>2011-04-02T18:55:35Z</time>
      </trkpt>
      <trkpt lat="38.327518" lon="-6.417917">
        <ele>514.4</ele>
        <time>2011-04-02T18:55:51Z</time>
      </trkpt>
      <trkpt lat="38.327564" lon="-6.417903">
        <ele>514.9</ele>
        <time>2011-04-02T18:55:55Z</time>
      </trkpt>
      <trkpt lat="38.327583" lon="-6.417906">
        <ele>515.4</ele>
        <time>2011-04-02T18:55:56Z</time>
      </trkpt>
      <trkpt lat="38.327602" lon="-6.417900">
        <ele>514.9</ele>
        <time>2011-04-02T18:55:59Z</time>
      </trkpt>
      <trkpt lat="38.327682" lon="-6.417902">
        <ele>516.4</ele>
        <time>2011-04-02T18:56:06Z</time>
      </trkpt>
      <trkpt lat="38.327747" lon="-6.417891">
        <ele>516.8</ele>
        <time>2011-04-02T18:56:11Z</time>
      </trkpt>
      <trkpt lat="38.327766" lon="-6.417892">
        <ele>517.3</ele>
        <time>2011-04-02T18:56:14Z</time>
      </trkpt>
      <trkpt lat="38.327873" lon="-6.417865">
        <ele>518.8</ele>
        <time>2011-04-02T18:56:23Z</time>
      </trkpt>
      <trkpt lat="38.328003" lon="-6.417850">
        <ele>519.7</ele>
        <time>2011-04-02T18:56:35Z</time>
      </trkpt>
      <trkpt lat="38.328022" lon="-6.417841">
        <ele>520.2</ele>
        <time>2011-04-02T18:56:38Z</time>
      </trkpt>
      <trkpt lat="38.328041" lon="-6.417839">
        <ele>520.2</ele>
        <time>2011-04-02T18:56:39Z</time>
      </trkpt>
      <trkpt lat="38.328087" lon="-6.417834">
        <ele>521.2</ele>
        <time>2011-04-02T18:56:43Z</time>
      </trkpt>
      <trkpt lat="38.328129" lon="-6.417833">
        <ele>521.2</ele>
        <time>2011-04-02T18:56:47Z</time>
      </trkpt>
      <trkpt lat="38.328148" lon="-6.417826">
        <ele>521.7</ele>
        <time>2011-04-02T18:56:50Z</time>
      </trkpt>
      <trkpt lat="38.328197" lon="-6.417811">
        <ele>522.6</ele>
        <time>2011-04-02T18:56:54Z</time>
      </trkpt>
      <trkpt lat="38.328259" lon="-6.417802">
        <ele>522.6</ele>
        <time>2011-04-02T18:57:00Z</time>
      </trkpt>
      <trkpt lat="38.328384" lon="-6.417765">
        <ele>524.5</ele>
        <time>2011-04-02T18:57:13Z</time>
      </trkpt>
      <trkpt lat="38.328407" lon="-6.417761">
        <ele>525.0</ele>
        <time>2011-04-02T18:57:14Z</time>
      </trkpt>
      <trkpt lat="38.328438" lon="-6.417765">
        <ele>525.5</ele>
        <time>2011-04-02T18:57:17Z</time>
      </trkpt>
      <trkpt lat="38.328575" lon="-6.417763">
        <ele>525.5</ele>
        <time>2011-04-02T18:57:29Z</time>
      </trkpt>
      <trkpt lat="38.328590" lon="-6.417757">
        <ele>526.5</ele>
        <time>2011-04-02T18:57:32Z</time>
      </trkpt>
      <trkpt lat="38.328781" lon="-6.417820">
        <ele>528.9</ele>
        <time>2011-04-02T18:57:51Z</time>
      </trkpt>
      <trkpt lat="38.328800" lon="-6.417823">
        <ele>529.3</ele>
        <time>2011-04-02T18:57:52Z</time>
      </trkpt>
      <trkpt lat="38.328846" lon="-6.417855">
        <ele>529.8</ele>
        <time>2011-04-02T18:57:58Z</time>
      </trkpt>
      <trkpt lat="38.328869" lon="-6.417889">
        <ele>530.3</ele>
        <time>2011-04-02T18:58:00Z</time>
      </trkpt>
      <trkpt lat="38.328892" lon="-6.417893">
        <ele>530.8</ele>
        <time>2011-04-02T18:58:03Z</time>
      </trkpt>
      <trkpt lat="38.328915" lon="-6.417920">
        <ele>531.3</ele>
        <time>2011-04-02T18:58:06Z</time>
      </trkpt>
      <trkpt lat="38.329014" lon="-6.417918">
        <ele>531.8</ele>
        <time>2011-04-02T18:58:15Z</time>
      </trkpt>
      <trkpt lat="38.329071" lon="-6.417902">
        <ele>531.8</ele>
        <time>2011-04-02T18:58:19Z</time>
      </trkpt>
      <trkpt lat="38.329121" lon="-6.417871">
        <ele>532.2</ele>
        <time>2011-04-02T18:58:25Z</time>
      </trkpt>
      <trkpt lat="38.329346" lon="-6.417809">
        <ele>533.2</ele>
        <time>2011-04-02T18:58:45Z</time>
      </trkpt>
      <trkpt lat="38.329380" lon="-6.417815">
        <ele>533.2</ele>
        <time>2011-04-02T18:58:48Z</time>
      </trkpt>
      <trkpt lat="38.329430" lon="-6.417819">
        <ele>533.7</ele>
        <time>2011-04-02T18:58:52Z</time>
      </trkpt>
      <trkpt lat="38.329544" lon="-6.417839">
        <ele>533.7</ele>
        <time>2011-04-02T18:59:01Z</time>
      </trkpt>
      <trkpt lat="38.329601" lon="-6.417846">
        <ele>534.2</ele>
        <time>2011-04-02T18:59:06Z</time>
      </trkpt>
      <trkpt lat="38.329670" lon="-6.417826">
        <ele>534.2</ele>
        <time>2011-04-02T18:59:13Z</time>
      </trkpt>
      <trkpt lat="38.329918" lon="-6.417734">
        <ele>534.6</ele>
        <time>2011-04-02T18:59:35Z</time>
      </trkpt>
      <trkpt lat="38.330013" lon="-6.417756">
        <ele>534.6</ele>
        <time>2011-04-02T18:59:43Z</time>
      </trkpt>
      <trkpt lat="38.330276" lon="-6.417800">
        <ele>536.1</ele>
        <time>2011-04-02T19:00:05Z</time>
      </trkpt>
      <trkpt lat="38.330399" lon="-6.417783">
        <ele>536.1</ele>
        <time>2011-04-02T19:00:14Z</time>
      </trkpt>
      <trkpt lat="38.330467" lon="-6.417763">
        <ele>536.5</ele>
        <time>2011-04-02T19:00:21Z</time>
      </trkpt>
      <trkpt lat="38.330738" lon="-6.417749">
        <ele>536.5</ele>
        <time>2011-04-02T19:00:42Z</time>
      </trkpt>
      <trkpt lat="38.330872" lon="-6.417781">
        <ele>537.5</ele>
        <time>2011-04-02T19:00:53Z</time>
      </trkpt>
      <trkpt lat="38.330948" lon="-6.417790">
        <ele>537.5</ele>
        <time>2011-04-02T19:01:00Z</time>
      </trkpt>
      <trkpt lat="38.331158" lon="-6.417728">
        <ele>538.5</ele>
        <time>2011-04-02T19:01:17Z</time>
      </trkpt>
      <trkpt lat="38.331249" lon="-6.417694">
        <ele>538.9</ele>
        <time>2011-04-02T19:01:26Z</time>
      </trkpt>
      <trkpt lat="38.331528" lon="-6.417734">
        <ele>539.4</ele>
        <time>2011-04-02T19:01:48Z</time>
      </trkpt>
      <trkpt lat="38.331791" lon="-6.417762">
        <ele>540.4</ele>
        <time>2011-04-02T19:02:13Z</time>
      </trkpt>
      <trkpt lat="38.332066" lon="-6.417783">
        <ele>540.9</ele>
        <time>2011-04-02T19:02:34Z</time>
      </trkpt>
      <trkpt lat="38.332199" lon="-6.417811">
        <ele>540.9</ele>
        <time>2011-04-02T19:02:45Z</time>
      </trkpt>
      <trkpt lat="38.332249" lon="-6.417816">
        <ele>540.9</ele>
        <time>2011-04-02T19:03:03Z</time>
      </trkpt>
      <trkpt lat="38.332272" lon="-6.417821">
        <ele>540.9</ele>
        <time>2011-04-02T19:03:12Z</time>
      </trkpt>
      <trkpt lat="38.332294" lon="-6.417821">
        <ele>541.4</ele>
        <time>2011-04-02T19:03:15Z</time>
      </trkpt>
      <trkpt lat="38.332409" lon="-6.417836">
        <ele>540.9</ele>
        <time>2011-04-02T19:03:24Z</time>
      </trkpt>
      <trkpt lat="38.332668" lon="-6.417834">
        <ele>540.4</ele>
        <time>2011-04-02T19:03:47Z</time>
      </trkpt>
      <trkpt lat="38.332958" lon="-6.417776">
        <ele>539.9</ele>
        <time>2011-04-02T19:04:13Z</time>
      </trkpt>
      <trkpt lat="38.333019" lon="-6.417778">
        <ele>539.4</ele>
        <time>2011-04-02T19:04:17Z</time>
      </trkpt>
      <trkpt lat="38.333061" lon="-6.417782">
        <ele>539.4</ele>
        <time>2011-04-02T19:04:21Z</time>
      </trkpt>
      <trkpt lat="38.333305" lon="-6.417738">
        <ele>538.5</ele>
        <time>2011-04-02T19:04:44Z</time>
      </trkpt>
      <trkpt lat="38.333340" lon="-6.417730">
        <ele>538.5</ele>
        <time>2011-04-02T19:04:47Z</time>
      </trkpt>
      <trkpt lat="38.333477" lon="-6.417674">
        <ele>537.5</ele>
        <time>2011-04-02T19:04:59Z</time>
      </trkpt>
      <trkpt lat="38.333778" lon="-6.417631">
        <ele>537.0</ele>
        <time>2011-04-02T19:05:23Z</time>
      </trkpt>
      <trkpt lat="38.334030" lon="-6.417584">
        <ele>537.0</ele>
        <time>2011-04-02T19:05:47Z</time>
      </trkpt>
      <trkpt lat="38.334145" lon="-6.417544">
        <ele>536.5</ele>
        <time>2011-04-02T19:06:05Z</time>
      </trkpt>
      <trkpt lat="38.334389" lon="-6.417436">
        <ele>537.0</ele>
        <time>2011-04-02T19:06:25Z</time>
      </trkpt>
      <trkpt lat="38.334435" lon="-6.417418">
        <ele>537.0</ele>
        <time>2011-04-02T19:06:29Z</time>
      </trkpt>
      <trkpt lat="38.334599" lon="-6.417292">
        <ele>537.5</ele>
        <time>2011-04-02T19:06:45Z</time>
      </trkpt>
      <trkpt lat="38.334648" lon="-6.417251">
        <ele>537.0</ele>
        <time>2011-04-02T19:06:51Z</time>
      </trkpt>
      <trkpt lat="38.334763" lon="-6.417167">
        <ele>535.1</ele>
        <time>2011-04-02T19:07:02Z</time>
      </trkpt>
      <trkpt lat="38.334805" lon="-6.417143">
        <ele>536.5</ele>
        <time>2011-04-02T19:07:06Z</time>
      </trkpt>
      <trkpt lat="38.334812" lon="-6.417135">
        <ele>537.0</ele>
        <time>2011-04-02T19:07:07Z</time>
      </trkpt>
      <trkpt lat="38.334938" lon="-6.417066">
        <ele>537.0</ele>
        <time>2011-04-02T19:07:19Z</time>
      </trkpt>
      <trkpt lat="38.334953" lon="-6.417055">
        <ele>537.0</ele>
        <time>2011-04-02T19:07:22Z</time>
      </trkpt>
      <trkpt lat="38.335190" lon="-6.416914">
        <ele>536.5</ele>
        <time>2011-04-02T19:07:44Z</time>
      </trkpt>
      <trkpt lat="38.335419" lon="-6.416798">
        <ele>536.5</ele>
        <time>2011-04-02T19:08:05Z</time>
      </trkpt>
      <trkpt lat="38.335430" lon="-6.416795">
        <ele>536.1</ele>
        <time>2011-04-02T19:08:05Z</time>
      </trkpt>
      <trkpt lat="38.335484" lon="-6.416764">
        <ele>536.5</ele>
        <time>2011-04-02T19:08:11Z</time>
      </trkpt>
      <trkpt lat="38.335590" lon="-6.416657">
        <ele>536.1</ele>
        <time>2011-04-02T19:08:21Z</time>
      </trkpt>
      <trkpt lat="38.335686" lon="-6.416605">
        <ele>535.1</ele>
        <time>2011-04-02T19:08:29Z</time>
      </trkpt>
      <trkpt lat="38.335754" lon="-6.416614">
        <ele>535.6</ele>
        <time>2011-04-02T19:08:36Z</time>
      </trkpt>
      <trkpt lat="38.335888" lon="-6.416536">
        <ele>535.6</ele>
        <time>2011-04-02T19:08:51Z</time>
      </trkpt>
      <trkpt lat="38.335915" lon="-6.416562">
        <ele>535.6</ele>
        <time>2011-04-02T19:09:23Z</time>
      </trkpt>
      <trkpt lat="38.335979" lon="-6.416481">
        <ele>535.6</ele>
        <time>2011-04-02T19:09:42Z</time>
      </trkpt>
      <trkpt lat="38.335979" lon="-6.416479">
        <ele>535.1</ele>
        <time>2011-04-02T19:10:24Z</time>
      </trkpt>
      <trkpt lat="38.335983" lon="-6.416480">
        <ele>535.6</ele>
        <time>2011-04-02T19:10:50Z</time>
      </trkpt>
      <trkpt lat="38.336082" lon="-6.416440">
        <ele>535.1</ele>
        <time>2011-04-02T19:11:10Z</time>
      </trkpt>
      <trkpt lat="38.336128" lon="-6.416415">
        <ele>536.1</ele>
        <time>2011-04-02T19:11:20Z</time>
      </trkpt>
      <trkpt lat="38.336075" lon="-6.416442">
        <ele>534.6</ele>
        <time>2011-04-02T19:11:25Z</time>
      </trkpt>
      <trkpt lat="38.336021" lon="-6.416483">
        <ele>535.1</ele>
        <time>2011-04-02T19:11:29Z</time>
      </trkpt>
      <trkpt lat="38.335987" lon="-6.416495">
        <ele>535.6</ele>
        <time>2011-04-02T19:11:41Z</time>
      </trkpt>
      <trkpt lat="38.336029" lon="-6.416472">
        <ele>535.6</ele>
        <time>2011-04-02T19:11:47Z</time>
      </trkpt>
      <trkpt lat="38.336128" lon="-6.416416">
        <ele>536.1</ele>
        <time>2011-04-02T19:12:09Z</time>
      </trkpt>
      <trkpt lat="38.336391" lon="-6.416291">
        <ele>535.6</ele>
        <time>2011-04-02T19:12:31Z</time>
      </trkpt>
      <trkpt lat="38.336643" lon="-6.416138">
        <ele>535.1</ele>
        <time>2011-04-02T19:12:53Z</time>
      </trkpt>
      <trkpt lat="38.336864" lon="-6.415971">
        <ele>535.1</ele>
        <time>2011-04-02T19:13:13Z</time>
      </trkpt>
      <trkpt lat="38.337105" lon="-6.415761">
        <ele>535.1</ele>
        <time>2011-04-02T19:13:35Z</time>
      </trkpt>
      <trkpt lat="38.337322" lon="-6.415598">
        <ele>534.6</ele>
        <time>2011-04-02T19:13:55Z</time>
      </trkpt>
      <trkpt lat="38.337502" lon="-6.415473">
        <ele>535.1</ele>
        <time>2011-04-02T19:14:11Z</time>
      </trkpt>
      <trkpt lat="38.337635" lon="-6.415411">
        <ele>535.1</ele>
        <time>2011-04-02T19:14:29Z</time>
      </trkpt>
      <trkpt lat="38.337769" lon="-6.415376">
        <ele>535.6</ele>
        <time>2011-04-02T19:14:46Z</time>
      </trkpt>
      <trkpt lat="38.337811" lon="-6.415359">
        <ele>535.6</ele>
        <time>2011-04-02T19:14:51Z</time>
      </trkpt>
    </trkseg>
  </trk></gpx>